     2.11           OBSERVATION DATA    G (GPS)             RINEX VERSION / TYPE
teqc 2010Oct21 OPUS Account 20111025 13:24:35UTC            PGM / RUN BY / DATE
B 1521                                                      MARKER NAME
1115                                                        MARKER NUMBER
CSMIDDLETON NGS                                             OBSERVER / AGENCY
4613K00970 TRIMBLE NETR5 4.17                               REC # / TYPE / VERS
60125046 TRM41249.00 NONE                                   ANT # / TYPE
  -738285.7819 -5466451.4756  3191620.1934                  APPROX POSITION XYZ
        2.0040        0.0000        0.0000                  ANTENNA: DELTA H/E/N
     1     1                                                WAVELENGTH FACT L1/2
     5    L1    L2    C1    P1    P2                        # / TYPES OF OBSERV
    15                                                      LEAP SECONDS
  2011     7    23    19     2   30.0000000     GPS         TIME OF FIRST OBS
                                                            END OF HEADER
 11  7 23 19  2 30.0000000  0 10G07G08G13G06G10G19G03G28G11G23
 109947299.47818  85673249.45056  20922275.164                    20922283.148
 118207720.32417  92109948.72055  22494181.797                    22494190.938
 108884011.87318  84844718.11156  20719938.898                    20719946.938
 128890826.31216 100434467.89553  24527113.328                    24527122.902
 130131554.52716 101401281.80953  24763219.211                    24763232.324
 111068038.67417  86546549.48556  21135545.328                    21135552.047
 118578000.29617  92398475.95254  22564642.656                    22564651.949
 122611953.89717  95541817.77354  23332278.398                    23332287.945
 122178264.58317  95203881.85954  23249750.602                    23249761.137
 117774404.53117  91772296.33854  22411725.047                    22411732.457
 11  7 23 19  3  0.0000000  0 10G07G08G13G06G10G19G03G28G11G23
 109904017.887 8  85639523.54246  20914039.055                    20914046.891
 118134586.131 7  92052961.08845  22480265.109                    22480273.551
 108947998.100 8  84894577.46546  20732115.352                    20732123.359
 128989618.582 6 100511448.82443  24545913.727                    24545922.867
 130187743.569 6 101445065.33742  24773912.914                    24773924.820
 111103574.136 7  86574239.44346  21142307.211                    21142314.000
 118672057.795 7  92471767.48944  22582541.156                    22582550.820
 122560266.941 7  95501542.29144  23322442.797                    23322451.969
 122100953.245 7  95143639.36744  23235038.859                    23235049.500
 117879130.487 7  91853900.84344  22431653.805                    22431662.023
 11  7 23 19  3 30.0000000  0 10G07G08G13G06G10G19G03G28G11G23
 109860933.856 8  85605951.58946  20905840.250                    20905848.270
 118061469.050 7  91995986.78445  22466351.227                    22466360.555
 109012493.843 8  84944833.84946  20744388.250                    20744396.094
 129088581.485 6 100588562.76443  24564745.586                    24564754.742
 130244103.297 6 101488981.91543  24784637.672                    24784650.250
 111139691.510 7  86602382.85246  21149180.406                    21149186.801
 118766430.752 7  92545304.83144  22600500.367                    22600509.184
 122508782.193 7  95461424.36944  23312645.453                    23312654.668
 122023779.847 7  95083504.34944  23220353.391                    23220364.035
 117984103.223 7  91935697.63944  22451629.750                    22451637.914
 11  7 23 19  4  0.0000000  0 10G07G08G13G06G10G19G03G28G11G23
 109818048.989 8  85572534.82146  20897679.719                    20897687.848
 117988370.178 7  91939026.66345  22452440.656                    22452449.414
 109077496.743 8  84995485.41046  20756757.898                    20756766.449
 129187712.509 6 100665807.66743  24583609.539                    24583618.590
 130300630.857 6 101533029.22043  24795394.766                    24795407.125
 111176389.395 7  86630978.60546  21156163.773                    21156170.344
 118861116.771 7  92619086.12544  22618519.000                    22618526.754
 122457498.716 7  95421463.30444  23302887.078                    23302896.164
 121946747.625 7  95023479.33544  23205694.367                    23205705.301
 118089319.568 7  92017684.27944  22471651.359                    22471659.992
 11  7 23 19  4 30.0000000  0 10G07G08G13G06G10G19G03G28G11G23
 109775364.374 8  85539274.10546  20889557.516                    20889565.176
 117915290.653 7  91882081.61445  22438534.148                    22438543.285
 109143004.460 8  85046530.34746  20769224.070                    20769231.402
 129287008.425 6 100743181.10043  24602504.984                    24602514.297
 130357322.523 6 101577204.43443  24806182.898                    24806195.301
 111213665.578 7  86660024.97746  21163257.516                    21163263.641
 118956111.994 7  92693108.35044  22636595.234                    22636604.090
 122406415.448 7  95381658.21244  23293166.219                    23293174.859
 121869858.889 7  94963566.14344  23191063.453                    23191073.645
 118194776.216 7  92099858.14944  22491719.695                    22491728.266
 11  7 23 19  5  0.0000000  0 10G07G08G13G06G10G19G03G28G11G23
 109732881.595 8  85506170.64246  20881472.945                    20881480.527
 117842231.149 7  91825152.17245  22424631.352                    22424639.965
 109209014.843 8  85097966.96846  20781785.172                    20781793.074
 129386466.607 6 100820680.96143  24621431.203                    24621440.801
 130414175.712 6 101621505.49043  24817001.148                    24817014.320
 111251518.412 7  86689520.68746  21170460.469                    21170466.805
 119051413.426 7  92767369.18944  22654731.297                    22654739.344
 122355531.656 7  95342008.56344  23283482.781                    23283492.148
 121793116.660 7  94903767.09144  23176459.875                    23176469.887
 118300470.502 7  92182217.21144  22511831.930                    22511840.625
 11  7 23 19  5 30.0000000  0 10G07G08G13G06G10G19G03G28G11G23
 109690602.222 8  85473225.68346  20873427.320                    20873435.680
 117769192.971 7  91768239.33645  22410732.906                    22410741.328
 109275525.730 8  85149793.58146  20794441.664                    20794449.793
 129486084.731 5 100898305.42442  24640387.664                    24640397.473
 130471187.635 6 101665930.26043  24827850.781                    24827863.781
 111289946.514 7  86719464.66246  21177773.211                    21177779.383
 119147017.907 6  92841866.16144  22672923.391                    22672932.375
 122304846.951 7  95302514.07444  23273838.250                    23273846.609
 121716523.974 6  94844084.57844  23161883.875                    23161894.484
 118406399.241 7  92264758.93844  22531990.102                    22531998.602
 11  7 23 19  6  0.0000000  0 10G07G08G13G06G10G19G03G28G11G23
 109648529.295 8  85440441.59546  20865421.289                    20865428.891
 117696178.677 7  91711345.10645  22396838.508                    22396847.063
 109342535.865 8  85202009.23346  20807193.258                    20807201.813
 129585861.170 6 100976053.25442  24659374.195                    24659383.793
 130528356.211 6 101710477.09243  24838729.695                    24838742.410
 111328949.079 8  86749856.27446  21185195.125                    21185201.379
 119242923.472 6  92916597.75044  22691173.805                    22691182.727
 122254361.822 7  95263175.03644  23264230.820                    23264240.000
 121640084.570 6  94784521.52444  23147337.781                    23147348.324
 118512560.371 7  92347481.76144  22552191.586                    22552200.523
 11  7 23 19  6 30.0000000  0 10G07G08G13G06G10G19G03G28G11G23
 109606663.481 8  85407818.90246  20857454.281                    20857462.250
 117623188.793 7  91654469.90645  22382948.961                    22382957.813
 109410042.763 8  85254611.96446  20820039.375                    20820047.863
 129685792.897 6 101053922.15142  24678390.805                    24678400.598
 130585678.115 6 101755143.34043  24849637.969                    24849650.934
 111368523.988 8  86780693.85546  21192725.438                    21192732.215
 119339126.743 6  92991561.32044  22709480.094                    22709489.828
 122204075.086 7  95223990.65944  23254661.984                    23254670.910
 121563801.129 6  94725079.98443  23132820.883                    23132832.160
 118618950.616 7  92430383.12244  22572437.672                    22572445.793
 11  7 23 19  7  0.0000000  0 10G07G08G13G06G10G19G03G28G11G23
 109565006.438 8  85375358.87446  20849527.727                    20849534.719
 117550223.895 7  91597614.17244  22369064.227                    22369072.738
 109478043.585 7  85307599.57446  20832979.742                    20832987.813
 129785877.020 5 101131909.65742  24697436.414                    24697446.391
 130643150.143 6 101799926.65542  24860574.273                    24860586.910
 111408669.260 7  86811975.89146  21200365.063                    21200371.434
 119435624.641 6  93066754.48243  22727842.836                    22727852.066
 122153985.960 7  95184960.22944  23245129.711                    23245139.102
 121487676.076 6  94665761.87343  23118335.578                    23118345.695
 118725566.569 7  92513460.33644  22592725.570                    22592734.480
 11  7 23 19  7 30.0000000  0 10G07G08G13G06G10G19G03G28G11G23
 109523561.155 8  85343063.85546  20841640.805                    20841648.305
 117477286.323 7  91540779.73845  22355183.898                    22355193.203
 109546537.239 8  85360971.20946  20846013.656                    20846021.832
 129886111.983 6 101210014.83343  24716510.727                    24716520.254
 130700770.278 6 101844825.34843  24871540.117                    24871552.102
 111449383.961 8  86843701.63146  21208113.313                    21208119.582
 119532414.950 6  93142175.44444  22746262.516                    22746271.418
 122104094.564 7  95146083.87344  23235635.617                    23235645.469
 121411713.757 6  94606570.55043  23103880.328                    23103890.301
 118832406.301 7  92596711.91844  22613056.586                    22613065.914
 11  7 23 19  8  0.0000000  0 10G07G08G13G06G10G19G03G28G11G23
 109482327.725 8  85310933.91346  20833794.172                    20833801.352
 117404376.983 7  91483967.29345  22341309.938                    22341319.023
 109615520.900 8  85414724.67446  20859140.672                    20859148.953
 129986494.471 6 101288234.95442  24735613.008                    24735622.273
 130758534.754 6 101889836.45743  24882532.047                    24882544.285
 111490665.852 8  86875869.32746  21215968.953                    21215975.113
 119629494.104 6  93217821.52444  22764735.766                    22764744.480
 122054399.591 7  95107360.59044  23226178.930                    23226188.387
 121335916.239 6  94547507.64843  23089456.484                    23089466.320
 118939466.327 7  92680135.15244  22633430.352                    22633438.410
 11  7 23 19  8 30.0000000  0 10G07G08G13G06G10G19G03G28G11G23
 109441308.377 7  85278970.79046  20825987.984                    20825995.859
 117331497.455 7  91427178.06345  22327441.914                    22327450.117
 109684992.571 8  85468858.39446  20872360.813                    20872368.941
 130087022.422 6 101366568.35043  24754744.102                    24754751.805
 130816441.111 6 101934958.21943  24893551.125                    24893563.160
 111532513.565 8  86908477.93346  21223932.188                    21223938.258
 119726859.501 6  93293690.60244  22783263.836                    22783273.027
 122004900.948 7  95068790.27644  23216760.359                    23216769.145
 121260286.745 6  94488575.64143  23075064.711                    23075074.523
 119046743.891 7  92763727.90744  22653844.414                    22653853.016
 11  7 23 19  9  0.0000000  0 10G07G08G13G06G10G19G03G28G11G23
 109400505.194 8  85247176.10246  20818223.828                    20818231.340
 117258648.950 7  91370413.04245  22313578.805                    22313587.965
 109754950.122 8  85523370.72346  20885673.266                    20885681.355
 130187693.212 6 101445013.09143  24773899.148                    24773908.945
 130874486.800 6 101980188.47243  24904596.461                    24904609.871
 111574925.329 7  86941526.07146  21232002.563                    21232008.938
 119824508.247 7  93369780.48644  22801845.555                    22801855.297
 121955598.163 7  95030372.57144  23207377.594                    23207386.707
 121184828.513 7  94429777.12544  23060705.648                    23060715.457
 119154235.981 7  92847487.80844  22674299.445                    22674308.586
 11  7 23 19  9 30.0000000  0  9G07G08G13G06G19G03G28G11G23
 109359920.301 8  85215551.51446  20810501.219                    20810508.555
 117185833.412 7  91313673.68245  22299722.719                    22299731.465
 109825391.637 7  85578260.17946  20899078.336                    20899086.500
 130288504.906 6 101523567.61243  24793083.344                    24793093.035
 111617899.932 7  86975012.77646  21240180.688                    21240186.926
 119922437.392 7  93446088.89044  22820481.070                    22820490.164
 121906490.761 7  94992107.11744  23198032.891                    23198041.770
 121109544.844 7  94371114.60844  23046379.484                    23046389.289
 119261940.246 7  92931413.06444  22694794.625                    22694803.547
 11  7 23 19 10  0.0000000  0  9G07G08G13G06G19G03G28G11G23
 109319555.592 8  85184098.50246  20802819.852                    20802827.332
 117113052.055 7  91256960.95845  22285873.344                    22285881.500
 109896315.053 8  85633525.12846  20912574.461                    20912582.391
 130389455.283 6 101602230.24143  24812293.539                    24812302.848
 111661435.679 7  87008936.73746  21248465.039                    21248471.594
 120020644.438 6  93522613.82044  22839169.289                    22839178.898
 121857578.329 6  94953993.59844  23188725.203                    23188734.164
 121034438.965 7  94312590.62443  23032086.961                    23032096.820
 119369853.684 7  93015501.30144  22715330.430                    22715338.715
 11  7 23 19 10 30.0000000  0  9G07G08G13G06G19G03G28G11G23
 109279411.406 8  85152817.32046  20795180.656                    20795187.949
 117040305.713 7  91200275.54145  22272029.547                    22272037.934
 109967716.990 8  85689162.95946  20926161.664                    20926169.563
 130490540.606 6 101680997.94143  24831529.367                    24831539.145
 111705529.736 8  87043295.74246  21256855.813                    21256862.422
 120119125.719 7  93599352.43044  22857909.586                    22857919.238
 121808859.472 7  94916030.90044  23179453.898                    23179463.164
 120959512.726 7  94254206.60943  23017828.484                    23017838.594
 119477972.602 7  93099749.67744  22735905.117                    22735913.188
 11  7 23 19 11  0.0000000  0  9G07G08G13G06G19G03G28G11G23
 109239490.473 8  85121710.10546  20787583.641                    20787591.352
 116967595.760 7  91143618.47445  22258193.336                    22258202.113
 110039595.939 8  85745172.49546  20939839.648                    20939847.969
 130591759.287 6 101759869.63843  24850790.805                    24850800.836
 111750180.824 7  87078088.79946  21265352.219                    21265359.570
 120217878.892 7  93676302.92644  22876701.961                    22876711.148
 121760334.012 7  94878218.92344  23170219.805                    23170229.523
 120884770.210 7  94195965.74744  23003606.180                    23003615.410
 119586294.659 7  93184156.33644  22756517.625                    22756526.324
 11  7 23 19 11 30.0000000  0  9G07G08G13G06G19G03G28G11G23
 109199794.151 8  85090777.90646  20780029.539                    20780037.355
 116894923.647 7  91086990.87645  22244364.328                    22244372.684
 110111949.174 8  85801551.57546  20953608.297                    20953616.207
 130693108.345 6 101838842.87943  24870076.578                    24870087.273
 111795387.025 7  87113314.40346  21273955.266                    21273961.789
 120316900.774 7  93753462.80344  22895544.617                    22895554.211
 121712001.174 7  94840557.04044  23161022.750                    23161031.523
 120810213.825 7  94137869.93244  22989418.852                    22989428.234
 119694816.525 7  93268718.68244  22777169.578                    22777178.035
 11  7 23 19 12  0.0000000  0  8G07G08G13G19G03G28G11G23
 109160324.707 8  85060022.49246  20772519.063                    20772526.699
 116822291.208 7  91030394.19445  22230543.008                    22230551.523
 110184774.851 8  85858298.81546  20967466.250                    20967474.641
 111841147.160 7  87148971.65946  21282662.703                    21282669.457
 120416188.698 6  93830829.98643  22914438.969                    22914448.371
 121663860.995 7  94803045.23544  23151861.430                    23151869.969
 120735847.200 7  94079921.99144  22975266.883                    22975276.477
 119803535.909 7  93353434.93344  22797857.648                    22797866.148
 11  7 23 19 12 30.0000000  0  8G07G08G13G19G03G28G11G23
 109121083.871 8  85029445.22846  20765051.570                    20765059.445
 116749699.680 7  90973829.39945  22216729.250                    22216737.688
 110258070.519 8  85915412.27846  20981414.016                    20981422.715
 111887458.937 7  87185058.75246  21291475.984                    21291482.145
 120515739.948 6  93908402.34943  22933382.250                    22933392.391
 121615912.510 7  94765682.83944  23142737.461                    23142745.848
 120661673.002 6  94022124.00844  22961151.711                    22961162.035
 119912449.829 7  93438302.78944  22818583.320                    22818592.563
 11  7 23 19 13  0.0000000  0  8G07G08G13G19G03G28G11G23
 109082072.907 8  84999047.07746  20757628.359                    20757635.805
 116677150.087 7  90917297.29145  22202923.016                    22202932.117
 110331833.442 8  85972889.84546  20995451.109                    20995459.117
 111934320.205 7  87221574.02746  21300393.461                    21300399.723
 120615551.216 7  93986177.33943  22952376.156                    22952385.496
 121568154.501 7  94728468.86344  23133649.180                    23133658.438
 120587694.170 6  93964478.26244  22947074.273                    22947083.582
 120021555.000 7  93523319.61244  22839345.313                    22839354.953
 11  7 23 19 13 30.0000000  0  8G07G08G13G19G03G28G11G23
 109043293.999 8  84968829.75246  20750248.859                    20750256.316
 116604644.545 7  90860799.49445  22189125.969                    22189134.430
 110406062.145 8  86030730.35246  21009576.000                    21009584.227
 111981729.652 7  87258516.44746  21309414.930                    21309421.160
 120715620.148 6  94064153.08843  22971418.570                    22971427.523
 121520587.368 7  94691403.63044  23124597.203                    23124606.750
 120513914.180 7  93906987.45244  22933034.102                    22933044.176
 120130849.012 7  93608483.60844  22860143.891                    22860153.047
 11  7 23 19 14  0.0000000  0  8G07G08G13G19G03G28G11G23
 109004748.380 8  84938794.21346  20742913.867                    20742921.594
 116532183.835 7  90804336.63745  22175337.180                    22175345.879
 110480752.988 8  86088930.96146  21023789.430                    21023797.672
 112029684.318 7  87295883.72646  21318540.023                    21318546.746
 120815942.810 7  94142326.55943  22990509.828                    22990518.785
 121473209.560 7  94654485.92844  23115582.320                    23115590.918
 120440335.505 7  93849653.49144  22919032.250                    22919042.645
 120240328.053 7  93693791.75944  22880977.602                    22880986.629
 11  7 23 19 14 30.0000000  0  8G07G08G13G19G03G28G11G23
 108966438.446 8  84908942.32446  20735623.523                    20735631.145
 116459769.968 7  90747910.28145  22161557.297                    22161565.887
 110555904.240 8  86147490.34346  21038090.289                    21038098.867
 112078183.165 7  87333675.02946  21327769.305                    21327775.477
 120916517.159 6  94220696.14843  23009648.156                    23009657.566
 121426020.893 7  94617715.58444  23106602.414                    23106610.797
 120366961.757 6  93792479.19644  22905069.438                    22905079.699
 120349989.859 7  93779242.33344  22901845.461                    22901854.504
 11  7 23 19 15  0.0000000  0  8G07G08G13G19G03G28G11G23
 108928366.226 8  84879275.67446  20728378.203                    20728385.965
 116387404.559 7  90691521.67245  22147786.266                    22147795.258
 110631513.931 8  86206406.92646  21052478.125                    21052487.121
 112127224.701 7  87371889.21546  21337101.469                    21337108.262
 121017340.508 6  94299259.79343  23028834.359                    23028843.348
 121379021.018 7  94581092.36544  23097658.281                    23097667.184
 120293796.001 7  93735466.99744  22891146.672                    22891157.227
 120459831.800 7  93864833.28444  22922747.758                    22922756.746
 11  7 23 19 15 30.0000000  0  8G07G08G13G19G03G28G11G23
 108890532.668 8  84849794.99046  20721179.508                    20721186.727
 116315088.629 7  90635171.65045  22134025.141                    22134033.723
 110707578.729 8  86265678.15446  21066953.484                    21066961.555
 112176805.911 7  87410523.92046  21346537.188                    21346543.125
 121118409.224 6  94378014.59343  23048067.391                    23048076.129
 121332208.405 7  94544615.06144  23088750.445                    23088759.121
 120220840.588 7  93678618.71344  22877263.961                    22877273.898
 120569849.988 7  93950561.56944  22943683.820                    22943692.473
 11  7 23 19 16  0.0000000  0  8G07G08G13G19G03G28G11G23
 108852940.208 8  84820502.17946  20714025.391                    20714033.164
 116242823.908 7  90578861.48945  22120273.359                    22120282.375
 110784097.017 8  86325302.73946  21081513.914                    21081522.324
 112226925.295 7  87449577.98946  21356073.969                    21356080.410
 121219721.350 6  94456959.06643  23067346.492                    23067355.453
 121285583.223 7  94508283.81744  23079877.383                    23079886.684
 120148099.400 6  93621937.35344  22863420.664                    22863431.344
 120680042.301 7  94036425.52044  22964652.859                    22964661.941
 11  7 23 19 16 30.0000000  0  8G07G08G13G19G03G28G11G23
 108815590.417 8  84791398.46546  20706918.172                    20706925.871
 116170612.368 7  90522592.79645  22106532.148                    22106540.805
 110861066.187 8  86385278.65745  21096160.766                    21096169.531
 112277581.084 7  87489050.02546  21365713.656                    21365720.137
 121321273.405 7  94536090.52544  23086671.383                    23086680.445
 121239144.881 7  94472098.12744  23071040.297                    23071049.629
 120075575.357 7  93565425.18044  22849620.516                    22849630.852
 120790405.668 7  94122422.76744  22985654.109                    22985663.371
 11  7 23 19 17  0.0000000  0  8G07G08G13G19G03G28G11G23
 108778484.792 8  84762485.00546  20699857.156                    20699864.891
 116098454.838 7  90466366.16045  22092800.891                    22092809.441
 110938483.380 8  86445603.69846  21110893.023                    21110900.992
 112328770.662 7  87528938.00346  21375454.727                    21375461.367
 121423062.482 7  94615406.64244  23106040.836                    23106050.703
 121192892.340 7  94436057.24544  23062238.703                    23062248.180
 120003270.909 7  93509084.13144  22835861.625                    22835871.277
 120900937.294 6  94208551.12444  23006687.383                    23006696.797
 11  7 23 19 17 30.0000000  0  8G07G08G13G19G03G28G11G23
 108741625.349 8  84733763.37446  20692842.805                    20692850.758
 116026353.216 7  90410183.10945  22079080.930                    22079089.184
 111016346.356 8  86506276.09145  21125709.828                    21125718.582
 112380492.204 7  87569240.49946  21385296.930                    21385303.418
 121525085.619 7  94694905.15544  23125455.055                    23125464.703
 121146824.826 7  94400160.52844  23053472.570                    23053481.664
 119931189.321 7  93452916.74244  22822144.297                    22822154.828
 121011633.982 6  94294808.13643  23027752.313                    23027761.379
 11  7 23 19 18  0.0000000  0  8G07G08G13G19G03G28G11G23
 108705014.453 8  84705235.40646  20685876.031                    20685883.824
 115954309.238 7  90354044.96745  22065370.891                    22065379.395
 111094653.065 8  86567294.26446  21140611.227                    21140619.539
 112432744.168 7  87609956.31046  21395239.953                    21395246.457
 121627340.696 6  94774584.39444  23144914.961                    23144923.359
 121100942.393 7  94364408.04144  23044740.922                    23044750.469
 119859334.109 7  93396925.74344  22808471.297                    22808480.664
 121122492.994 6  94381191.60543  23048848.359                    23048857.598
 11  7 23 19 18 30.0000000  0  8G07G08G13G19G03G28G11G23
 108668653.665 8  84676902.33946  20678957.211                    20678964.574
 115882324.378 7  90297952.90545  22051672.789                    22051681.375
 111173401.010 8  86628656.24845  21155596.219                    21155604.398
 112485524.187 7  87651083.58846  21405284.000                    21405290.078
 121729824.705 7  94854442.04543  23164416.086                    23164425.516
 121055243.807 7  94328798.79444  23036044.180                    23036053.988
 119787708.180 7  93341113.42844  22794840.719                    22794850.797
 121233511.411 6  94467699.25544  23069975.281                    23069983.750
 11  7 23 19 19  0.0000000  0  8G07G08G13G19G03G28G11G23
 108632544.145 8  84648765.06546  20672085.266                    20672093.301
 115810399.721 7  90241907.74145  22037985.977                    22037994.699
 111252586.571 8  86690359.22745  21170664.570                    21170673.816
 112538829.608 7  87692620.27445  21415427.492                    21415434.285
 121832534.226 6  94934475.35043  23183960.586                    23183970.656
 121009728.188 7  94293332.13444  23027383.969                    23027392.621
 119716314.467 7  93285482.03144  22781255.008                    22781264.699
 121344686.156 6  94554328.74744  23091130.375                    23091139.977
 11  7 23 19 19 30.0000000  0  8G07G08G13G19G03G28G11G23
 108596688.117 8  84620825.31346  20665262.219                    20665270.445
 115738537.164 7  90185910.96945  22024311.156                    22024319.434
 111332207.660 8  86752401.58745  21185816.156                    21185824.813
 112592658.585 8  87734564.93146  21425671.078                    21425677.277
 121935466.450 6  95014682.19743  23203548.648                    23203557.949
 120964394.952 7  94258007.59644  23018756.984                    23018766.141
 119645155.630 7  93230033.67844  22767713.711                    22767723.672
 121456014.717 7  94641078.06244  23112316.398                    23112325.852
 11  7 23 19 20  0.0000000  0  8G07G08G13G19G03G28G11G23
 108561088.091 8  84593085.04646  20658487.805                    20658495.992
 115666738.938 7  90129964.33045  22010648.461                    22010656.285
 111412262.399 8  86814781.85445  21201050.344                    21201058.262
 112647009.856 8  87776916.55546  21436013.469                    21436020.352
 122038619.179 6  95095060.93443  23223178.398                    23223187.082
 120919244.415 7  94222825.41844  23010165.297                    23010174.172
 119574235.477 7  93174771.31044  22754218.125                    22754228.148
 121567494.149 7  94727944.96444  23133530.242                    23133539.566
 11  7 23 19 20 30.0000000  0  8G07G08G13G19G03G28G11G23
 108525744.895 8  84565544.89946  20651761.750                    20651770.203
 115595005.892 7  90074068.46445  21996997.086                    21997006.484
 111492747.521 8  86877497.48545  21216365.414                    21216374.031
 112701880.497 7  87819672.88546  21446455.047                    21446461.781
 122141988.925 6  95175608.72843  23242847.844                    23242857.953
 120874274.847 7  94187784.27044  23001607.234                    23001616.875
 119503556.379 7  93119696.76644  22740768.445                    22740777.719
 121679120.915 7  94814926.64444  23154772.273                    23154781.570
 11  7 23 19 21  0.0000000  0  8G07G08G13G19G03G28G11G23
 108490660.453 8  84538206.38646  20645085.680                    20645093.402
 115523339.526 7  90018224.55145  21983360.406                    21983368.285
 111573660.448 8  86940546.46545  21231763.625                    21231771.363
 112757268.319 8  87862832.22146  21456995.484                    21457002.098
 122245572.934 6  95256323.53543  23262560.211                    23262569.148
 120829485.541 7  94152883.56444  22993084.406                    22993093.434
 119433121.486 7  93064812.51844  22727364.930                    22727374.316
 121790892.450 7  94902021.14344  23176041.227                    23176050.863
 11  7 23 19 21 30.0000000  0  8G07G08G13G19G03G28G11G23
 108455837.294 8  84511071.45446  20638459.031                    20638466.738
 115451742.368 7  89962434.56945  21969736.039                    21969744.020
 111654999.350 8  87003927.37245  21247241.516                    21247249.941
 112813171.621 8  87906393.22246  21467633.227                    21467639.734
 122349369.162 6  95337203.67643  23282311.828                    23282321.109
 120784876.182 7  94118123.09044  22984595.547                    22984604.332
 119362934.217 7  93010121.21544  22714009.055                    22714018.477
 121902806.356 6  94989226.57544  23197338.227                    23197348.398
 11  7 23 19 22  0.0000000  0  8G07G08G13G19G03G28G11G23
 108421276.981 8  84484141.34646  20631882.609                    20631890.297
 115380215.515 7  89906699.40545  21956124.547                    21956132.867
 111736761.248 7  87067637.89845  21262800.313                    21262808.629
 112869587.873 7  87950353.92546  21478368.789                    21478375.254
 122453374.212 6  95418246.56243  23302102.508                    23302112.574
 120740446.353 7  94083502.51244  22976140.750                    22976149.500
 119292997.720 7  92955625.30244  22700700.617                    22700709.605
 122014859.595 6  95076540.55444  23218661.383                    23218671.297
 11  7 23 19 22 30.0000000  0  8G07G08G13G19G03G28G11G23
 108386980.856 7  84457417.09346  20625356.531                    20625364.148
 115308759.975 7  89851019.78545  21942526.836                    21942535.773
 111818942.977 7  87131675.54145  21278439.000                    21278447.621
 112926514.657 7  87994712.44145  21489201.219                    21489207.820
 122557584.866 7  95499449.64843  23321933.719                    23321942.965
 120696194.678 7  94049020.74344  22967719.992                    22967728.633
 119223314.318 7  92901326.62044  22687439.945                    22687449.527
 122127048.532 6  95163960.28543  23240010.625                    23240020.359
 11  7 23 19 23  0.0000000  0  8G07G08G13G19G03G28G11G23
 108352951.275 7  84430900.53446  20618880.680                    20618887.914
 115237378.258 7  89795397.70045  21928943.797                    21928952.270
 111901542.640 8  87196038.86345  21294157.227                    21294166.004
 112983950.299 8  88039467.48245  21500131.492                    21500137.605
 122661999.285 7  95580811.50243  23341803.492                    23341812.539
 120652121.034 7  94014677.70744  22959333.195                    22959342.004
 119153887.379 7  92847227.80144  22674228.266                    22674237.551
 122239370.859 6  95251483.91243  23261384.477                    23261394.648
 11  7 23 19 23 30.0000000  0  8G07G08G13G19G03G28G11G23
 108319189.499 8  84404592.65446  20612456.031                    20612463.504
 115166071.898 7  89739834.33345  21915374.445                    21915383.039
 111984557.105 8  87260725.40945  21309954.297                    21309963.180
 113041891.904 7  88084616.77646  21511157.766                    21511163.734
 122766613.813 7  95662329.27243  23361711.289                    23361720.281
 120608224.137 7  93980472.39844  22950979.406                    22950988.359
 119084719.787 7  92793331.05344  22661065.852                    22661075.117
 122351823.053 6  95339108.78143  23282783.891                    23282793.227
 11  7 23 19 24  0.0000000  0  8G07G08G13G19G03G28G11G23
 108285697.374 7  84378494.92346  20606082.961                    20606090.719
 115094842.644 7  89684331.02745  21901819.953                    21901827.949
 112067983.829 7  87325733.18545  21325830.016                    21325838.422
 113100337.433 7  88130158.74246  21522278.797                    21522285.754
 122871425.628 6  95744000.78643  23381655.578                    23381664.926
 120564503.206 7  93946404.17444  22942659.883                    22942668.363
 119015814.500 7  92739638.72144  22647953.977                    22647962.977
 122464402.700 7  95426832.96943  23304207.523                    23304217.102
 11  7 23 19 24 30.0000000  0  9G24G07G08G13G19G03G28G11G23
 127063018.49815                  24179256.602
 108252477.281 7  84352609.13846  20599761.094                    20599768.699
 115023692.240 7  89628889.18245  21888280.227                    21888288.609
 112151820.273 7  87391060.23245  21341783.578                    21341792.813
 113159284.919 8  88176091.84145  21533496.234                    21533502.574
 122976432.572 6  95825824.33143  23401637.984                    23401647.395
 120520958.099 7  93912472.98944  22934373.852                    22934382.027
 118947174.889 7  92686153.39444  22634892.242                    22634901.246
 122577106.895 7  95514654.19544  23325654.672                    23325664.355
 11  7 23 19 25  0.0000000  0  9G24G07G08G13G19G03G28G11G23
 126986958.43915                  24164781.781
 108219530.733 7  84326936.50746  20593491.766                    20593499.133
 114952622.101 7  89573509.88145  21874756.203                    21874764.375
 112236063.633 8  87456704.33745  21357814.875                    21357823.715
 113218732.006 7  88222414.24545  21544809.234                    21544815.082
 123081631.496 6  95907797.48743  23421656.344                    23421665.875
 120477587.810 7  93878678.01044  22926120.773                    22926128.871
 118878803.665 7  92632877.20144  22621881.367                    22621891.215
 122689932.579 7  95602570.09043  23347124.742                    23347134.648
 11  7 23 19 25 30.0000000  0  8G07G08G13G19G03G28G11G23
 108186859.849 7  84301478.68346  20587274.773                    20587282.301
 114881634.288 7  89518194.73645  21861247.086                    21861255.816
 112320711.508 7  87522663.66345  21373922.641                    21373931.504
 113278676.348 7  88269124.11345  21556216.141                    21556222.379
 123187019.588 6  95989918.00143  23441711.320                    23441720.715
 120434391.671 7  93845018.73044  22917900.297                    22917908.754
 118810704.067 6  92579812.67744  22608922.438                    22608932.238
 122802877.113 7  95690578.58243  23368618.133                    23368627.223
 11  7 23 19 26  0.0000000  0  8G07G08G13G19G03G28G11G23
 108154466.524 7  84276237.13746  20581110.430                    20581117.828
 114810730.556 7  89462945.11145  21847754.820                    21847763.586
 112405761.452 7  87588936.27745  21390107.336                    21390115.902
 113339115.830 7  88316219.81345  21567717.109                    21567722.949
 123292594.282 6  96072183.92943  23461800.555                    23461810.879
 120391369.321 7  93811494.86844  22909713.281                    22909722.219
 118742879.506 7  92526962.46444  22596015.133                    22596025.051
 122915937.948 7  95778677.70244  23390132.555                    23390143.027
 11  7 23 19 26 30.0000000  0  8G07G08G13G19G03G28G11G23
 108122352.580 7  84251213.29046  20574999.086                    20575006.453
 114739912.525 7  89407762.27245  21834278.648                    21834287.457
 112491210.168 7  87655519.62845  21406367.445                    21406376.023
 113400047.774 7  88363699.24345  21579312.094                    21579318.441
 123398352.657 6  96154592.95243  23481927.086                    23481936.559
 120348519.781 7  93778105.66444  22901559.344                    22901567.629
 118675332.518 7  92474328.52144  22583161.875                    22583171.711
 123029111.579 6  95866864.68044  23411668.367                    23411678.867
 11  7 23 19 27  0.0000000  0  8G07G08G13G19G03G28G11G23
 108090519.223 7  84226408.08646  20568941.414                    20568949.117
 114669181.893 7  89352647.50545  21820819.148                    21820827.258
 112577054.917 7  87722411.57045  21422702.922                    21422712.371
 113461469.713 7  88411560.49345  21591000.641                    21591006.480
 123504291.788 6  96237142.90143  23502086.758                    23502095.734
 120305841.886 7  93744850.21044  22893438.250                    22893446.293
 118608065.754 7  92421912.94244  22570361.109                    22570371.152
 123142395.301 6  95955137.44643  23433225.945                    23433236.254
 11  7 23 19 27 30.0000000  0  8G07G08G13G19G03G28G11G23
 108058968.672 8  84201823.24246  20562937.414                    20562944.891
 114598540.349 7  89297602.18245  21807376.148                    21807384.934
 112663293.192 7  87789610.17145  21439113.484                    21439122.770
 113523379.524 7  88459801.88345  21602781.477                    21602787.305
 123610409.035 6  96319831.65143  23522279.484                    23522289.270
 120263335.211 7  93711728.15944  22885348.984                    22885358.047
 118541082.682 7  92369718.41945  22557615.141                    22557624.453
 123255786.042 7  96043493.62044  23454803.484                    23454814.074
 11  7 23 19 28  0.0000000  0  8G07G08G13G19G03G28G11G23
 108027702.930 8  84177460.32946  20556988.141                    20556995.617
 114527989.720 7  89242627.68845  21793951.516                    21793959.563
 112749922.291 7  87857113.30245  21455598.719                    21455607.672
 113585774.640 7  88508421.44845  21614654.773                    21614660.758
 123716701.562 6  96402656.93043  23542507.391                    23542516.750
 120220998.893 7  93678738.88944  22877293.164                    22877301.672
 118474386.273 7  92317747.28444  22544923.008                    22544932.781
 123369281.135 6  96131931.08243  23476401.359                    23476412.082
 11  7 23 19 28 30.0000000  0  8G07G08G13G19G03G28G11G23
 107996724.117 8  84153321.00746  20551092.883                    20551100.789
 114457532.141 7  89187725.72345  21780543.125                    21780552.160
 112836939.534 7  87924918.88645  21472157.758                    21472167.004
 113648653.468 7  88557417.93845  21626620.258                    21626626.395
 123823167.314 6  96485617.24443  23562766.914                    23562775.844
 120178832.500 7  93645882.00044  22869268.828                    22869277.406
 118407979.561 7  92266001.88644  22532285.813                    22532295.789
 123482877.765 7  96220447.66444  23498018.969                    23498029.031
 11  7 23 19 29  0.0000000  0  8G07G08G13G19G03G28G11G23
 107966033.347 8  84129406.13946  20545252.758                    20545260.254
 114387169.063 7  89132897.36145  21767154.117                    21767162.566
 112924341.754 7  87993024.45245  21488789.609                    21488798.441
 113712013.015 7  88606789.00245  21638677.320                    21638683.406
 123929802.659 6  96568709.70643  23583058.563                    23583068.246
 120136834.918 7  93613156.65744  22861277.398                    22861285.781
 118341864.992 7  92214484.12044  22519704.938                    22519714.063
 123596572.809 7  96309040.92543  23519654.219                    23519664.453
 11  7 23 19 29 30.0000000  0  9G24G07G08G13G19G03G28G11G23
 126301586.30015                  24034418.625
 107935632.413 8  84105717.11446  20539467.570                    20539475.387
 114316902.198 7  89078143.98745  21753782.664                    21753790.340
 113012126.305 7  88061427.95145  21505494.930                    21505503.555
 113775850.429 7  88656532.44245  21650824.992                    21650831.434
 124036604.832 6  96651932.18043  23603382.094                    23603391.867
 120095005.084 7  93580562.03744  22853316.953                    22853325.590
 118276045.628 7  92163196.39044  22507179.828                    22507189.211
 123710363.308 7  96397708.58143  23541307.656                    23541318.301
 11  7 23 19 30  0.0000000  0  9G24G07G08G13G19G03G28G11G23
 126225464.207 5                  24019934.289
 107905523.099 7  84082255.31646  20533738.133                    20533745.668
 114246732.714 8  89023466.49345  21740429.758                    21740437.539
 113100289.897 7  88130126.78545  21522272.133                    21522280.270
 113840162.992 7  88706646.11345  21663063.586                    21663069.414
 124143570.925 6  96735282.38043  23623737.430                    23623746.535
 120053342.155 7  93548097.46244  22845388.961                    22845397.156
 118210524.331 7  92112140.91644  22494711.336                    22494720.992
 123824246.091 6  96486448.12543  23562979.117                    23562990.414
 11  7 23 19 30 30.0000000  0  9G24G07G08G13G19G03G28G11G23
 126149352.175 5                  24005448.461
 107875707.835 8  84059022.64946  20528064.320                    20528071.512
 114176663.519 7  88968867.12945  21727096.258                    21727104.227
 113188830.559 7  88199119.45745  21539121.039                    21539129.223
 113904949.296 7  88757128.94745  21675391.859                    21675398.180
 124250699.107 6  96818758.85943  23644122.836                    23644132.609
 120011846.192 7  93515763.00144  22837492.125                    22837500.961
 118145304.604 7  92061320.42344  22482300.133                    22482309.559
 123938218.946 7  96575257.85043  23584668.031                    23584678.027
 11  7 23 19 31  0.0000000  0  9G24G07G08G13G19G03G28G11G23
 126073252.646 5                  23990967.859
 107846188.328 8  84036020.43946  20522446.984                    20522454.465
 114106696.108 8  88914347.10445  21713781.914                    21713790.277
 113277745.267 7  88268403.59645  21556040.641                    21556049.422
 113970206.901 7  88807979.02145  21687810.016                    21687816.105
 124357986.446 6  96902359.35843  23664539.453                    23664548.785
 119970516.111 7  93483557.79044  22829627.445                    22829635.410
 118080389.160 7  92010737.06044  22469947.125                    22469956.961
 124052278.772 7  96664135.36643  23606373.008                    23606382.863
 11  7 23 19 31 30.0000000  0  9G24G07G08G13G19G03G28G11G23
 125997169.031 5                  23976489.273
 107816966.509 8  84013250.20346  20516886.555                    20516894.340
 114036832.556 7  88859907.98345  21700487.133                    21700494.973
 113367031.622 7  88337977.32145  21573031.398                    21573040.270
 114035932.902 8  88859194.08045  21700317.125                    21700323.809
 124465430.391 6  96986081.85843  23684985.133                    23684994.988
 119929351.278 7  93451481.34544  22821793.961                    22821802.516
 118015781.214 7  91960393.27744  22457653.125                    22457661.902
 124166423.079 7  96753078.69643  23628094.188                    23628104.918
 11  7 23 19 32  0.0000000  0  9G24G07G08G13G19G03G28G11G23
 125921104.354 5                  23962014.438
 107788044.061 7  83990713.24746  20511382.180                    20511389.883
 113967074.664 8  88805551.22045  21687212.328                    21687221.004
 113456686.367 7  88407838.10345  21590092.094                    21590101.359
 114102125.173 8  88910772.46746  21712912.938                    21712919.352
 124573027.601 6  97069923.82143  23705460.234                    23705469.816
 119888351.097 7  93419533.20244  22813991.031                    22813999.941
 117951483.642 7  91910291.35444  22445416.969                    22445426.547
 124280648.768 7  96842085.45443  23649830.602                    23649841.891
 11  7 23 19 32 30.0000000  0  9G24G07G08G13G19G03G28G11G23
 125845061.422 6                  23947544.195
 107759422.904 8  83968411.04446  20505935.961                    20505943.691
 113897424.549 7  88751278.41845  21673958.625                    21673966.430
 113546706.686 7  88477983.74045  21607222.656                    21607231.813
 114168781.081 7  88962712.13145  21725596.945                    21725603.730
 124680775.770 6  97153883.36843  23725964.742                    23725974.098
 119847514.490 7  93387712.51944  22806220.930                    22806229.699
 117887499.433 7  91860433.60344  22433241.578                    22433250.672
 124394953.001 7  96931153.39343  23671582.305                    23671592.672
 11  7 23 19 33  0.0000000  0  9G24G07G08G13G19G03G28G11G23
 125769043.245 5                  23933077.063
 107731104.905 8  83946345.09146  20500546.813                    20500554.945
 113827883.771 7  88697090.83345  21660725.469                    21660733.727
 113637089.937 7  88548412.17245  21624421.906                    21624430.680
 114235898.102 8  89015011.10845  21738369.133                    21738375.711
 124788672.107 6  97237958.42643  23746496.906                    23746505.715
 119806840.775 7  93356018.75044  22798480.461                    22798489.008
 117823831.527 7  91810822.31444  22421125.531                    22421134.469
 124509333.052 6  97020280.44743  23693348.406                    23693358.828
 11  7 23 19 33 30.0000000  0  9G24G07G08G13G19G03G28G11G23
 125693052.675 6                  23918617.750
 107703091.868 8  83924516.75946  20495216.328                    20495223.836
 113758454.468 7  88642990.10145  21647513.156                    21647521.582
 113727833.164 7  88619121.11945  21641689.789                    21641699.008
 114303473.427 7  89067667.18245  21751228.000                    21751234.746
 124896714.299 6  97322147.08843  23767055.820                    23767065.422
 119766329.200 7  93324451.34744  22790771.492                    22790780.223
 117760482.623 7  91761459.61744  22409070.469                    22409079.832
 124623785.771 6  97109464.12143  23715128.281                    23715139.410
 11  7 23 19 34  0.0000000  0  9G24G07G08G13G19G03G28G11G23
 125617092.694 6                  23904163.836
 107675385.694 8  83902927.53746  20489944.156                    20489951.910
 113689138.378 8  88588977.60445  21634322.883                    21634331.047
 113818933.577 7  88690108.38045  21659025.586                    21659034.633
 114371505.309 7  89120679.02945  21764174.461                    21764180.641
 125004899.383 6  97406447.09843  23787642.828                    23787652.344
 119725978.792 7  93293009.51244  22783093.297                    22783101.543
 117697456.040 7  91712348.08144  22397076.617                    22397086.160
 124738308.304 6  97198702.14243  23736920.453                    23736932.211
 11  7 23 19 34 30.0000000  0  9G24G07G08G13G19G03G28G11G23
 125541165.845 6  97824436.93252  23889714.242                    23889727.734
 107647987.680 8  83881578.42846  20484730.383                    20484738.371
 113619936.988 8  88535054.46845  21621154.023                    21621162.793
 113910387.782 7  88761371.33345  21676429.086                    21676437.992
 114439990.561 7  89174044.15745  21777206.773                    21777213.246
 125113224.245 6  97490856.06243  23808256.297                    23808266.102
 119685788.456 7  93261692.41044  22775444.367                    22775453.930
 117634753.934 7  91663489.38044  22385145.070                    22385154.258
 124852897.669 6  97287992.24843  23758727.547                    23758738.250
 11  7 23 19 35  0.0000000  0  9G24G07G08G13G19G03G28G11G23
 125465275.942 6  97765302.10342  23875273.164                    23875286.473
 107620900.135 8  83860471.24946  20479575.930                    20479583.695
 113550852.718 8  88481222.62245  21608007.992                    21608016.285
 114002193.762 7  88832908.39245  21693899.156                    21693908.344
 114508927.062 7  89227760.90945  21790324.852                    21790331.598
 125221687.141 6  97575372.57143  23828895.969                    23828906.359
 119645758.058 7  93230499.94744  22767827.867                    22767836.363
 117572379.912 7  91614886.32544  22373275.438                    22373284.922
 124967551.634 6  97377332.68743  23780545.414                    23780557.047
 11  7 23 19 35 30.0000000  0  9G24G07G08G13G19G03G28G11G23
 125389425.567 6  97706198.11442  23860838.352                    23860853.000
 107594124.841 8  83839607.39846  20474480.820                    20474487.945
 113481887.077 8  88427483.19445  21594884.141                    21594892.234
 114094348.028 7  88904716.83245  21711435.258                    21711444.508
 114578311.811 8  89281826.94345  21803528.164                    21803534.563
 125330284.622 6  97659993.92743  23849561.625                    23849571.398
 119605886.668 7  93199431.39644  22760240.672                    22760248.559
 117510336.516 7  91566540.88944  22361469.305                    22361478.391
 125082266.878 6  97466720.85943  23802374.570                    23802386.660
 11  7 23 19 36  0.0000000  0  9G24G07G08G13G19G03G28G11G23
 125313617.546 6  97647127.11543  23846412.898                    23846426.863
 107567663.293 8  83818988.01446  20469445.313                    20469452.570
 113413042.280 8  88373837.93145  21581783.117                    21581791.746
 114186847.614 7  88976794.36145  21729037.242                    21729046.484
 114648142.306 7  89336240.30045  21816816.188                    21816823.328
 125439014.331 7  97744718.32743  23870252.461                    23870261.535
 119566173.187 7  93168485.87245  22752683.078                    22752691.426
 117448626.576 7  91518455.31844  22349725.938                    22349735.133
 125197040.386 6  97556154.44843  23824215.570                    23824227.551
 11  7 23 19 36 30.0000000  0  9G24G07G08G13G19G03G28G11G23
 125237855.010 6  97588091.64143  23831994.820                    23832009.547
 107541517.700 8  83798614.83546  20464469.992                    20464477.441
 113344320.660 7  88320288.64145  21568705.742                    21568714.043
 114279690.653 7  89049139.51645  21746705.281                    21746714.375
 114718416.183 7  89390999.15545  21830189.156                    21830195.535
 125547873.778 6  97829543.83343  23890967.383                    23890976.539
 119526617.071 7  93137662.97244  22745155.500                    22745164.211
 117387253.399 7  91470632.13844  22338047.766                    22338056.430
 125311869.901 6  97645631.63243  23846067.352                    23846079.188
 11  7 23 19 37  0.0000000  0  9G24G07G08G13G19G03G28G11G23
 125162140.900 6  97529093.85342  23817587.000                    23817601.461
 107515689.688 8  83778489.12646  20459555.469                    20459562.965
 113275723.710 8  88266836.50245  21555652.266                    21555661.074
 114372872.890 7  89121748.97845  21764437.375                    21764446.215
 114789130.750 7  89446101.39845  21843646.016                    21843652.273
 125656859.952 6  97914468.08643  23911706.703                    23911716.461
 119487217.351 7  93106961.92544  22737658.023                    22737666.738
 117326219.576 7  91423073.39944  22326433.078                    22326442.125
 125426751.746 6  97735149.61843  23867929.508                    23867941.297
 11  7 23 19 37 30.0000000  0  9G24G07G08G13G19G03G28G11G23
 125086478.863 6  97470136.63343  23803188.961                    23803203.027
 107490182.288 8  83758613.23946  20454701.289                    20454708.277
 113207253.685 8  88213483.26545  21542623.172                    21542631.305
 114466392.496 7  89194621.33545  21782233.820                    21782241.957
 114860283.700 8  89501545.24445  21857185.922                    21857192.098
 125765971.183 6  97999489.85443  23932470.141                    23932479.332
 119447973.907 7  93076382.67344  22730190.188                    22730198.746
 117265528.092 7  91375781.40745  22314883.461                    22314892.992
 125541684.315 7  97824707.14243  23889800.320                    23889811.871
 11  7 23 19 38  0.0000000  0  9G24G07G08G13G19G03G28G11G23
 125010871.136 6  97411221.72543  23788801.305                    23788815.395
 107464995.113 8  83738986.88346  20449908.109                    20449915.496
 113138911.862 8  88160229.91945  21529617.773                    21529626.102
 114560245.405 7  89267753.41945  21800092.438                    21800101.973
 114931871.797 7  89557328.16645  21870809.148                    21870815.195
 125875203.667 6  98084606.02243  23953256.484                    23953265.594
 119408884.764 7  93045923.64745  22722752.359                    22722760.434
 117205181.441 7  91328758.13944  22303399.813                    22303408.852
 125656663.801 6  97914301.22643  23911680.477                    23911691.852
 11  7 23 19 38 30.0000000  0  9G24G07G08G13G19G03G28G11G23
 124935320.905 6  97352351.63243  23774424.484                    23774438.477
 107440131.237 8  83719612.44446  20445176.664                    20445184.320
 113070701.050 8  88107078.65345  21516638.297                    21516646.004
 114654429.721 7  89341143.71545  21818015.313                    21818025.098
 115003892.691 7  89613448.33945  21884514.047                    21884520.211
 125984555.374 6  98169815.13742  23974064.891                    23974074.684
 119369949.734 7  93015584.71544  22715342.953                    22715351.371
 117145183.033 7  91282006.21844  22291983.078                    22291991.273
 125771687.810 6  98003929.99344  23933569.516                    23933581.035
 11  7 23 19 39  0.0000000  0  9G24G07G08G13G19G03G28G11G23
 124859830.868 6  97293528.41843  23760058.117                    23760073.359
 107415591.950 8  83700490.93746  20440507.352                    20440514.449
 113002622.638 8  88054030.55545  21503682.828                    21503691.395
 114748941.425 7  89414789.12345  21836000.711                    21836010.246
 115076343.776 7  89669903.72545  21898301.055                    21898307.406
 126094023.287 6  98255114.75542  23994895.078                    23994905.801
 119331167.561 7  92985364.89145  22707963.227                    22707971.777
 117085535.165 7  91235527.42744  22280631.867                    22280640.652
 125886753.132 6  98093590.97543  23955465.563                    23955477.563
 11  7 23 19 39 30.0000000  0  9G24G07G08G13G19G03G28G11G23
 124784404.779 6  97234755.03143  23745705.336                    23745719.543
 107391379.879 8  83681624.39346  20435899.773                    20435907.324
 112934679.066 8  88001087.54245  21490753.984                    21490762.207
 114843778.632 7  89488688.16645  21854047.898                    21854057.418
 115149223.147 7  89726692.84245  21912169.289                    21912175.621
 126203605.325 6  98340503.31542  24015749.367                    24015758.426
 119292538.486 7  92955264.34645  22700612.047                    22700620.438
 117026241.266 7  91189324.46644  22269348.641                    22269357.672
 126001857.507 6  98183282.34843  23977368.844                    23977381.617
 11  7 23 19 40  0.0000000  0  9G24G07G08G13G19G03G28G11G23
 124709045.694 6  97176033.85943  23731365.781                    23731378.828
 107367496.368 8  83663013.87046  20431354.984                    20431362.293
 112866872.571 7  87948251.34445  21477850.219                    21477858.684
 114938938.309 7  89562838.47445  21872155.977                    21872165.410
 115222527.610 8  89783813.20345  21926118.484                    21926125.016
 126313298.648 6  98425978.60543  24036622.797                    24036632.031
 119254061.093 7  92925282.00445  22693289.969                    22693298.047
 116967303.889 7  91143399.31545  22258133.609                    22258142.395
 126116998.188 6  98273002.02143  23999280.492                    23999292.547
 11  7 23 19 40 30.0000000  0  9G24G07G08G13G19G03G28G11G23
 124633755.622 7  97117366.46843  23717037.672                    23717051.617
 107343942.628 8  83644660.32046  20426872.328                    20426879.996
 112799204.579 8  87895523.05745  21464973.594                    21464981.887
 115034416.786 7  89637237.20845  21890324.852                    21890334.375
 115296254.029 7  89841262.35545  21940148.203                    21940154.398
 126423100.692 6  98511538.65843  24057517.555                    24057527.285
 119215734.190 7  92895416.93645  22685996.438                    22686005.227
 116908725.393 7  91097753.81444  22246986.102                    22246994.977
 126232171.747 6  98362747.31243  24021196.789                    24021209.605
 11  7 23 19 41  0.0000000  0  9G24G07G08G13G19G03G28G11G23
 124558538.524 7  97058755.91744  23702723.875                    23702738.750
 107320721.605 8  83626566.02946  20422454.148                    20422461.426
 112731678.018 8  87842905.00445  21452123.688                    21452132.293
 115130212.109 7  89711882.83345  21908554.422                    21908563.957
 115370400.430 7  89899038.76645  21954257.781                    21954264.277
 126533009.199 6  98597181.59143  24078432.883                    24078442.137
 119177557.649 7  92865669.01345  22678731.906                    22678740.441
 116850509.564 7  91052390.90944  22235907.719                    22235916.711
 126347376.092 6  98452516.63143  24043119.813                    24043132.383
 11  7 23 19 41 30.0000000  0  9G24G07G08G13G19G03G28G11G23
 124483396.670 7  97000204.02243  23688424.813                    23688439.148
 107297833.871 8  83608731.42846  20418098.313                    20418105.969
 112664293.487 8  87790397.59545  21439300.844                    21439308.910
 115226320.089 7  89786772.08345  21926843.156                    21926852.914
 115444963.459 7  89957139.82245  21968446.656                    21968452.887
 126643020.714 6  98682904.85543  24099367.555                    24099376.941
 119139529.889 7  92836037.03244  22671495.398                    22671503.082
 116792658.369 7  91007312.13545  22224899.063                    22224907.746
 126462607.656 6  98542307.09743  24065047.992                    24065059.965
 11  7 23 19 42  0.0000000  0  9G24G07G08G13G19G03G28G11G23
 124408333.554 7  96941713.44843  23674141.164                    23674154.742
 107275281.794 8  83591158.39346  20413807.047                    20413814.492
 112597053.727 8  87738003.00945  21426505.492                    21426513.625
 115322738.254 7  89861903.03745  21945191.172                    21945200.102
 115519940.875 7  90015563.78745  21982714.648                    21982720.770
 126753133.555 6  98768707.04043  24120321.344                    24120331.031
 119101650.664 7  92806520.80044  22664286.672                    22664295.098
 116735174.797 7  90962519.81044  22213960.023                    22213968.793
 126577863.859 6  98632116.82043  24086981.219                    24086992.230
 11  7 23 19 42 30.0000000  0  9G24G07G08G13G19G03G28G11G23
 124333352.636 6  96883286.95943  23659871.594                    23659886.059
 107253068.043 8  83573848.99146  20409579.773                    20409587.543
 112529961.768 7  87685723.59445  21413738.109                    21413746.887
 115419464.233 7  89937273.83445  21963597.430                    21963606.844
 115595330.567 7  90074308.97445  21997060.594                    21997067.336
 126863345.759 6  98854586.64543  24141293.672                    24141303.855
 119063919.198 7  92777119.70545  22657106.766                    22657115.078
 116678061.911 7  90918016.34344  22203092.086                    22203101.402
 126693142.376 6  98721943.90943  24108918.813                    24108929.652
 11  7 23 19 43  0.0000000  0  9G24G07G08G13G19G03G28G11G23
 124258456.046 7  96824926.19644  23645619.922                    23645634.020
 107231192.429 8  83556803.06746  20405417.039                    20405424.082
 112463018.247 8  87633559.83345  21400999.211                    21401007.715
 115516494.062 7  90012881.40645  21982062.102                    21982070.906
 115671128.755 7  90133372.49345  22011484.445                    22011490.773
 126973653.197 6  98940540.44143  24162284.438                    24162295.105
 119026333.894 7  92747832.50844  22649954.578                    22649962.523
 116621321.922 7  90873803.42944  22192294.555                    22192303.777
 126808439.715 6  98811785.63742  24130858.328                    24130869.984
 11  7 23 19 43 30.0000000  0  9G24G07G08G13G19G03G28G11G23
 124183647.235 6  96766633.85043  23631384.383                    23631397.906
 107209658.112 8  83540023.08746  20401319.141                    20401326.680
 112396225.650 8  87581513.68445  21388289.414                    21388297.594
 115613825.134 7  90088723.70845  22000583.250                    22000592.602
 115747333.255 7  90192752.61345  22025985.406                    22025992.289
 127084053.811 6  99026566.88642  24183292.617                    24183302.531
 118988894.891 7  92718659.31445  22642829.852                    22642837.816
 116564957.736 7  90829883.36444  22181568.852                    22181577.391
 126923753.617 5  98901640.23142  24152802.242                    24152814.453
 11  7 23 19 44  0.0000000  0  8G24G07G08G13G19G28G11G23
 124108929.958 6  96708412.78143  23617166.086                    23617179.105
 107188466.833 8  83523510.41346  20397286.297                    20397294.016
 112329586.426 8  87529587.04645  21375608.148                    21375616.559
 115711455.093 7  90164798.92545  22019161.742                    22019170.918
 115823941.734 7  90252447.51345  22040563.664                    22040570.262
 118951600.907 7  92689599.10044  22635733.422                    22635741.660
 116508972.608 7  90786258.65344  22170914.945                    22170923.957
 127039081.508 5  98991505.75442  24174748.930                    24174761.387
 11  7 23 19 44 30.0000000  0  8G24G07G08G13G19G28G11G23
 124034306.900 6  96650265.14643  23602965.141                    23602978.559
 107167620.335 8  83507266.39746  20393319.594                    20393327.004
 112263102.504 8  87477781.41145  21362956.391                    21362965.141
 115809380.246 7  90241104.13344  22037796.430                    22037805.313
 115900951.026 7  90312454.72645  22055218.328                    22055224.770
 118914451.437 7  92660651.50945  22628663.578                    22628672.438
 116453369.215 7  90742931.40745  22160334.258                    22160342.320
 127154420.420 5  99081379.85252  24196697.172                    24196709.898
 11  7 23 19 45  0.0000000  0  8G24G07G08G13G19G28G11G23
 123959780.678 6  96592192.98243  23588783.016                    23588796.398
 107147119.902 8  83491292.05246  20389418.758                    20389426.047
 112196775.836 8  87426098.32145  21350335.430                    21350343.414
 115907597.696 7  90317637.13344  22056486.750                    22056495.523
 115978358.291 7  90372772.06245  22069948.656                    22069954.391
 118877445.094 7  92631815.45245  22621622.008                    22621629.887
 116398149.775 7  90699903.34244  22149826.305                    22149834.652
 127269767.379 5  99171260.26442  24218647.906                    24218659.844
 11  7 23 19 45 30.0000000  0  8G24G07G08G13G19G28G11G23
 123885355.029 6  96534199.15943  23574620.070                    23574633.477
 107126967.876 8  83475589.18846  20385583.484                    20385591.375
 112130608.822 8  87374539.63245  21337743.766                    21337752.328
 116006104.708 7  90394395.75144  22075231.766                    22075240.746
 116056161.279 7  90433397.73945  22084753.633                    22084760.461
 118840581.649 7  92603090.74045  22614606.625                    22614614.973
 116343317.537 7  90657176.99044  22139391.727                    22139400.172
 127385120.006 5                  24240599.227
 11  7 23 19 46  0.0000000  0  8G24G07G08G13G19G28G11G23
 123811032.293 6  96476285.55443  23560477.008                    23560490.008
 107107165.150 8  83460158.50046  20381815.594                    20381822.863
 112064603.145 8  87323106.67045  21325183.375                    21325191.262
 116104897.642 7  90471377.17244  22094031.516                    22094040.277
 116134356.818 7  90494329.33445  22099634.023                    22099640.020
 118803859.604 7  92574476.20945  22607618.578                    22607627.203
 116288874.553 7  90614753.97044  22129031.914                    22129040.586
 127500475.02115                  24262551.141
 11  7 23 19 46 30.0000000  0  8G24G07G08G13G19G28G11G23
 123736815.930 6  96418454.79343  23546353.164                    23546367.113
 107087713.810 8  83445001.62146  20378113.922                    20378121.504
 111998761.332 8  87271801.39146  21312654.102                    21312662.262
 116203973.743 7  90548579.24844  22112884.820                    22112894.141
 116212942.166 7  90555564.66045  22114588.461                    22114594.242
 118767278.257 7  92545971.30445  22600657.594                    22600666.152
 116234823.705 7  90572636.49845  22118746.172                    22118755.176
 127615830.49715                  24284502.586
 11  7 23 19 47  0.0000000  0  9G24G17G07G08G13G19G28G11G23
 123662709.346 6  96360709.61243  23532251.984                    23532265.277
 129528077.22616 100931135.56953  24648399.531                    24648414.707
 107068616.183 8  83430120.35946  20374479.344                    20374486.984
 111933085.797 8  87220625.68345  21300156.336                    21300164.578
 116303330.397 7  90625999.92845  22131791.805                    22131801.914
 116291915.010 7  90617101.92645  22129616.344                    22129622.977
 118730837.421 7  92517575.89645  22593722.742                    22593731.137
 116181168.393 7  90530827.25045  22108535.344                    22108544.707
 127731182.336 5                  24306453.492
 11  7 23 19 47 30.0000000  0  9G24G17G07G08G13G19G28G11G23
 123588714.256 6  96303051.28543  23518171.641                    23518184.242
 129422862.489 6 100849150.42843  24628378.227                    24628393.156
 107049872.654 8  83415515.02246  20370912.891                    20370920.184
 111867577.264 8  87169580.09245  21287690.703                    21287698.551
 116402963.631 7  90703636.11044  22150751.789                    22150761.316
 116371271.555 7  90678938.18345  22144717.938                    22144723.695
 118694534.970 7  92489288.34144  22586814.734                    22586823.246
 116127909.876 7  90489327.18945  22098401.203                    22098409.840
 127846528.34814                  24328401.953
 11  7 23 19 48  0.0000000  0  8G24G17G07G08G13G19G28G11
 123514835.138 6  96245483.33643  23504112.164                    23504125.547
 129317745.563 6 100767241.45343  24608374.969                    24608389.617
 107031486.338 8  83401188.02546  20367414.211                    20367421.531
 111802239.344 8  87118667.43845  21275257.047                    21275265.293
 116502871.338 7  90781486.16545  22169764.063                    22169773.441
 116451010.304 7  90741072.26745  22159890.906                    22159897.445
 118658371.550 7  92461109.10345  22579933.852                    22579941.465
 116075052.100 7  90448139.39545  22088342.141                    22088350.980
 11  7 23 19 48 30.0000000  0  9G24G17G07G08G13G19G28G11G23
 123441074.548 6  96188007.77943  23490075.398                    23490088.891
 129212727.809 6 100685409.75144  24588390.383                    24588405.598
 107013458.394 8  83387140.27646  20363983.336                    20363990.902
 111737073.510 8  87067888.91046  21262856.750                    21262864.918
 116603049.712 7  90859547.14344  22188827.461                    22188836.859
 116531127.597 7  90803501.31745  22175137.430                    22175143.152
 118622345.442 7  92433036.86645  22573077.563                    22573085.453
 116022596.897 7  90407265.28745  22078360.414                    22078369.039
 128077187.29514                  24372299.234
 11  7 23 19 49  0.0000000  0  9G24G17G07G08G13G19G28G11G23
 123367436.829 6  96130627.94643  23476063.273                    23476075.945
 129107812.759 6 100603658.07043  24568426.492                    24568439.977
 106995791.711 8  83373374.02546  20360621.664                    20360628.949
 111672083.345 8  87017247.23745  21250489.320                    21250497.336
 116703497.723 7  90937818.22244  22207941.641                    22207951.805
 116611622.328 7  90866224.46945  22190454.898                    22190461.531
 118586457.169 7  92405072.02045  22566248.289                    22566256.398
 115970548.239 7  90366707.95844  22068456.156                    22068464.383
 128192501.57714                  24394240.359
 11  7 23 19 49 30.0000000  0  8G24G17G07G08G13G19G28G11
 123293923.814 7  96073345.26243  23462073.539                    23462086.469
 129003001.522 7 100521987.20043  24548480.758                    24548494.703
 106978486.899 8  83359889.76046  20357328.602                    20357336.172
 111607269.660 8  86966743.09145  21238155.813                    21238163.301
 116804210.609 7  91016295.70145  22227107.422                    22227116.445
 116692490.506 7  90929238.62545  22205843.484                    22205849.879
 118550704.619 7  92377212.95145  22559444.578                    22559453.160
 115918907.888 7  90326468.79545  22058629.047                    22058637.707
 11  7 23 19 50  0.0000000  0  9G24G17G07G08G13G19G28G11G23
 123220538.797 7  96016162.30843  23448108.719                    23448121.426
 128898295.956 6 100440398.72943  24528555.570                    24528569.488
 106961545.782 8  83346688.88846  20354104.766                    20354112.387
 111542634.951 8  86916378.41446  21225855.664                    21225864.535
 116905185.584 7  91094977.41545  22246321.789                    22246331.688
 116773729.250 7  90992541.53645  22221302.563                    22221309.242
 118515087.169 7  92349459.16844  22552666.961                    22552675.027
 115867678.470 7  90286549.83145  22048880.016                    22048888.816
 128423084.22714                  24438121.391
 11  7 23 19 50 30.0000000  0  8G24G17G07G08G13G19G28G11
 123147285.094 7  95959081.70243  23434168.852                    23434181.184
 128793698.530 6 100358894.46143  24508651.094                    24508664.844
 106944970.007 8  83333772.70746  20350950.547                    20350958.207
 111478181.523 8  86866154.97145  21213590.922                    21213598.766
 117006419.476 7  91173860.87544  22265586.695                    22265595.809
 116855336.452 7  91056131.56345  22236832.070                    22236838.594
 118479604.208 7  92321810.15445  22545914.625                    22545922.934
 115816862.610 7  90246953.12345  22039210.227                    22039218.668
 11  7 23 19 51  0.0000000  0  8G24G17G07G08G13G19G28G11
 123074165.614 6  95902105.66743  23420254.727                    23420267.457
 128689211.131 5 100277476.01443  24488767.516                    24488782.316
 106928761.748 8  83321142.89746  20347865.992                    20347873.699
 111413911.959 8  86816074.83046  21201361.039                    21201369.148
 117107909.700 7  91252944.06544  22284899.211                    22284909.195
 116937309.107 7  91120006.34745  22252430.625                    22252437.570
 118444254.969 7  92294265.34745  22539188.328                    22539196.035
 115766463.096 7  90207680.83545  22029619.930                    22029628.344
 11  7 23 19 51 30.0000000  0  8G24G17G07G08G13G19G28G11
 123001183.752 6  95845236.89243  23406366.672                    23406379.039
 128584836.088 6 100196145.14543  24468906.031                    24468920.137
 106912922.772 8  83308800.84446  20344852.117                    20344859.637
 111349828.144 8  86766139.40546  21189166.094                    21189173.641
 117209653.392 7  91332224.76544  22304260.227                    22304270.105
 117019644.361 7  91184163.68945  22268098.742                    22268104.980
 118409038.760 7  92266824.20045  22532486.563                    22532494.449
 115716482.553 7  90168735.02545  22020108.922                    22020117.223
 11  7 23 19 52  0.0000000  0  8G24G17G07G08G13G19G28G11
 122928342.511 6  95788477.66343  23392505.602                    23392517.668
 128480575.309 6 100114903.26743  24449064.711                    24449079.234
 106897454.267 8  83296747.46846  20341908.594                    20341915.965
 111285932.049 8  86716350.25245  21177007.359                    21177015.121
 117311646.701 7  91411699.98044  22323669.141                    22323678.762
 117102339.156 7  91248601.18545  22283834.930                    22283840.934
 118373954.574 7  92239485.92745  22525810.383                    22525818.520
 115666923.430 7  90130117.58345  22010677.633                    22010685.988
 11  7 23 19 52 30.0000000  0  8G24G17G07G08G13G19G28G11
 122855644.327 6  95731829.89743  23378671.039                    23378683.531
 128376430.468 6 100033751.74043  24429246.438                    24429260.805
 106882357.464 8  83284983.72946  20339035.906                    20339043.348
 111222225.737 8  86666708.97646  21164884.180                    21164892.195
 117413886.635 7  91491367.35644  22343124.836                    22343134.902
 117185390.515 7  91313316.52545  22299639.195                    22299645.137
 118339001.126 7  92212249.51545  22519159.133                    22519166.617
 115617787.618 7  90091830.00345  22001327.297                    22001335.750
 11  7 23 19 53  0.0000000  0  8G24G17G07G08G13G19G28G11
 122783093.289 6  95675296.84343  23364865.055                    23364877.555
 128272404.038 6  99952692.49743  24409451.242                    24409465.043
 106867635.146 8  83273511.80146  20336234.227                    20336241.891
 111158712.409 8  86617218.08746  21152798.250                    21152806.016
 117516370.794 7  91571225.05344  22362627.195                    22362636.957
 117268796.549 7  91378308.23245  22315511.211                    22315517.441
 118304178.130 7  92185114.77445  22512532.555                    22512540.176
 115569078.688 7  90053875.06845  21992058.391                    21992066.844
 11  7 23 19 53 30.0000000  0  8G24G17G07G08G13G19G28G11
 122710691.985 6  95618880.41743  23351087.039                    23351099.934
 128168497.896 6  99871726.94144  24389677.773                    24389691.820
 106853288.095 8  83262332.28646  20333503.969                    20333511.605
 111095393.256 8  86567878.50846  21140748.477                    21140756.664
 117619095.786 7  91651270.40344  22382175.008                    22382184.906
 117352553.567 7  91443573.42745  22331448.930                    22331455.277
 118269484.366 7  92158080.72245  22505929.961                    22505938.277
 115520798.511 7  90016254.20145  21982870.680                    21982879.426
 11  7 23 19 54  0.0000000  0  8G24G17G07G08G13G19G28G11
 122638443.687 6  95562583.25343  23337337.914                    23337351.480
 128064713.900 6  99790856.50944  24369928.656                    24369942.117
 106839318.330 8  83251446.75946  20330845.453                    20330853.059
 111032270.925 8  86518692.28646  21128737.047                    21128745.273
 117722058.416 7  91731500.93744  22401768.367                    22401777.805
 117436659.227 7  91509110.29145  22347453.922                    22347460.281
 118234919.245 7  92131146.90445  22499351.984                    22499360.445
 115472949.893 7  89978969.63445  21973765.148                    21973773.652
 11  7 23 19 54 30.0000000  0  8G24G17G07G08G13G19G28G11
 122566351.086 6  95506407.39043  23323619.008                    23323632.781
 127961054.207 7  99710082.97344  24350202.391                    24350216.469
 106825727.171 8  83240856.24246  20328259.492                    20328266.625
 110969347.570 8  86469661.11746  21116763.195                    21116771.305
 117825255.217 7  91811913.92344  22421406.078                    22421415.500
 117521110.320 7  91574916.34545  22363524.609                    22363530.719
 118200481.672 7  92104312.46545  22492799.375                    22492806.672
 115425534.918 7  89942022.95845  21964742.984                    21964751.891
 11  7 23 19 55  0.0000000  0  8G24G17G07G08G13G19G28G11
 122494417.797 6  95450355.70243  23309931.039                    23309944.184
 127857520.994 6  99629407.96144  24330501.102                    24330514.918
 106812516.788 8  83230562.44246  20325745.523                    20325753.148
 110906625.768 7  86420787.00946  21104827.453                    21104835.117
 117928683.663 7  91892507.43244  22441088.281                    22441098.023
 117605904.565 7  91640989.76245  22379660.188                    22379666.957
 118166171.215 7  92077577.08845  22486270.047                    22486277.836
 115378556.240 7  89905416.26845  21955802.906                    21955811.266
 11  7 23 19 55 30.0000000  0  9G24G17G07G26G08G13G19G28G11
 122422646.666 7  95394430.32143  23296273.305                    23296286.254
 127754116.166 6  99548832.99044  24310823.523                    24310836.793
 106799688.392 8  83220566.29646  20323304.508                    20323311.547
 127327114.99616  99216058.02952  24229565.078                    24229574.723
 110844107.278 8  86372071.32446  21092930.820                    21092938.863
 118032340.505 7  91973278.89644  22460813.258                    22460823.086
 117691038.860 7  91707328.15945  22395860.867                    22395867.219
 118131986.714 7  92050939.86845  22479765.000                    22479773.305
 115332016.063 7  89869151.24845  21946946.484                    21946954.973
 11  7 23 19 56  0.0000000  0  9G24G17G07G26G08G13G19G28G11
 122351040.586 7  95338633.58544  23282646.953                    23282660.289
 127650842.165 6  99468359.96644  24291170.727                    24291184.246
 106787243.463 8  83210868.96346  20320936.328                    20320943.480
 127237730.425 6  99146407.75942  24212554.820                    24212565.215
 110781794.436 8  86323515.88846  21081072.547                    21081080.539
 118136222.409 7  92054225.72244  22480581.383                    22480591.707
 117776510.206 7  91773929.19345  22412126.055                    22412132.051
 118097927.130 7  92024399.97345  22473283.531                    22473291.734
 115285917.230 7  89833230.12945  21938174.953                    21938183.125
 11  7 23 19 56 30.0000000  0  9G24G17G07G26G08G13G19G28G11
 122279603.262 7  95282968.30444  23269053.109                    23269065.465
 127547700.580 6  99387990.13043  24271543.086                    24271556.793
 106775184.060 8  83201472.02746  20318641.250                    20318648.445
 127148722.273 5  99077050.79842  24195616.906                    24195627.648
 110719689.645 8  86275122.57346  21069254.688                    21069262.441
 118240326.874 7  92135345.97244  22500392.102                    22500402.129
 117862316.141 7  91840790.94245  22428453.883                    22428460.254
 118063992.069 7  91997957.11745  22466826.469                    22466834.355
 115240262.174 7  89797654.82945  21929486.000                    21929495.094
 11  7 23 19 57  0.0000000  0  9G24G17G07G26G08G13G19G28G11
 122208337.331 7  95227436.60544  23255490.992                    23255503.664
 127444693.564 6  99307725.17243  24251941.414                    24251955.488
 106763511.599 8  83192376.60246  20316420.117                    20316427.563
 127060093.494 6  99007989.48042  24178751.375                    24178761.898
 110657795.333 8  86226893.26746  21057476.508                    21057484.738
 118344650.508 7  92216637.00544  22520243.633                    22520254.309
 117948453.714 7  91907911.11645  22444845.617                    22444851.758
 118030180.503 7  91971610.48945  22460391.953                    22460399.590
 115195052.956 7  89762426.92345  21920883.000                    21920891.504
 11  7 23 19 57 30.0000000  0  9G24G17G07G26G08G13G19G28G11
 122137245.952 7  95172040.89444  23241963.273                    23241975.516
 127341822.844 5  99227566.45243  24232365.633                    24232379.586
 106752227.862 8  83183584.09046  20314272.875                    20314280.211
 126971846.835 6  98939225.93043  24161958.055                    24161968.891
 110596113.790 8  86178829.74946  21045739.219                    21045746.781
 118449190.257 7  92298096.41944  22540137.469                    22540147.211
 118034920.043 7  91975287.45245  22461299.813                    22461306.203
 117996491.747 7  91945359.55244  22453981.008                    22453989.082
 115150292.245 7  89727548.49845  21912365.469                    21912374.387
 11  7 23 19 58  0.0000000  0  9G24G17G07G26G08G13G19G28G11
 122066332.200 6  95116783.61343  23228468.563                    23228480.852
 127239090.594 6  99147515.64542  24212815.242                    24212830.531
 106741334.027 8  83175095.38846  20312199.953                    20312207.484
 126883985.099 6  98870762.26943  24145239.109                    24145249.559
 110534646.954 7  86130933.55246  21034041.828                    21034049.914
 118553942.856 7  92379721.70844  22560070.695                    22560080.953
 118121711.927 7  92042917.48045  22477816.172                    22477821.746
 117962924.669 7  91919203.44145  22447593.156                    22447601.480
 115105982.408 7  89693021.40945  21903933.820                    21903942.125
 11  7 23 19 58 30.0000000  0  9G24G17G07G26G08G13G19G28G11
 121995599.531 7  95061667.41843  23215007.828                    23215020.168
 127136499.595 6  99067574.80943  24193293.172                    24193307.121
 106730832.171 8  83166912.12946  20310201.586                    20310208.969
 126796511.100 6  98802600.73143  24128593.203                    24128603.664
 110473397.831 8  86083206.97946  21022387.227                    21022395.063
 118658905.868 7  92461510.94044  22580045.242                    22580055.332
 118208827.525 7  92110799.75145  22494392.930                    22494399.551
 117929478.941 7  91893141.87345  22441228.883                    22441236.891
 115062126.137 7  89658847.72645  21895588.227                    21895596.328
 11  7 23 19 59  0.0000000  0  9G24G17G07G26G08G13G19G28G11
 121925050.548 6  95006694.35843  23201583.172                    23201595.098
 127034051.159 6  98987745.12043  24173798.539                    24173811.227
 106720723.431 8  83159035.19046  20308277.813                    20308285.203
 126709427.640 6  98734743.59343  24112021.703                    24112031.934
 110412368.302 8  86035651.52146  21010773.188                    21010781.684
 118764075.506 7  92543461.19844  22600059.023                    22600067.926
 118296263.277 7  92178931.47345  22511031.180                    22511038.113
 117896153.283 7  91867173.86545  22434887.398                    22434895.043
 115018725.140 7  89625028.81645  21887329.313                    21887337.355
 11  7 23 19 59 30.0000000  0  9G24G17G07G26G08G13G19G28G11
 121854688.765 6  94951867.17443  23188193.281                    23188204.988
 126931747.363 7  98908028.05443  24154330.789                    24154342.949
 106711009.677 8  83151466.03446  20306429.141                    20306436.684
 126622737.593 6  98667192.92543  24095525.469                    24095535.117
 110351560.824 8  85988269.09646  20999201.859                    20999209.914
 118869448.769 7  92625570.10644  22620109.820                    22620119.777
 118384016.608 7  92247310.67445  22527730.063                    22527737.113
 117862947.242 7  91841299.08244  22428567.977                    22428575.852
 114975782.279 7  89591566.88545  21879157.070                    21879164.672
 11  7 23 20  0  0.0000000  0  9G24G17G07G26G08G13G19G28G11
 121784517.009 6  94897188.05943  23174839.836                    23174851.590
 126829589.890 6  98828425.00243  24134890.234                    24134903.535
 106701692.062 8  83144205.56346  20304656.047                    20304663.699
 126536443.543 6  98599950.88543  24079103.180                    24079113.996
 110290977.035 8  85941060.95546  20987673.516                    20987680.957
 118975022.539 7  92707835.27444  22640200.813                    22640210.004
 118472084.394 7  92315934.90445  22544489.133                    22544495.742
 117829859.426 7  91815516.39745  22422271.625                    22422279.980
 114933299.338 7  89558463.34545  21871073.367                    21871081.207
 11  7 23 20  0 30.0000000  0  9G24G17G07G26G08G13G19G28G11
 121714538.418 6  94842659.43843  23161523.672                    23161535.039
 126727580.799 7  98748937.64544  24115478.148                    24115491.445
 106692772.258 8  83137255.07646  20302958.938                    20302966.539
 126450548.234 6  98533019.52543  24062759.289                    24062768.676
 110230619.568 7  85894029.18146  20976187.633                    20976195.551
 119080793.943 7  92790254.44044  22660328.633                    22660337.637
 118560464.046 7  92384802.15245  22561307.391                    22561313.168
 117796889.163 7  91789825.32245  22415997.906                    22416005.602
 114891278.852 7  89525720.17145  21863076.945                    21863085.199
 11  7 23 20  1  0.0000000  0  9G24G17G07G26G08G13G19G28G11
 121644756.389 6  94788283.97043  23148244.109                    23148255.555
 126625722.821 6  98669568.00244  24096094.945                    24096108.074
 106684252.191 7  83130616.06446  20301337.727                    20301344.926
 126365054.722 7  98466401.22043  24046490.328                    24046499.934
 110170491.074 8  85847175.82646  20964745.656                    20964753.570
 119186760.072 7  92872825.31944  22680493.148                    22680502.883
 118649152.815 7  92453910.25145  22578184.336                    22578190.516
 117764036.123 7  91764225.60445  22409746.039                    22409753.727
 114849723.260 7  89493339.22445  21855168.758                    21855177.504
 11  7 23 20  1 30.0000000  0  9G24G17G07G26G08G13G19G28G11
 121575174.119 6  94734064.18243  23135003.055                    23135014.707
 126524017.462 6  98590317.28944  24076741.063                    24076754.000
 106676133.456 8  83124289.77646  20299792.289                    20299800.215
 126279965.920 6  98400098.29443  24030297.727                    24030307.902
 110110594.211 8  85800502.95646  20953347.359                    20953355.738
 119292917.981 7  92955545.64544  22700694.484                    22700704.309
 118738148.026 7  92523257.17244  22595119.313                    22595125.336
 117731299.458 7  91738716.54945  22403516.156                    22403524.008
 114808634.810 7  89461322.30045  21847350.398                    21847357.750
 11  7 23 20  2  0.0000000  0  9G24G17G07G26G08G13G19G28G11
 121505794.406 6  94680002.26343  23121800.914                    23121812.078
 126422466.780 6  98511187.16144  24057415.930                    24057429.699
 106668417.305 8  83118277.19546  20298324.422                    20298331.984
 126195284.372 6  98334112.68843  24014184.023                    24014193.844
 110050930.980 8  85754012.14046  20941993.406                    20942001.738
 119399263.984 7  93038412.53244  22720930.570                    22720941.711
 118827446.527 7  92592840.38445  22612112.086                    22612118.563
 117698678.260 7  91713297.46245  22397308.594                    22397316.188
 114768015.982 7  89429671.32845  21839620.047                    21839628.547
 11  7 23 20  2 30.0000000  0  9G24G17G07G26G08G13G19G28G11
 121436620.308 6  94626100.53043  23108637.320                    23108648.480
 126321072.855 6  98432179.17644  24038121.250                    24038134.723
 106661105.277 8  83112579.51446  20296932.898                    20296940.543
 126111012.572 6  98268446.38143  23998147.609                    23998156.668
 109991503.592 8  85707705.10346  20930685.367                    20930693.109
 119505795.150 7  93121423.68944  22741203.516                    22741213.855
 118917045.457 7  92662657.72345  22629161.977                    22629168.785
 117666171.212 7  91687967.33345  22391122.523                    22391130.195
 114727868.619 7  89398387.71645  21831980.633                    21831988.426
 11  7 23 20  3  0.0000000  0  9G24G17G07G26G08G13G19G28G11
 121367655.147 6  94572361.60244  23095513.031                    23095524.719
 126219837.453 6  98353294.72343  24018856.570                    24018869.898
 106654198.867 8  83107197.89146  20295618.602                    20295626.094
 126027153.386 6  98203101.64843  23982188.914                    23982199.305
 109932314.448 8  85661583.70846  20919421.781                    20919429.789
 119612508.670 7  93204576.93444  22761510.492                    22761521.207
 119006942.162 7  92732707.09245  22646269.242                    22646275.648
 117633778.110 7  91662725.96745  22384958.891                    22384966.469
 114688195.069 7  89367473.30945  21824430.984                    21824438.621
 11  7 23 20  3 30.0000000  0  9G24G17G07G26G08G13G19G28G11
 121298902.151 6  94518788.01744  23082429.930                    23082441.254
 126118762.822 6  98274535.50243  23999622.320                    23999635.434
 106647699.894 8  83102133.75046  20294381.703                    20294388.863
 125943710.140 6  98138080.97743  23966310.039                    23966320.539
 109873366.356 8  85615650.15346  20908204.531                    20908212.938
 119719401.463 7  93287869.88544  22781851.469                    22781861.910
 119097134.015 7  92802986.44745  22663432.828                    22663438.688
 117601497.958 7  91637572.62545  22378815.578                    22378823.371
 114648997.807 7  89336930.03545  21816971.867                    21816980.230
 11  7 23 20  4  0.0000000  0  9G24G17G07G26G08G13G19G28G11
 121230363.775 7  94465381.65044  23069387.406                    23069399.383
 126017850.418 6  98195902.73443  23980419.742                    23980432.734
 106641608.948 8  83097387.56346  20293222.891                    20293230.203
 125860684.425 6  98073385.67243  23950510.945                    23950521.059
 109814660.882 8  85569905.64646  20897033.250                    20897041.266
 119826469.991 7  93371299.76644  22802226.492                    22802237.023
 119187617.504 7  92873493.04545  22680650.820                    22680657.152
 117569329.576 7  91612506.39245  22372694.297                    22372702.266
 114610278.466 7  89306759.17745  21809603.688                    21809611.945
 11  7 23 20  4 30.0000000  0  9G24G17G07G26G08G13G19G28G11
 121162043.980 6  94412145.60544  23056386.430                    23056398.070
 125917103.182 6  98117398.62243  23961247.719                    23961260.813
 106635928.645 8  83092961.34946  20292142.078                    20292149.113
 125778080.132 6  98009018.71843  23934792.289                    23934802.035
 109756201.336 8  85524352.77146  20885908.750                    20885916.207
 119933712.086 7  93454864.89244  22822633.844                    22822644.402
 119278391.072 7  92944225.67845  22697924.539                    22697930.887
 117537272.919 7  91587527.22545  22366594.281                    22366601.918
 114572039.954 7  89276962.98545  21802327.250                    21802335.391
 11  7 23 20  5  0.0000000  0  9G24G17G07G26G08G13G19G28G11
 121093945.119 6  94359081.72744  23043427.406                    23043439.184
 125816521.996 6  98039023.86943  23942107.695                    23942120.066
 106630659.412 8  83088855.45146  20291139.141                    20291146.336
 125695898.625 6  97944981.24142  23919152.570                    23919163.527
 109697989.250 8  85478992.73046  20874830.852                    20874839.211
 120041123.653 7  93538562.08444  22843073.344                    22843083.813
 119369450.720 7  93015181.22645  22715252.055                    22715258.605
 117505326.416 7  91562633.88245  22360515.180                    22360522.500
 114534283.559 7  89247542.47645  21795142.398                    21795150.117
 11  7 23 20  5 30.0000000  0  9G24G17G07G26G08G13G19G28G11
 121026070.939 6  94306192.92844  23030511.016                    23030522.793
 125716109.559 6  97960780.60743  23923000.094                    23923012.367
 106625803.578 8  83085071.68346  20290215.328                    20290222.484
 125614143.810 6  97881276.35142  23903594.828                    23903605.629
 109640027.570 8  85433827.80446  20863801.289                    20863809.168
 120148702.262 7  93622389.40844  22863545.578                    22863555.508
 119460794.134 7  93086357.91145  22732634.430                    22732641.172
 117473489.983 7  91537826.29545  22354456.688                    22354464.316
 114497012.160 7  89218499.87345  21788049.477                    21788058.125
 11  7 23 20  6  0.0000000  0  9G24G17G07G26G08G13G19G28G11
 120958424.175 6  94253481.34444  23017637.539                    23017649.879
 125615867.638 6  97882670.23043  23903924.469                    23903936.504
 106621362.332 8  83081610.97246  20289370.188                    20289377.246
 125532817.992 6  97817905.57542  23888119.539                    23888129.758
 109582318.542 8  85388859.75546  20852819.711                    20852827.848
 120256444.423 7  93706344.20944  22884047.891                    22884058.184
 119552418.323 7  93157753.36645  22750069.977                    22750076.535
 117441762.517 7  91513103.63745  22348419.492                    22348427.055
 114460227.419 7  89189836.49445  21781049.930                    21781058.461
 11  7 23 20  6 30.0000000  0  9G24G17G07G26G08G13G19G28G11
 120891007.834 6  94200949.32444  23004809.164                    23004820.684
 125515798.067 6  97804694.12544  23884881.164                    23884893.746
 106617336.688 8  83078474.10546  20288603.750                    20288611.723
 125451923.527 6  97754870.92342  23872725.359                    23872736.004
 109524864.571 8  85344090.44046  20841886.781                    20841895.148
 120364347.176 7  93790424.10544  22904581.773                    22904592.043
 119644320.522 7  93229365.43545  22767558.617                    22767565.109
 117410142.924 7  91488465.03745  22342402.047                    22342410.027
 114423931.475 7  89161554.00245  21774142.508                    21774151.523
 11  7 23 20  7  0.0000000  0  9G24G17G07G26G08G13G19G28G11
 120823824.961 6  94148599.17744  22992025.438                    22992036.160
 125415902.920 7  97726853.92843  23865871.789                    23865884.273
 106613728.206 8  83075662.31146  20287917.031                    20287924.672
 125371463.325 6  97692174.74442  23857414.969                    23857424.695
 109467667.736 8  85299521.50346  20831002.578                    20831010.754
 120472407.716 7  93874626.97944  22925145.430                    22925154.723
 119736498.004 7  93301192.02145  22785099.031                    22785105.906
 117378630.779 7  91463910.16445  22336405.102                    22336412.832
 114388126.649 7  89133654.18545  21767329.180                    21767337.703
 11  7 23 20  7 30.0000000  0  9G24G17G07G26G08G13G19G28G11
 120756878.958 6  94096433.60044  22979284.875                    22979296.949
 125316183.874 7  97649150.97844  23846896.422                    23846908.688
 106610538.451 8  83073176.79946  20287310.219                    20287317.570
 125291440.000 6  97629818.90243  23842186.719                    23842196.945
 109410730.741 8  85255155.02946  20820167.422                    20820175.297
 120580622.781 7  93958950.26744  22945737.266                    22945747.422
 119828947.773 7  93373230.77344  22802691.508                    22802698.605
 117347225.198 7  91439438.32945  22330429.516                    22330436.488
 114352814.646 7  89106138.39545  21760609.750                    21760617.652
 11  7 23 20  8  0.0000000  0  9G24G17G07G26G08G13G19G28G11
 120690172.858 6  94044454.97244  22966590.883                    22966602.879
 125216643.095 6  97571586.94744  23827953.453                    23827965.988
 106607769.051 8  83071018.82846  20286783.258                    20286790.402
 125211856.070 6  97567805.49743  23827042.406                    23827053.070
 109354055.913 8  85210992.83946  20809382.563                    20809390.703
 120688989.385 7  94043391.64143  22966358.680                    22966369.328
 119921667.179 7  93445479.64145  22820335.773                    22820342.570
 117315925.436 7  91415048.95145  22324472.992                    22324480.672
 114317998.008 7  89079008.60945  21753984.203                    21753992.512
 11  7 23 20  8 30.0000000  0  9G24G17G07G26G08G13G19G28G11
 120623709.494 6  93992665.46543  22953943.336                    22953955.480
 125117282.135 6  97494163.01644  23809045.930                    23809057.977
 106605420.927 7  83069189.11946  20286336.609                    20286343.918
 125132714.250 6  97506136.60443  23811982.359                    23811992.539
 109297645.714 8  85167036.84646  20798648.023                    20798656.121
 120797504.291 7  94127948.53943  22987009.164                    22987019.762
 120014653.135 7  93517936.19944  22838030.555                    22838037.508
 117284730.366 7  91390741.14045  22318536.688                    22318544.320
 114283678.331 7  89052266.04845  21747453.359                    21747461.730
 11  7 23 20  9  0.0000000  0  9G24G17G07G26G08G13G19G28G11
 120557492.123 6  93941067.67444  22941342.711                    22941354.145
 125018103.380 6  97416881.07044  23790171.734                    23790184.805
 106603495.937 8  83067689.13146  20285970.398                    20285977.488
 125054017.184 6  97444814.28843  23797006.203                    23797016.000
 109241502.514 8  85123288.92546  20787964.242                    20787972.617
 120906164.351 7  94212618.56143  23007686.000                    23007696.875
 120107903.230 7  93590598.58944  22855774.992                    22855781.875
 117253639.455 7  91366514.50345  22312620.195                    22312628.070
 114249857.690 7  89025912.35445  21741017.898                    21741025.773
 11  7 23 20  9 30.0000000  0  9G24G17G07G26G08G13G19G28G11
 120491523.493 7  93889663.69243  22928789.586                    22928800.664
 124919108.468 6  97339742.37744  23771334.469                    23771346.949
 106601994.832 7  83066519.44446  20285684.641                    20285692.164
 124975766.991 6  97383840.17343  23782115.758                    23782125.914
 109185628.459 8  85079750.71646  20777332.047                    20777340.316
 121014966.474 7  94297399.28843  23028390.969                    23028401.605
 120201414.315 7  93663464.34944  22873569.875                    22873576.461
 117222651.617 7  91342368.17845  22306723.680                    22306731.398
 114216538.013 7  88999949.01345  21734677.555                    21734685.039
 11  7 23 20 10  0.0000000  0  9G24G17G07G26G08G13G19G28G11
 120425807.005 7  93838456.15744  22916283.695                    22916295.492
 124820299.144 6  97262748.31044  23752531.602                    23752544.211
 106600919.097 7  83065681.21046  20285479.625                    20285487.355
 124897966.571 6  97323216.54643  23767310.773                    23767321.867
 109130025.809 8  85036423.99046  20766751.063                    20766759.105
 121123907.704 7  94382288.37744  23049121.430                    23049132.844
 120295183.576 7  93736531.26744  22891413.141                    22891419.945
 117191766.427 7  91318301.82845  22300846.414                    22300853.629
 114183721.259 7  88974377.56545  21728432.109                    21728440.141
 11  7 23 20 10 30.0000000  0  9G24G17G07G26G08G13G19G28G11
 120360345.824 7  93787447.58643  22903827.203                    22903837.949
 124721677.814 6  97185900.72244  23733763.602                    23733776.242
 106600270.717 8  83065175.97246  20285356.602                    20285363.414
 124820618.831 6  97262945.57743  23752593.188                    23752602.426
 109074697.627 8  84993311.14346  20756222.664                    20756230.250
 121232985.362 7  94467283.77044  23069879.109                    23069889.699
 120389208.434 7  93809797.35744  22909306.117                    22909312.199
 117160983.297 7  91294315.00345  22294988.211                    22294996.031
 114151409.591 7  88949199.70845  21722282.922                    21722291.852
 11  7 23 20 11  0.0000000  0  9G24G17G07G26G08G13G19G28G11
 120295142.896 7  93736640.26144  22891419.359                    22891429.863
 124623246.189 6  97109200.95344  23715032.531                    23715045.359
 106600050.611 7  83065004.46546  20285314.289                    20285321.789
 124743725.971 7  97203029.14343  23737959.836                    23737970.336
 109019646.279 8  84950413.99246  20745746.688                    20745754.270
 121342195.975 7  94552382.75444  23090661.227                    23090671.996
 120483485.981 7  93883260.34444  22927246.094                    22927252.805
 117130301.179 7  91270406.90245  22289149.766                    22289157.719
 114119604.697 7  88924416.72145  21716231.250                    21716239.148
 11  7 23 20 11 30.0000000  0  9G24G17G07G26G08G13G19G28G11
 120230201.141 7  93686036.41444  22879061.000                    22879071.793
 124525006.319 6  97032650.60944  23696337.977                    23696350.848
 106600259.892 8  83065167.53546  20285354.289                    20285361.762
 124667290.665 6  97143469.19943  23723415.422                    23723424.402
 108964874.076 8  84907734.37746  20735324.102                    20735331.785
 121451536.488 7  94637582.97244  23111467.781                    23111478.992
 120578013.474 7  93956918.10744  22945234.383                    22945240.629
 117099719.181 7  91246576.80345  22283330.195                    22283338.074
 114088308.774 7  88900030.32845  21710275.977                    21710283.816
 11  7 23 20 12  0.0000000  0  9G24G17G07G26G08G13G19G28G11
 120165523.525 7  93635638.40444  22866753.320                    22866763.984
 124426959.642 7  96956250.76544  23677680.531                    23677692.715
 106600899.853 7  83065666.21246  20285476.016                    20285483.254
 124591315.054 6  97084267.48743  23708956.672                    23708966.820
 108910383.207 8  84865273.98546  20724954.500                    20724962.816
 121561003.674 7  94722881.91344  23132299.219                    23132310.750
 120672787.939 7  94030768.31844  22963269.180                    22963275.797
 117069236.393 7  91222824.01445  22277529.234                    22277536.867
 114057523.325 7  88876041.72845  21704417.203                    21704425.152
 11  7 23 20 12 30.0000000  0  9G24G17G07G26G08G13G19G28G11
 120101113.254 7  93585448.71544  22854495.961                    22854506.766
 124329108.176 7  96880003.03743  23659060.320                    23659071.078
 106601971.963 7  83066501.62046  20285680.164                    20285687.254
 124515801.999 6  97025426.17743  23694587.547                    23694597.723
 108856176.497 8  84823035.01946  20714639.492                    20714647.141
 121670595.004 7  94808277.56144  23153153.797                    23153164.719
 120767806.494 7  94104808.72044  22981350.711                    22981357.375
 117038852.423 7  91199148.23945  22271747.680                    22271755.434
 114027250.284 7  88852452.39445  21698656.414                    21698664.504
 11  7 23 20 13  0.0000000  0  9G24G17G07G26G08G13G19G28G11
 120036973.988 7  93535470.19644  22842291.297                    22842301.570
 124231454.648 7  96803909.53043  23640477.359                    23640488.527
 106603478.404 8  83067675.47146  20285966.680                    20285974.164
 124440754.619 6  96966947.71643  23680306.352                    23680316.559
 108802256.616 8  84781019.55246  20704378.938                    20704387.277
 121780307.788 7  94893767.86043  23174031.719                    23174042.258
 120863067.137 7  94179037.75444  22999477.883                    22999484.922
 117008567.123 7  91175549.32345  22265984.125                    22265992.008
 113997492.129 7  88829264.26945  21692993.609                    21693001.961
 11  7 23 20 13 30.0000000  0  9G24G17G07G26G08G13G19G28G11
 119973107.240 7  93485704.04244  22830137.594                    22830148.457
 124133999.423 7  96727970.54643  23621931.734                    23621942.547
 106605418.436 7  83069187.18846  20286335.758                    20286343.250
 124366174.059 6  96908833.04343  23666114.023                    23666124.184
 108748624.537 8  84739228.33546  20694172.922                    20694180.813
 121890137.511 7  94979349.28543  23194931.781                    23194942.234
 120958565.690 7  94253452.18444  23017651.570                    23017657.746
 116978378.249 7  91152025.56545  22260239.695                    22260246.789
 113968249.497 7  88806477.86245  21687428.781                    21687437.176
 11  7 23 20 14  0.0000000  0  9G24G17G07G26G08G13G19G28G11
 119909517.180 7  93436153.45744  22818036.742                    22818047.512
 124036745.256 7  96652188.22643  23603425.297                    23603436.285
 106607794.658 7  83071038.78146  20286787.672                    20286795.555
 124292063.449 6  96851084.59643  23652011.148                    23652021.820
 108695283.866 8  84697664.19046  20684022.836                    20684029.844
 122000082.153 7  95065020.28043  23215853.023                    23215863.953
 121054300.425 7  94328050.64344  23035869.070                    23035875.699
 116948286.115 7  91128577.18045  22254513.258                    22254521.051
 113939525.138 7  88784095.29845  21681962.875                    21681970.852
 11  7 23 20 14 30.0000000  0  9G24G17G07G26G08G13G19G28G11
 119846206.525 7  93386820.60344  22805988.313                    22805999.895
 123939694.120 6  96576564.10743  23584956.750                    23584967.160
 106610608.519 8  83073231.40546  20287323.742                    20287331.234
 124218425.271 6  96793704.22043  23637998.328                    23638007.906
 108642236.790 8  84656328.81846  20673928.000                    20673936.148
 122110138.615 6  95150778.38943  23236796.117                    23236807.051
 121150269.290 6  94402831.54044  23054131.047                    23054138.156
 116918289.843 7  91105203.49745  22248805.109                    22248812.422
 113911320.471 7  88762117.67645  21676595.617                    21676603.629
 11  7 23 20 15  0.0000000  0  9G24G17G07G26G08G13G19G28G11
 119783178.400 7  93337707.89544  22793994.391                    22794005.719
 123842847.567 7  96501099.45844  23566527.781                    23566539.055
 106613860.708 8  83075765.57346  20287942.688                    20287949.559
 124145261.983 6  96736693.98043  23624075.555                    23624085.734
 108589485.940 8  84615224.28146  20663889.781                    20663897.961
 122220303.801 6  95236621.18743  23257760.797                    23257771.230
 121246467.948 6  94477791.49544  23072436.875                    23072443.520
 116888388.447 7  91081903.74245  22243114.977                    22243122.820
 113883637.214 7  88740546.35645  21671327.516                    21671335.434
 11  7 23 20 15 30.0000000  0  9G24G17G07G26G08G13G19G28G11
 119720435.925 7  93288817.78544  22782055.078                    22782066.035
 123746207.655 6  96425795.82944  23548136.375                    23548148.219
 106617552.561 7  83078642.33846  20288645.180                    20288652.402
 124072576.313 6  96680055.82743  23610244.297                    23610253.668
 108537034.064 8  84574352.70046  20653908.273                    20653916.211
 122330574.670 7  95322546.37243  23278744.773                    23278755.703
 121342893.987 6  94552928.61844  23090787.047                    23090793.266
 116858581.455 7  91058677.53945  22237443.063                    22237450.496
 113856477.639 7  88719383.09345  21666159.609                    21666167.598
 11  7 23 20 16  0.0000000  0  9G24G17G07G26G08G13G19G28G11
 119657981.764 7  93240152.32344  22770170.188                    22770181.547
 123649775.954 6  96350654.42844  23529786.641                    23529798.570
 106621685.297 8  83081862.64546  20289431.633                    20289438.980
 124000370.074 6  96623791.24943  23596503.852                    23596513.367
 108484883.008 8  84533715.53946  20643984.586                    20643992.004
 122440947.651 7  95408551.12744  23299747.898                    23299759.180
 121439545.271 6  94628241.28944  23109178.977                    23109185.941
 116828868.287 7  91035524.46045  22231788.852                    22231796.160
 113829843.116 7  88698628.95845  21661091.078                    21661099.055
 11  7 23 20 16 30.0000000  0  9G24G17G07G26G08G13G19G28G11
 119595818.933 7  93191713.83144  22758341.320                    22758352.090
 123553554.211 6  96275676.68844  23511475.984                    23511488.520
 106626259.870 8  83085427.24746  20290301.563                    20290309.668
 123928645.698 6  96567902.19843  23582854.930                    23582864.773
 108433034.777 8  84493314.34346  20634117.898                    20634125.816
 122551420.215 7  95494633.43843  23320770.078                    23320781.477
 121536418.312 6  94703726.73144  23127613.266                    23127619.746
 116799247.248 7  91012443.16145  22226151.422                    22226159.176
 113803734.695 7  88678284.77945  21656122.672                    21656130.363
 11  7 23 20 17  0.0000000  0  9G24G17G07G26G08G13G19G28G11
 119533950.766 7  93143504.98244  22746568.070                    22746578.766
 123457544.952 7  96200864.48644  23493205.797                    23493217.367
 106631277.769 7  83089337.29346  20291256.828                    20291264.145
 123857406.190 6  96512390.90843  23569299.656                    23569308.332
 108381492.898 8  84453151.85446  20624310.094                    20624317.746
 122661989.670 7  95580791.25644  23341811.586                    23341822.586
 121633510.799 6  94779383.17244  23146089.406                    23146095.621
 116769718.541 7  90989433.81545  22220532.664                    22220540.664
 113778155.010 7  88658352.60245  21651255.383                    21651262.668
 11  7 23 20 17 30.0000000  0  9G24G17G07G26G08G13G19G28G11
 119472380.157 7  93095528.00344  22734850.813                    22734862.715
 123361749.480 7  96126218.88444  23474976.773                    23474988.520
 106636739.731 8  83093593.36346  20292296.039                    20292303.168
 123786653.452 6  96457258.98143  23555834.195                    23555844.828
 108330259.625 8  84413229.84046  20614560.383                    20614568.801
 122772652.391 7  95667021.73544  23362870.031                    23362881.195
 121730819.896 6  94855208.41944  23164606.555                    23164612.820
 116740280.966 7  90966495.48545  22214931.227                    22214938.641
 113753105.241 7  88638833.33245  21646488.070                    21646496.203
 11  7 23 20 18  0.0000000  0  9G24G17G07G26G08G13G19G28G11
 119411109.996 7  93047785.16144  22723191.906                    22723202.906
 123266169.360 7  96051741.09944  23456788.297                    23456799.449
 106642647.045 8  83098196.45346  20293420.641                    20293427.668
 123716389.721 6  96402508.05043  23542463.883                    23542473.602
 108279336.713 8  84373549.66846  20604870.188                    20604878.105
 122883405.294 7  95753322.49944  23383945.766                    23383957.105
 121828342.665 6  94931200.14844  23183165.344                    23183171.027
 116710933.672 7  90943627.49645  22209346.469                    22209353.570
 113728586.896 7  88619728.16745  21641822.250                    21641830.496
 11  7 23 20 18 30.0000000  0  9G24G17G07G26G08G13G19G28G11
 119350143.143 7  93000278.60944  22711589.984                    22711601.191
 123170806.606 7  95977432.69144  23438641.219                    23438652.555
 106649000.974 8  83103147.56646  20294629.094                    20294636.605
 123646617.305 7  96348139.99343  23529186.727                    23529196.129
 108228726.846 8  84334113.42346  20595239.102                    20595246.863
 122994245.527 7  95839691.24843  23405037.633                    23405049.762
 121926076.226 7  95007356.13144  23201762.641                    23201769.262
 116681676.032 7  90920829.37845  22203778.563                    22203786.371
 113704601.488 7  88601038.26445  21637258.500                    21637265.605
 11  7 23 20 19  0.0000000  0  9G24G17G07G26G08G13G19G28G11
 119289482.920 7  92953011.02644  22700046.523                    22700057.508
 123075663.033 7  95903295.04944  23420535.656                    23420546.609
 106655802.920 8  83108447.78446  20295923.461                    20295931.391
 123577338.992 7  96294156.95143  23516004.000                    23516013.160
 108178432.486 8  84294923.03646  20585668.508                    20585677.023
 123105170.390 6  95926125.99143  23426145.805                    23426157.793
 122024017.986 6  95083674.34244  23220400.281                    23220406.227
 116652507.780 7  90898100.90745  22198228.000                    22198235.473
 113681150.781 7  88582765.02145  21632795.602                    21632804.086
 11  7 23 20 19 30.0000000  0  9G24G17G07G26G08G13G19G28G11
 119229132.628 6  92905984.95744  22688562.688                    22688573.375
 122980740.950 7  95829330.02144  23402472.742                    23402483.332
 106663054.091 8  83114098.04346  20297303.773                    20297311.195
 123508557.046 7  96240560.72343  23502914.164                    23502924.586
 108128456.814 8  84255980.96646  20576158.766                    20576166.836
 123216177.153 6  96012624.51543  23447270.328                    23447282.180
 122122165.594 7  95160152.96744  23239077.344                    23239083.180
 116623428.183 7  90875441.51845  22192694.984                    22192701.820
 113658236.881 7  88564910.06345  21628435.461                    21628443.063
 11  7 23 20 20  0.0000000  0  9G24G17G07G26G08G13G19G28G11
 119169094.013 7  92859201.77344  22677137.406                    22677148.309
 122886041.009 7  95755538.07444  23384451.492                    23384462.172
 106670754.518 8  83120098.35746  20298768.984                    20298776.344
 123440273.136 6  96187352.51943  23489921.086                    23489930.234
 108078801.319 8  84217288.38546  20566709.570                    20566717.316
 123327261.991 7  96099183.92743  23468408.617                    23468420.652
 122220515.853 6  95236789.49544  23257792.219                    23257798.953
 116594435.858 7  90852850.12945  22187177.594                    22187184.586
 113635860.586 7  88547474.01645  21624177.094                    21624184.859
 11  7 23 20 20 30.0000000  0  9G24G17G07G26G08G13G19G28G11
 119109370.788 7  92812664.29944  22665772.250                    22665783.066
 122791565.842 7  95681921.23144  23366473.563                    23366483.871
 106678906.042 8  83126450.20146  20300320.039                    20300327.766
 123372489.799 6  96134534.37243  23477021.445                    23477031.801
 108029469.041 8  84178847.65746  20557322.070                    20557329.953
 123438422.358 6  96185802.15243  23489562.703                    23489573.008
 122319066.227 6  95313581.92844  23276546.328                    23276553.277
 116565530.679 7  90830326.64345  22181677.063                    22181684.234
 113614023.598 7  88530458.21545  21620021.625                    21620029.230
 11  7 23 20 21  0.0000000  0  9G24G17G07G26G08G13G19G28G11
 119049966.209 7  92766375.12944  22654467.883                    22654478.574
 122697317.564 7  95608481.23244  23348538.102                    23348549.215
 106687510.006 7  83133154.59946  20301957.555                    20301964.641
 123305209.788 6  96082108.38643  23464218.672                    23464228.727
 107980462.220 8  84140660.53646  20547996.180                    20548003.809
 123549655.348 6  96272477.02343  23510728.922                    23510740.891
 122417814.172 6  95390528.36544  23295337.500                    23295343.844
 116536712.040 7  90807870.60145  22176192.930                    22176200.422
 113592727.803 7  88513864.12445  21615968.898                    21615977.414
 11  7 23 20 21 30.0000000  0  9G24G17G07G26G08G13G19G28G11
 118990882.348 7  92720335.87044  22643224.031                    22643235.129
 122603296.656 7  95535218.35644  23330646.172                    23330657.227
 106696566.640 8  83140211.71346  20303681.109                    20303688.590
 123238434.486 6  96030075.72743  23451511.672                    23451521.402
 107931782.856 8  84102728.58246  20538732.938                    20538741.109
 123660957.184 7  96359205.49143  23531909.813                    23531920.695
 122516756.531 6  95467626.25644  23314165.188                    23314171.793
 116507978.588 7  90785480.92345  22170724.984                    22170732.570
 113571973.988 7  88497692.33845  21612019.516                    21612027.449
 11  7 23 20 22  0.0000000  0  9G24G17G07G26G08G13G19G28G11
 118932122.668 7  92674549.22044  22632043.016                    22632053.094
 122509505.503 6  95462134.53743  23312798.195                    23312809.160
 106706077.543 8  83147622.80646  20305490.680                    20305498.172
 123172166.522 6  95978438.39643  23438901.422                    23438911.195
 107883433.651 8  84065053.88546  20529532.375                    20529540.246
 123772325.493 7  96445985.77743  23553102.789                    23553113.992
 122615890.720 6  95544873.65944  23333030.266                    23333036.395
 116479329.957 7  90763157.35045  22165272.805                    22165280.270
 113551763.940 7  88481944.27745  21608173.844                    21608181.348
 11  7 23 20 22 30.0000000  0  9G24G17G07G26G08G13G19G28G11
 118873689.843 7  92629017.27944  22620922.969                    22620933.816
 122415946.021 6  95389231.25044  23294994.578                    23295005.035
 106716043.435 8  83155388.42846  20307387.289                    20307394.680
 123106408.151 6  95927198.15543  23426387.672                    23426398.016
 107835417.297 8  84027638.55746  20520394.898                    20520402.883
 123883757.171 7  96532815.41743  23574306.914                    23574319.504
 122715214.009 6  95622268.38944  23351930.469                    23351937.133
 116450765.520 7  90740899.36745  22159837.250                    22159845.152
 113532098.928 7  88466620.89945  21604431.672                    21604439.379
 11  7 23 20 23  0.0000000  0  9G24G17G07G26G08G13G19G28G11
 118815587.139 7  92583742.56544  22609867.047                    22609877.152
 122322620.026 7  95316509.86844  23277234.523                    23277245.793
 106726465.732 8  83163509.70146  20309370.633                    20309377.613
 123041161.620 6  95876356.73543  23413971.953                    23413981.742
 107787736.364 8  83990484.58646  20511321.992                    20511329.965
 123995249.702 6  96619692.49343  23595524.047                    23595535.668
 122814724.013 6  95699808.58444  23370867.234                    23370873.406
 116422284.706 7  90718706.55845  22154418.125                    22154425.215
 113512980.744 7  88451723.65145  21600793.531                    21600801.199
 11  7 23 20 23 30.0000000  0  9G24G17G07G26G08G13G19G28G11
 118757817.241 7  92538727.15544  22598873.102                    22598883.391
 122229529.211 6  95243971.74544  23259520.258                    23259531.180
 106737345.253 7  83171987.23746  20311440.766                    20311448.285
 122976429.039 6  95825915.78143  23401653.297                    23401663.543
 107740392.892 8  83953593.57946  20502312.813                    20502320.672
 124106799.818 6  96706614.40243  23616751.422                    23616763.773
 122914417.743 6  95777491.95844  23389838.000                    23389844.539
 116393886.771 7  90696578.33145  22149013.906                    22149021.488
 113494410.412 7  88437253.29945  21597259.539                    21597267.215
 11  7 23 20 24  0.0000000  0  9G24G17G07G26G08G13G19G28G11
 118700382.908 7  92493973.23444  22587943.891                    22587954.066
 122136674.895 7  95171617.90944  23241850.656                    23241861.000
 106748682.728 8  83180821.63846  20313598.031                    20313606.066
 122912212.296 6  95775876.81943  23389433.820                    23389443.457
 107693389.454 8  83916967.53946  20493368.211                    20493375.801
 124218404.247 6  96793578.63343  23637989.125                    23638001.227
 123014292.640 6  95855316.52444  23408843.414                    23408850.441
 116365570.970 7  90674514.10145  22143625.492                    22143633.266
 113476389.521 7  88423211.06445  21593830.680                    21593838.090
 11  7 23 20 24 30.0000000  0  9G24G17G07G26G08G13G19G28G11
 118643287.288 7  92449483.26144  22577078.750                    22577088.605
 122044059.007 7  95099449.84744  23224226.297                    23224236.574
 106760479.391 8  83190013.83846  20315843.156                    20315850.531
 122848513.885 6  95726241.73243  23377312.508                    23377322.324
 107646728.972 8  83880608.73646  20484489.117                    20484496.324
 124330060.376 6  96880583.12443  23659237.047                    23659249.391
 123114346.104 6  95933280.21644  23427883.320                    23427890.535
 116337336.811 7  90652513.49745  22138252.734                    22138260.156
 113458919.264 7  88409597.91445  21590505.852                    21590513.844
 11  7 23 20 25  0.0000000  0  9G24G17G07G26G08G13G19G28G11
 118586533.257 7  92405259.46844  22566278.391                    22566288.648
 121951683.315 7  95027468.98844  23206647.602                    23206658.371
 106772736.097 8  83199564.50746  20318175.336                    20318183.031
 122785335.578 6  95677012.00043  23365289.070                    23365299.824
 107600413.810 8  83844519.00846  20475675.477                    20475683.438
 124441765.239 6  96967625.61643  23680493.875                    23680505.941
 123214575.275 7  96011380.81344  23446956.195                    23446962.809
 116309183.281 7  90630575.70445  22132895.625                    22132902.617
 113442000.967 7  88396414.84745  21587286.930                    21587294.297
 11  7 23 20 25 30.0000000  0  9G24G17G07G26G08G13G19G28G11
 118530123.377 6  92361303.82144  22555544.141                    22555554.754
 121859549.478 7  94955676.54844  23189114.820                    23189125.344
 106785453.405 8  83209474.09746  20320595.320                    20320602.742
 122722679.612 6  95628189.23243  23353366.344                    23353376.227
 107554445.829 8  83808699.81746  20466928.016                    20466935.996
 124553515.643 6  97054703.60043  23701759.398                    23701772.063
 123314977.380 6  96089616.17944  23466062.758                    23466069.164
 116281109.752 7  90608700.25845  22127553.117                    22127560.492
 113425635.769 7  88383662.77245  21584172.461                    21584180.168
 11  7 23 20 26  0.0000000  0  9G24G17G07G26G08G13G19G28G11
 118474060.932 7  92317618.89644  22544875.281                    22544886.359
 121767659.415 7  94884074.06544  23171628.703                    23171639.277
 106798632.926 8  83219743.84846  20323103.484                    20323110.816
 122660548.235 6  95579775.19043  23341544.070                    23341553.512
 107508827.832 8  83773153.33046  20458247.328                    20458254.977
 124665308.863 6  97141814.89543  23723033.406                    23723046.008
 123415549.788 6  96167984.24344  23485200.445                    23485207.656
 116253116.029 7  90586886.99345  22122225.930                    22122233.426
 113409825.286 7  88371342.93045  21581163.461                    21581171.484
 11  7 23 20 26 30.0000000  0  9G24G17G07G26G08G13G19G28G11
 118418348.480 7  92274206.69644  22534273.211                    22534284.270
 121676014.586 7  94812662.68044  23154189.016                    23154199.906
 106812275.328 7  83230374.27846  20325699.609                    20325707.012
 122598943.317 6  95531771.39243  23329819.852                    23329830.297
 107463561.942 8  83737881.20946  20449633.398                    20449640.977
 124777141.809 7  97228957.19243  23744314.289                    23744327.023
 123516290.085 6  96246483.14544  23504370.703                    23504377.516
 116225201.118 7  90565135.14545  22116913.875                    22116921.520
 113394570.524 7  88359456.13245  21578260.477                    21578268.574
 11  7 23 20 27  0.0000000  0  9G24G17G07G26G08G13G19G28G11
 118362988.421 7  92231069.08544  22523739.398                    22523749.746
 121584616.497 7  94741443.56644  23136796.789                    23136807.000
 106826380.857 7  83241365.59346  20328383.617                    20328391.137
 122537866.387 6  95484179.02643  23318197.336                    23318207.297
 107418650.373 8  83702885.19346  20441086.898                    20441094.781
 124889011.418 7  97316128.04443  23765603.039                    23765615.352
 123617195.215 6  96325110.47344  23523572.406                    23523579.211
 116197364.096 7  90543443.98845  22111616.852                    22111624.648
 113379872.441 7  88348003.11645  21575464.289                    21575471.348
 11  7 23 20 27 30.0000000  0  9G24G17G07G26G08G13G19G28G11
 118307984.264 7  92188208.80544  22513272.563                    22513282.664
 121493467.015 7  94670418.21044  23119451.656                    23119461.473
 106840950.946 8  83252718.90046  20331156.383                    20331163.727
 122477320.162 6  95437000.17044  23306675.922                    23306685.855
 107374095.939 8  83668167.46046  20432608.234                    20432616.316
 125000914.893 7  97403325.29043  23786897.172                    23786910.719
 123718262.858 6  96403864.43144  23542804.727                    23542811.535
 116169604.739 7  90521813.34445  22106334.281                    22106341.785
 113365732.114 7  88336984.71145  21572772.961                    21572780.738
 11  7 23 20 28  0.0000000  0  9G24G17G07G26G08G13G19G28G11
 118253338.546 7  92145627.80644  22502873.664                    22502884.164
 121402567.484 7  94599587.58244  23102153.023                    23102163.922
 106855986.344 8  83264434.78946  20334017.453                    20334025.008
 122417306.373 6  95390236.20843  23295256.156                    23295265.641
 107329901.071 8  83633729.90846  20424198.133                    20424205.867
 125112849.132 6  97490546.50143  23808198.531                    23808210.672
 123819490.357 7  96482742.96643  23562067.875                    23562074.676
 116141922.319 7  90500242.66045  22101066.977                    22101074.043
 113352151.241 7  88326402.25145  21570188.586                    21570195.777
 11  7 23 20 28 30.0000000  0  9G24G17G07G26G08G13G19G28G11
 118199054.087 7  92103328.32144  22492543.133                    22492554.074
 121311919.926 7  94528953.31744  23084903.906                    23084914.297
 106871487.546 8  83276513.64046  20336966.898                    20336974.738
 122357826.996 6  95343888.65243  23283938.031                    23283947.484
 107286068.203 8  83599574.44246  20415857.281                    20415865.625
 125224811.583 6  97577789.68643  23829503.836                    23829516.641
 123920874.744 7  96561743.74343  23581360.688                    23581367.047
 116114315.944 7  90478731.22445  22095813.211                    22095820.879
 113339130.669 7  88316256.37745  21567710.945                    21567718.770
 11  7 23 20 29  0.0000000  0  9G24G17G07G26G08G13G19G28G11
 118145133.580 7  92061312.41744  22482282.219                    22482293.602
 121221525.841 7  94458516.53544  23067702.219                    23067712.109
 106887455.667 8  83288956.32146  20340005.742                    20340013.316
 122298883.694 6  95297958.85043  23272721.523                    23272730.469
 107242599.529 8  83565702.75746  20407585.672                    20407593.285
 125336798.924 6  97665052.28443  23850814.813                    23850827.008
 124022413.406 7  96640864.73843  23600682.664                    23600689.922
 116086785.215 7  90457278.73145  22090574.117                    22090581.586
 113326671.526 7  88306547.98545  21565339.906                    21565347.645
 11  7 23 20 29 30.0000000  0  9G24G17G07G26G08G13G19G28G11
 118091580.167 7  92019582.56944  22472091.508                    22472102.297
 121131387.240 7  94388278.84944  23050549.141                    23050559.289
 106903891.909 8  83301763.77246  20343133.633                    20343141.277
 122240479.227 6  95252448.91443  23261607.000                    23261616.363
 107199498.071 8  83532117.21846  20399383.211                    20399391.613
 125448808.853 6  97752332.49143  23872129.172                    23872141.973
 124124104.215 7  96720104.28243  23620034.305                    23620041.242
 116059329.773 7  90435884.91745  22085349.172                    22085357.258
 113314775.112 7  88297278.09245  21563076.250                    21563083.723
 11  7 23 20 30  0.0000000  0  9G24G17G07G26G08G13G19G28G11
 118038396.180 7  91978140.58744  22461970.953                    22461981.531
 121041505.299 7  94318241.13644  23033444.914                    23033455.199
 106920796.682 8  83314936.31946  20346350.289                    20346358.117
 122182614.696 7  95207359.70943  23250595.211                    23250605.457
 107156765.702 8  83498819.28646  20391251.844                    20391259.742
 125560837.858 6  97839627.53543  23893448.492                    23893461.266
 124225944.360 7  96799460.19844  23639414.313                    23639419.957
 116031948.609 7  90414548.96745  22080139.398                    22080146.773
 113303442.387 7  88288447.42545  21560919.398                    21560927.215
 11  7 23 20 30 30.0000000  0  9G24G17G07G26G08G13G19G28G11
 117985584.582 7  91936988.77144  22451921.797                    22451931.480
 120951881.771 7  94248404.76644  23016390.227                    23016400.219
 106938170.363 8  83328474.25746  20349656.938                    20349663.949
 122125292.472 6  95162693.06943  23239687.469                    23239696.742
 107114405.055 8  83465811.00446  20383190.828                    20383198.941
 125672883.305 6  97926935.37043  23914770.156                    23914782.945
 124327931.116 7  96878930.37544  23658821.703                    23658828.172
 116004641.215 7  90393270.50745  22074943.039                    22074950.309
 113292674.118 7  88280056.60245  21558870.164                    21558877.797
 11  7 23 20 31  0.0000000  0  9G24G17G07G26G08G13G19G28G11
 117933148.037 7  91896129.19344  22441942.633                    22441953.121
 120862517.861 7  94178770.73445  22999384.703                    22999394.738
 106956013.946 8  83342378.33946  20353052.258                    20353059.359
 122068513.765 6  95118449.94343  23228883.047                    23228892.449
 107072418.259 8  83433094.03346  20375201.172                    20375208.855
 125784942.121 6  98014253.60343  23936094.492                    23936107.863
 124430061.583 7  96958512.52844  23678255.883                    23678262.773
 115977406.834 7  90372048.95245  22069760.328                    22069767.863
 113282471.313 7  88272106.38845  21556929.219                    21556936.813
 11  7 23 20 31 30.0000000  0  9G24G17G07G26G08G13G19G28G11
 117881089.417 7  91855564.09644  22432036.117                    22432046.512
 120773415.649 7  94109340.55844  22982429.086                    22982438.762
 106974328.332 8  83356649.28846  20356537.281                    20356544.633
 122012281.222 6  95074632.40943  23218181.688                    23218191.656
 107030808.106 8  83400670.54846  20367283.281                    20367291.121
 125897011.358 6  98101579.96643  23957420.992                    23957434.723
 124532333.559 7  97038204.92244  23697717.406                    23697725.406
 115950245.181 7  90350884.05545  22064591.109                    22064598.609
 113272835.315 7  88264597.85445  21555094.789                    21555102.840
 11  7 23 20 32  0.0000000  0  9G24G17G07G26G08G13G19G28G11
 117829411.048 7  91815295.30844  22422202.359                    22422212.684
 120684576.394 7  94040115.30845  22965523.648                    22965533.297
 106993113.633 8  83371287.18046  20360112.219                    20360119.723
 121956595.876 6  95031241.26943  23207585.445                    23207594.750
 106989576.555 8  83368542.08046  20359436.875                    20359444.707
 126009088.057 6  98188912.10943  23978749.023                    23978762.695
 124634744.162 7  97118005.33144  23717205.500                    23717212.852
 115923155.130 7  90329774.94845  22059436.328                    22059443.832
 113263766.676 7  88257531.39045  21553369.492                    21553376.957
 11  7 23 20 32 30.0000000  0  9G24G17G07G26G08G13G19G28G11
 117778116.308 7  91775325.43844  22412441.344                    22412451.094
 120596002.078 7  93971096.52345  22948668.375                    22948677.457
 107012371.286 8  83386293.14446  20363776.758                    20363784.215
 121901460.315 6  94988278.51043  23197093.852                    23197103.078
 106948726.505 8  83336710.88146  20351663.055                    20351671.418
 126121169.906 6  98276248.28543  24000076.859                    24000090.348
 124737291.349 7  97197912.20244  23736719.711                    23736726.465
 115896136.827 7  90308721.75645  22054295.063                    22054302.625
 113255266.627 7  88250908.00145  21551751.813                    21551759.566
 11  7 23 20 33  0.0000000  0  9G24G17G07G26G08G13G19G28G11
 117727207.284 7  91735656.11744  22402754.055                    22402763.867
 120507694.034 7  93902285.21745  22931863.539                    22931873.422
 107032101.822 8  83401667.57546  20367531.148                    20367538.625
 121846876.007 7  94945745.31743  23186706.109                    23186715.957
 106908259.603 8  83305178.23946  20343962.836                    20343970.922
 126233253.718 6  98363585.99543  24021405.789                    24021419.523
 124839971.979 6  97277923.04144  23756259.141                    23756266.289
 115869189.429 7  90287723.81445  22049166.875                    22049174.480
 113247335.950 7  88244728.26045  21550242.602                    21550250.480
 11  7 23 20 33 30.0000000  0  9G24G17G07G26G08G13G19G28G11
 117676687.144 7  91696289.85244  22393139.492                    22393149.660
 120419654.081 7  93833682.80945  22915109.953                    22915119.316
 107052306.054 8  83417411.12646  20371376.047                    20371383.461
 121792844.706 6  94903643.05243  23176423.898                    23176434.004
 106868179.024 8  83273946.62146  20336335.359                    20336343.422
 126345336.700 6  98450923.08643  24042735.188                    24042748.074
 124942784.008 6  97358036.25944  23775824.359                    23775830.570
 115842312.379 7  90266780.70145  22044052.281                    22044059.945
 113239975.704 7  88238993.03445  21548841.734                    21548849.254
 11  7 23 20 34  0.0000000  0  9G24G17G07G26G08G13G19G28G11
 117626558.491 7  91657228.61644  22383600.547                    22383610.738
 120331883.298 7  93765290.13645  22898407.258                    22898417.258
 107072984.262 8  83433524.00546  20375311.086                    20375318.492
 121739367.985 6  94861972.90243  23166249.102                    23166257.645
 106828486.956 8  83243017.74446  20328782.195                    20328790.418
 126457415.704 6  98538257.07543  24064063.461                    24064076.719
 125045724.492 6  97438249.53843  23795413.320                    23795420.383
 115815504.932 7  90245891.81645  22038951.438                    22038958.219
 113233186.581 7  88233702.82645  21547550.094                    21547557.531
 11  7 23 20 34 30.0000000  0  9G24G17G07G26G08G13G19G28G11
 117576823.992 7  91618474.53344  22374136.266                    22374146.508
 120244383.641 7  93697108.71744  22881756.750                    22881767.117
 107094137.270 8  83450006.85946  20379336.430                    20379343.602
 121686447.714 7  94820736.36843  23156177.969                    23156187.668
 106789185.607 8  83212393.31646  20321303.414                    20321311.918
 126569488.032 6  98625585.80843  24085390.688                    24085403.594
 125148791.064 6  97518561.08644  23815025.836                    23815032.563
 115788766.361 7  90225056.58045  22033862.641                    22033870.070
 113226969.687 7  88228858.51345  21546367.008                    21546374.563
 11  7 23 20 35  0.0000000  0  9G24G17G07G26G08G13G19G28G11
 117527486.003 7  91580029.38844  22364747.734                    22364757.633
 120157156.105 7  93629139.32545  22865157.633                    22865167.785
 107115765.145 8  83466859.74146  20383451.914                    20383459.133
 121634085.266 6  94779934.50543  23146213.344                    23146222.898
 106750277.061 8  83182074.98746  20313899.523                    20313907.508
 126681550.657 6  98712907.04242  24106715.609                    24106729.094
 125251980.653 6  97598968.50743  23834662.906                    23834669.121
 115762096.085 7  90204274.58145  22028787.617                    22028795.496
 113221325.234 8  88224460.25045  21545293.352                    21545300.500
 11  7 23 20 35 30.0000000  0  9G24G17G07G26G08G13G19G28G11
 117478547.388 7  91541895.48044  22355434.289                    22355444.586
 120070202.581 7  93561383.46944  22848611.070                    22848621.168
 107137869.091 8  83484083.58946  20387658.102                    20387665.559
 121582282.611 7  94739568.83744  23136355.969                    23136365.086
 106711764.104 8  83152064.89446  20306571.031                    20306579.063
 126793601.287 6  98800218.83343  24128037.875                    24128052.250
 125355291.106 6  97679470.12543  23854321.258                    23854328.238
 115735494.110 7  90183545.79645  22023725.391                    22023732.969
 113216254.345 7  88220508.93345  21544327.977                    21544335.684
 11  7 23 20 36  0.0000000  0  9G24G17G07G26G08G13G19G28G11
 117430010.923 7  91504074.93344  22346198.641                    22346208.047
 119983524.716 7  93493842.37945  22832117.078                    22832126.492
 107160449.609 8  83501678.78246  20391954.984                    20391961.996
 121531041.584 7  94699640.76943  23126605.305                    23126614.480
 106673649.192 8  83122364.96946  20299317.656                    20299325.742
 126905637.025 6  98887519.05843  24149358.320                    24149372.793
 125458720.029 6  97760064.05743  23874003.320                    23874010.473
 115708959.788 7  90162869.71745  22018676.016                    22018683.398
 113211757.970 7  88217005.27545  21543472.430                    21543480.066
 11  7 23 20 36 30.0000000  0  9G24G17G07G26G08G13G19G28G11
 117381878.948 7  91466569.56244  22337039.555                    22337048.656
 119897123.757 7  93426517.07845  22815675.211                    22815684.984
 107183507.028 7  83519645.59446  20396342.531                    20396350.211
 121480363.654 6  94660151.49943  23116961.531                    23116970.922
 106635934.325 8  83092976.77646  20292140.953                    20292148.832
 127017654.617 6  98974805.14343  24170674.695                    24170689.297
 125562264.951 6  97840748.36543  23893707.375                    23893713.801
 115682492.144 7  90142245.60245  22013639.273                    22013646.605
 113207836.622 7  88213949.69745  21542726.188                    21542733.613
 11  7 23 20 37  0.0000000  0  9G24G17G07G26G08G13G19G28G11
 117334153.822 7  91429381.21644  22327957.547                    22327967.281
 119811001.129 7  93359408.63745  22799286.258                    22799296.555
 107207041.927 8  83537984.46546  20400821.211                    20400828.840
 121430249.995 7  94621101.94144  23107424.461                    23107434.449
 106598621.772 8  83063902.06446  20285040.500                    20285048.438
 127129651.247 6  99062074.86643  24191987.523                    24192001.316
 125665923.097 6  97921520.93043  23913432.648                    23913439.578
 115656090.497 7  90121672.90845  22008615.359                    22008622.344
 113204490.866 8  88211342.63145  21542089.742                    21542097.430
 11  7 23 20 37 30.0000000  0  9G24G17G07G26G08G13G19G28G11
 117286838.568 7  91392512.25644  22318954.234                    22318963.012
 119725158.368 7  93292518.27745  22782951.156                    22782960.695
 107231054.601 8  83556695.62646  20405390.516                    20405397.938
 121380702.517 7  94582493.55543  23097996.203                    23098005.574
 106561713.732 8  83035142.55846  20278017.289                    20278025.336
 127241623.854 6  99149325.92243  24213295.047                    24213310.008
 125769691.850 7  98002379.65043  23933179.656                    23933186.031
 115629754.561 7  90101151.41845  22003604.164                    22003611.094
 113201721.389 7  88209184.60945  21541562.461                    21541570.285
 11  7 23 20 38  0.0000000  0  9G24G17G07G26G08G13G19G28G11
 117239935.804 7  91355964.71544  22310028.492                    22310038.352
 119639597.038 7  93225847.21945  22766669.344                    22766678.844
 107255546.101 7  83575779.90546  20410051.344                    20410058.996
 121331722.832 7  94544327.58143  23088675.906                    23088685.293
 106525213.031 8  83006700.45546  20271070.969                    20271079.313
 127353570.143 6  99236556.41743  24234598.289                    24234612.695
 125873569.062 6  98083322.92244  23952947.398                    23952954.195
 115603484.204 7  90080681.02645  21998605.195                    21998612.453
 113199528.831 7  88207476.14845  21541145.313                    21541153.262
 11  7 23 20 38 30.0000000  0  9G24G17G07G26G08G13G19G28G11
 117193447.763 7  91319740.33044  22301181.727                    22301191.797
 119554318.400 7  93159396.44145  22750440.930                    22750451.031
 107280516.398 8  83595237.26246  20414803.008                    20414810.582
 121283312.430 7  94506605.23544  23079463.500                    23079473.457
 106489121.271 8  82978577.01746  20264203.078                    20264211.168
 127465486.953 6  99323763.96243  24255894.625                    24255909.758
 125977551.921 6  98164348.49844  23972734.586                    23972741.711
 115577278.382 7  90060260.93545  21993617.555                    21993625.313
 113197913.852 7  88206217.73845  21540838.398                    21540845.512
 11  7 23 20 39  0.0000000  0  9G24G17G07G26G08G13G19G28G11
 117147376.981 7  91283841.09044  22292414.750                    22292424.563
 119469324.035 7  93093167.17245  22734267.406                    22734276.344
 107305965.895 8  83615068.03546  20419645.906                    20419653.285
 121235472.466 7  94469327.37344  23070360.133                    23070369.246
 106453441.328 8  82950774.46346  20257413.508                    20257421.551
 127577371.638 6  99410946.45243  24277186.492                    24277200.992
 126081637.953 6  98245454.46744  23992541.266                    23992548.172
 115551136.863 7  90039890.93145  21988643.555                    21988651.051
 113196877.025 8  88205409.83645  21540640.273                    21540648.656
 11  7 23 20 39 30.0000000  0  9G24G17G07G26G08G13G19G28G11
 117101726.381 7  91248269.26744  22283727.711                    22283737.512
 119384615.859 7  93027160.91345  22718148.039                    22718157.348
 107331895.879 7  83635273.19646  20424579.836                    20424587.242
 121188205.233 7  94432495.80244  23061365.273                    23061374.262
 106418176.099 8  82923295.06846  20250702.805                    20250710.863
 127689222.017 6  99498102.19243  24298471.625                    24298485.582
 126185825.151 6  98326639.23944  24012367.328                    24012375.020
 115525059.612 7  90019571.00845  21983681.453                    21983688.301
 113196419.600 7  88205053.41645  21540553.492                    21540561.309
 11  7 23 20 40  0.0000000  0  9G24G17G07G26G08G13G19G28G11
 117056498.131 7  91213026.53944  22275121.258                    22275130.699
 119300195.205 7  92961378.70445  22702082.977                    22702092.125
 107358305.989 7  83655852.49446  20429606.023                    20429613.180
 121141511.672 7  94396111.23644  23052479.133                    23052488.910
 106383327.250 8  82896140.12146  20244071.398                    20244079.184
 127801034.544 6  99585228.45743  24319748.578                    24319763.668
 126290110.555 6  98407900.50343  24032212.195                    24032219.793
 115499045.363 7  89999300.18245  21978730.602                    21978738.055
 113196541.466 7  88205148.39745  21540576.711                    21540584.453
 11  7 23 20 40 30.0000000  0  9G24G17G07G26G08G13G19G28G11
 117011694.862 7  91178114.96744  22266595.227                    22266605.410
 119216062.710 7  92895821.02645  22686072.523                    22686081.914
 107385197.109 8  83676806.59946  20434723.055                    20434730.777
 121095393.062 7  94360174.66743  23043703.711                    23043713.113
 106348896.610 8  82869311.05446  20237519.188                    20237527.328
 127912806.503 6  99672323.07543  24341018.789                    24341033.125
 126394491.717 6  98489236.41443  24052075.688                    24052082.805
 115473093.698 7  89979078.12945  21973792.266                    21973799.852
 113197242.846 7  88205694.94445  21540710.086                    21540717.547
 11  7 23 20 41  0.0000000  0  9G24G17G07G26G08G13G19G28G11
 116967319.204 7  91143536.60345  22258150.695                    22258160.945
 119132220.238 7  92830489.36545  22670117.953                    22670127.594
 107412569.200 8  83698135.48546  20439931.680                    20439939.211
 121049850.870 7  94324687.26844  23035036.680                    23035046.320
 106314887.077 8  82842810.12746  20231047.555                    20231055.395
 128024535.666 6  99759384.41543  24362279.945                    24362294.953
 126498966.483 6  98570645.24643  24071956.000                    24071963.313
 115447204.393 7  89958904.66745  21968865.859                    21968872.953
 113198524.842 7  88206693.92045  21540953.570                    21540961.430
 11  7 23 20 41 30.0000000  0  9G24G17G07G26G08G13G19G28G11
 116923373.178 7  91109293.01444  22249788.234                    22249798.141
 119048668.874 7  92765384.51545  22654218.523                    22654228.105
 107440422.309 8  83719839.19946  20445232.250                    20445239.578
 121004886.571 7  94289650.18044  23026480.563                    23026490.109
 106281300.677 8  82816638.90946  20224656.203                    20224664.594
 128136218.724 6  99846409.76442  24383533.391                    24383548.504
 126603532.019 6  98652124.79743  24091854.484                    24091861.430
 115421376.592 7  89938779.13445  21963950.430                    21963958.008
 113200387.498 7  88208145.36145  21541308.570                    21541315.844
 11  7 23 20 42  0.0000000  0  9G24G17G07G26G08G13G19G28G11
 116879859.622 7  91075386.42644  22241507.406                    22241517.359
 118965410.313 7  92700507.83345  22638374.844                    22638384.645
 107468757.327 7  83741918.42146  20450624.031                    20450631.105
 120960501.648 7  94255064.53543  23018034.719                    23018044.094
 106248140.100 8  82790799.50846  20218345.969                    20218354.078
 128247853.013 6  99933397.12642  24404776.344                    24404791.688
 126708186.163 6  98733673.40243  24111769.398                    24111777.133
 115395609.902 7  89918701.20045  21959047.898                    21959055.090
 113202831.470 7  88210049.78445  21541773.914                    21541781.473
 11  7 23 20 42 30.0000000  0  9G24G17G07G26G08G13G19G28G11
 116836781.008 7  91041818.74445  22233310.570                    22233320.160
 118882446.142 7  92635860.53945  22622587.156                    22622596.887
 107497574.666 8  83764373.48346  20456107.875                    20456115.129
 120916697.460 6  94220931.44244  23009698.758                    23009708.410
 106215407.350 8  82765293.47246  20212117.070                    20212124.895
 128359436.082 6 100020344.55542  24426010.039                    24426026.180
 126812926.661 6  98815289.33143  24131701.063                    24131708.125
 115369904.491 7  89898671.03645  21954156.234                    21954162.898
 113205857.201 7  88212407.52645  21542349.523                    21542357.215
 11  7 23 20 43  0.0000000  0  9G24G17G07G26G08G13G19G28G11
 116794140.043 7  91008592.10144  22225195.477                    22225206.086
 118799778.131 7  92571444.01345  22606856.477                    22606865.469
 107526875.478 8  83787205.27046  20461683.883                    20461691.227
 120873475.805 7  94187252.23344  23001473.375                    23001483.648
 106183105.483 8  82740123.19246  20205970.336                    20205978.422
 128470965.488 6 100107250.18142  24447233.922                    24447249.785
 126917751.624 6  98896971.05743  24151648.242                    24151655.879
 115344260.150 8  89878688.44545  21949276.023                    21949283.480
 113209465.828 7  88215219.45545  21543036.031                    21543043.605
 11  7 23 20 43 30.0000000  0  9G24G17G07G26G08G13G19G28G11
 116751938.700 7  90975707.98044  22217165.289                    22217174.973
 118717406.921 7  92507258.75745  22591181.594                    22591190.496
 107556658.846 8  83810413.07246  20467351.039                    20467358.594
 120830837.242 7  94154027.42144  22993360.141                    22993369.273
 106151235.426 8  82715289.39546  20199905.352                    20199913.469
 128582437.836 6 100194111.33043  24468446.961                    24468462.902
 127022657.571 6  98978715.89143  24171611.219                    24171618.297
 115318675.514 7  89858752.38845  21944407.508                    21944414.180
 113213656.642 7  88218485.03245  21543833.375                    21543840.828
 11  7 23 20 44  0.0000000  0  9G24G17G07G26G08G13G19G28G11
 116710178.863 7  90943167.90145  22209218.398                    22209227.984
 118635333.405 7  92443305.45245  22575563.359                    22575572.348
 107586924.633 7  83833996.78546  20473110.828                    20473118.207
 120788782.658 7  94121257.61744  22985358.125                    22985366.695
 106119799.281 8  82690793.70346  20193923.594                    20193931.227
 128693849.990 6 100280925.58842  24489648.398                    24489663.805
 127127641.993 6  99060521.88643  24191589.609                    24191596.379
 115293149.745 7  89838862.19545  21939550.516                    21939556.762
 113218429.607 7  88222204.23545  21544741.672                    21544749.367
 11  7 23 20 44 30.0000000  0  9G24G17G07G26G08G13G19G28G11
 116668863.634 7  90910974.28944  22201356.398                    22201366.383
 118553559.710 7  92379585.81245  22560002.109                    22560011.141
 107617673.829 8  83857957.18446  20478962.273                    20478969.496
 120747314.050 7  94088944.44044  22977466.219                    22977476.129
 106088800.417 8  82666638.75746  20188024.820                    20188032.422
 128805200.154 6 100367691.55342  24510837.750                    24510853.402
 127232703.408 7  99142387.88443  24211582.031                    24211588.934
 115267683.247 7  89819018.19045  21934703.867                    21934710.664
 113223785.984 7  88226378.04245  21545761.055                    21545768.645
 11  7 23 20 45  0.0000000  0  9G24G17G07G26G08G13G19G28G11
 116627994.840 7  90879128.52344  22193579.398                    22193588.727
 118472086.784 7  92316100.52345  22544498.148                    22544507.809
 107648906.536 7  83882294.33946  20484905.391                    20484912.992
 120706431.995 7  94057088.30443  22969686.188                    22969695.945
 106058240.113 8  82642825.54446  20182209.477                    20182216.867
 128916485.072 6 100454406.67242  24532014.305                    24532031.344
 127337838.772 6  99224311.47943  24231589.023                    24231596.156
 115242275.053 7  89799219.60445  21929868.867                    21929876.063
 113229725.648 7  88231006.37945  21546891.523                    21546898.805
 11  7 23 20 45 30.0000000  0  9G24G17G07G26G08G13G19G28G11
 116587575.317 7  90847632.84545  22185887.406                    22185897.227
 118390916.150 7  92252850.78145  22529052.016                    22529061.457
 107680623.321 7  83907008.70746  20490941.148                    20490948.441
 120666138.318 7  94025690.66644  22962018.523                    22962028.508
 106028121.060 8  82619356.15546  20176477.766                    20176485.238
 129027702.324 6 100541069.06042  24553179.320                    24553195.617
 127443045.871 6  99306290.99243  24251608.422                    24251615.801
 115216925.223 7  89779466.50545  21925044.727                    21925052.250
 113236249.330 7  88236089.78045  21548133.117                    21548139.785
 11  7 23 20 46  0.0000000  0  9G24G17G07G26G08G13G19G28G11
 116547607.074 7  90816488.81244  22178281.508                    22178291.168
 118310048.997 7  92189837.53645  22513663.414                    22513672.734
 107712823.858 7  83932100.02546  20497068.742                    20497076.020
 120626434.049 7  93994752.27444  22954463.430                    22954472.934
 105998445.515 8  82596232.36846  20170830.773                    20170838.211
 129138849.039 6 100627676.43642  24574329.945                    24574346.188
 127548322.439 6  99388324.61743  24271642.203                    24271649.645
 115191633.066 7  89759758.34045  21920231.844                    21920239.195
 113243356.746 7  88241628.03445  21549485.117                    21549492.332
 11  7 23 20 46 30.0000000  0  9G24G17G07G26G08G13G19G28G11
 116508092.812 7  90785698.54344  22170762.375                    22170772.160
 118229486.760 7  92127061.85245  22498332.672                    22498341.641
 107745508.875 7  83957568.85346  20503288.273                    20503295.602
 120587320.333 7  93964274.07743  22947020.164                    22947029.762
 105969215.743 8  82573455.92946  20165267.969                    20165276.160
 129249922.957 5 100714227.11742  24595467.383                    24595483.266
 127653666.364 6  99470410.72943  24291688.672                    24291695.941
 115166398.632 7  89740095.15745  21915430.125                    21915436.988
 113251048.107 7  88247621.30645  21550948.750                    21550955.770
 11  7 23 20 47  0.0000000  0  9G24G17G07G26G08G13G19G28G11
 116469034.025 7  90755263.17544  22163329.523                    22163339.473
 118149230.135 7  92064524.33345  22483060.070                    22483069.367
 107778677.752 8  83983414.71146  20509600.367                    20509607.641
 120548797.659 7  93934256.44944  22939689.563                    22939698.938
 105940432.796 8  82551027.68046  20159791.258                    20159799.148
 129360920.393 6                  24616589.680
 127759074.335 6  99552546.72843  24311747.070                    24311754.262
 115141220.537 7  89720475.89045  21910638.922                    21910645.516
 113259323.252 7  88254069.49145  21552523.242                    21552530.855
 11  7 23 20 47 30.0000000  0  9G24G17G07G26G08G13G19G28G11
 116430433.739 7  90725185.08444  22155983.789                    22155994.145
 118069281.284 7  92002226.64045  22467846.352                    22467855.605
 107812331.380 7  84009638.30346  20516004.383                    20516011.656
 120510867.646 7  93904700.61043  22932472.180                    22932481.344
 105912100.199 8  82528950.33646  20154399.664                    20154407.594
 129471839.616 6                  24637698.063
 127864545.109 6  99634731.70743  24331817.344                    24331824.641
 115116099.225 7  89700900.85845  21905857.867                    21905864.852
 113268183.047 7  88260973.24145  21554209.305                    21554217.020
 11  7 23 20 48  0.0000000  0  9G24G17G07G26G08G13G19G28G11
 116392293.994 7  90695465.85144  22148726.594                    22148736.012
 117989641.033 7  91940169.41145  22452691.625                    22452700.727
 107846469.595 7  84036239.49646  20522500.508                    20522508.164
 120473531.258 7  93875607.33644  22925366.727                    22925375.957
 105884219.514 8  82507225.12046  20149094.172                    20149101.809
 129582677.789 6                  24658790.047
 127970076.210 6  99716963.67443  24351899.156                    24351906.371
 115091034.010 7  89681369.54345  21901088.516                    21901095.469
 113277627.369 8  88268332.46645  21556006.602                    21556013.523
 11  7 23 20 48 30.0000000  0  8G24G17G07G26G08G19G28G11
 116354618.360 7  90666108.27644  22141556.750                    22141566.633
 117910311.750 7  91878354.48945  22437595.297                    22437604.766
 107881093.644 8  84063219.26246  20529089.102                    20529096.289
 120436790.942 7  93846978.53743  22918375.961                    22918384.871
 105856794.091 8  82485854.66546  20143875.555                    20143882.848
 128075666.237 6  99799241.50543  24371993.141                    24372000.207
 115066025.910 8  89661882.75145  21896329.820                    21896336.668
 113287657.914 7  88276148.49745  21557915.398                    21557922.660
 11  7 23 20 49  0.0000000  0  8G24G17G07G26G08G19G28G11
 116317407.605 7  90637112.91944  22134475.719                    22134486.117
 117831293.721 7  91816782.09045  22422558.734                    22422567.738
 107916202.517 8  84090576.80346  20535769.945                    20535777.910
 120400646.335 6  93818813.94044  22911497.078                    22911506.844
 105829825.190 7  82464839.94146  20138743.500                    20138751.176
 128181311.526 6  99881562.46043  24392097.398                    24392103.887
 115041073.200 7  89642439.09045  21891581.813                    21891588.398
 113298273.116 7  88284420.08745  21559935.219                    21559942.691
 11  7 23 20 49 30.0000000  0  8G24G17G07G26G08G19G28G11
 116280663.997 7  90608481.60244  22127483.828                    22127493.539
 117752588.025 7  91755453.08545  22407581.547                    22407590.418
 107951796.503 8  84118312.35546  20542543.922                    20542550.676
 120365098.490 7  93791114.36944  22904732.867                    22904742.430
 105803314.918 7  82444182.57646  20133698.633                    20133706.355
 128287010.230 6  99963924.97043  24412210.953                    24412217.973
 115016175.691 7  89623038.45745  21886843.375                    21886850.695
 113309472.886 8  88293147.20245  21562066.406                    21562074.227
 11  7 23 20 50  0.0000000  0  8G24G17G07G26G08G19G28G11
 116244389.252 7  90580215.60744  22120580.719                    22120590.602
 117674195.556 7  91694368.13945  22392664.305                    22392672.625
 107987874.927 8  84146425.39846  20549409.289                    20549416.934
 120330147.486 7  93763879.81344  22898082.117                    22898091.152
 105777264.539 8  82423883.58346  20128741.586                    20128749.094
 128392759.438 6 100046326.90343  24432334.500                    24432341.012
 114991332.692 8  89603680.29945  21882115.898                    21882123.047
 113321256.938 7  88302329.59045  21564309.023                    21564316.375
 11  7 23 20 50 30.0000000  0  8G24G17G07G26G08G19G28G11
 116208586.224 7  90552317.20544  22113767.414                    22113776.938
 117596117.878 7  91633528.47845  22377805.828                    22377815.137
 108024438.420 7  84174916.41346  20556366.672                    20556374.430
 120295795.315 7  93737111.92544  22891544.266                    22891553.934
 105751677.022 8  82403945.26946  20123871.898                    20123879.844
 128498557.165 6 100128766.62643  24452466.602                    24452474.145
 114966543.775 7  89584364.27545  21877399.063                    21877406.242
 113333625.983 8  88311967.81445  21566662.914                    21566670.676
 11  7 23 20 51  0.0000000  0  8G24G17G07G26G08G19G28G11
 116173256.252 7  90524787.39344  22107044.680                    22107053.938
 117518355.341 7  91572934.39045  22363008.180                    22363017.422
 108061486.204 7  84203784.80346  20563416.938                    20563424.570
 120262041.951 7  93710810.59843  22885121.805                    22885131.152
 105726553.470 8  82384368.46946  20119091.406                    20119099.184
 128604400.799 6 100211242.08943  24472608.227                    24472616.133
 114941808.276 7  89565089.89045  21872691.711                    21872698.656
 113346579.177 8  88322061.22345  21569127.984                    21569135.160
 11  7 23 20 51 30.0000000  0  8G24G17G07G26G08G19G28G11
 116138402.271 7  90497628.47944  22100412.172                    22100421.480
 117440910.017 7  91512587.46845  22348271.289                    22348280.031
 108099019.107 8  84233031.20346  20570559.125                    20570566.512
 120228888.989 7  93684977.13344  22878812.609                    22878822.031
 105701896.873 8  82365155.53746  20114399.516                    20114407.219
 128710288.596 6 100293752.00943  24492758.336                    24492765.375
 114917126.334 8  89545857.23945  21867994.820                    21868001.762
 113360117.022 7  88332610.20345  21571704.672                    21571711.438
 11  7 23 20 52  0.0000000  0  8G24G17G07G26G08G19G28G11
 116104025.822 7  90470841.67645  22093870.430                    22093879.820
 117363782.733 7  91452488.36545  22333594.391                    22333602.344
 108137036.568 7  84262655.17546  20577793.555                    20577800.879
 120196336.847 7  93659611.84944  22872619.219                    22872627.996
 105677708.496 8  82346307.45446  20109796.250                    20109804.102
 128816218.215 6 100376294.48243  24512915.445                    24512923.430
 114892497.425 7  89526665.90645  21863307.953                    21863315.422
 113374239.181 7  88343614.48645  21574391.250                    21574398.816
 11  7 23 20 52 30.0000000  0  8G24G17G07G26G08G19G28G11
 116070129.232 7  90444428.79844  22087420.445                    22087429.664
 117286974.765 7  91392638.06745  22318978.164                    22318986.309
 108175538.847 7  84292656.93846  20585120.438                    20585127.836
 120164386.648 6  93634715.59544  22866537.906                    22866547.563
 105653991.058 8  82327826.33746  20105283.281                    20105291.105
 128922187.226 6 100458867.73343  24533080.633                    24533088.086
 114867921.210 7  89507515.63045  21858631.563                    21858638.500
 113388945.658 7  88355074.09145  21577189.797                    21577197.336
 11  7 23 20 53  0.0000000  0  8G24G17G07G26G08G19G28G11
 116036715.259 7  90418391.97045  22081061.531                    22081071.582
 117210487.543 7  91333037.69145  22304422.664                    22304431.414
 108214526.748 7  84323037.10246  20592539.813                    20592547.273
 120133039.647 7  93610289.36844  22860573.688                    22860582.645
 105630747.017 8  82309714.10746  20100859.914                    20100868.047
 129028193.664 6 100541470.09443  24553253.781                    24553260.664
 114843398.348 7  89488406.93045  21853964.445                    21853971.898
 113404236.904 7  88366989.35945  21580099.547                    21580106.758
 11  7 23 20 53 30.0000000  0  8G24G17G07G26G08G19G28G11
 116003784.995 7  90392732.07045  22074795.445                    22074805.191
 117134321.796 7  91273687.84745  22289928.500                    22289937.578
 108253998.765 7  84353794.50346  20600050.977                    20600058.391
 120102295.632 6  93586333.02544  22854722.758                    22854732.582
 105607977.428 7  82291971.57446  20096527.398                    20096535.055
 129134234.941 6 100624099.61842  24573432.711                    24573440.008
 114818927.426 7  89469338.69545  21849307.969                    21849315.371
 113420112.101 8  88379359.64145  21583120.359                    21583127.680
 11  7 23 20 54  0.0000000  0  8G24G17G07G26G08G19G28G11
 115971340.660 7  90367450.80745  22068621.516                    22068630.480
 117058478.671 7  91214589.38445  22275496.141                    22275504.824
 108293954.973 8  84384929.20146  20607654.141                    20607661.836
 120072155.733 7  93562847.41344  22848987.477                    22848996.930
 105585684.610 8  82274600.55646  20092284.734                    20092292.852
 129240309.152 6 100706754.77043  24593617.070                    24593624.730
 114794508.320 7  89450310.83345  21844661.492                    21844668.516
 113436570.932 7  88392184.72345  21586253.039                    21586260.316
 11  7 23 20 54 30.0000000  0  8G24G17G07G26G08G19G28G11
 115939384.528 7  90342549.96245  22062540.266                    22062549.363
 116982959.309 7  91155743.19245  22261125.289                    22261134.180
 108334395.521 8  84416441.29446  20615349.578                    20615357.211
 120042620.455 7  93539832.94943  22843366.859                    22843376.203
 105563870.603 8  82257602.64346  20088134.031                    20088141.730
 129346413.963 6 100789433.77343  24613808.055                    24613816.441
 114770140.645 8  89431323.05445  21840024.250                    21840031.652
 113453613.199 7  88405464.41945  21589495.352                    21589502.809
 11  7 23 20 55  0.0000000  0  8G24G17G07G26G08G19G28G11
 115907918.488 7  90318031.02844  22056552.383                    22056561.863
 116907765.067 7  91097150.36445  22246815.891                    22246825.418
 108375320.221 8  84448330.66246  20623137.719                    20623144.910
 120013690.662 7  93517290.30344  22837861.391                    22837871.508
 105542537.451 8  82240979.40746  20084074.258                    20084082.176
 129452547.098 6 100872134.85043  24634004.758                    24634013.199
 114745824.224 7  89412375.20545  21835397.531                    21835404.211
 113471238.893 7  88419198.74245  21592849.898                    21592857.125
 11  7 23 20 55 30.0000000  0  8G24G17G07G26G08G19G28G11
 115876945.017 7  90293895.89945  22050658.453                    22050667.594
 116832897.148 7  91038811.79645  22232569.172                    22232578.105
 108416729.642 8  84480597.72946  20631017.953                    20631025.191
 119985367.518 7  93495220.35344  22832472.289                    22832481.078
 105521687.894 8  82224733.00446  20080107.250                    20080114.492
 129558706.955 6 100954856.77043  24654206.813                    24654214.730
 114721559.424 8  89393467.58245  21830779.781                    21830786.813
 113489448.129 7  88433387.76245  21596314.781                    21596321.883
 11  7 23 20 56  0.0000000  0  8G24G17G07G26G08G19G28G11
 115846465.192 7  90270145.44145  22044858.164                    22044867.188
 116758356.142 7  90980727.97145  22218384.961                    22218393.602
 108458622.720 7  84513241.66446  20638989.523                    20638996.723
 119957650.955 7  93473623.07544  22827198.125                    22827207.184
 105501322.754 8  82208864.07246  20076231.258                    20076239.031
 129664890.815 6 101037597.38543  24674413.672                    24674421.098
 114697345.147 8  89374599.33645  21826171.688                    21826178.941
 113508239.865 7  88448030.68645  21599890.859                    21599898.348
 11  7 23 20 56 30.0000000  0  8G24G17G07G26G08G19G28G11
 115816481.086 7  90246781.26344  22039152.523                    22039161.840
 116684143.153 7  90922899.73645  22204262.719                    22204271.320
 108500999.595 8  84546262.59246  20647053.859                    20647061.059
 119930541.698 7  93452499.00744  22822039.656                    22822048.734
 105481443.998 8  82193374.13446  20072448.742                    20072455.996
 129771096.765 6 101120355.18443  24694623.102                    24694630.992
 114673181.293 8  89355770.36945  21821573.625                    21821580.738
 113527614.288 7  88463127.64845  21603577.117                    21603584.801
 11  7 23 20 57  0.0000000  0  8G24G17G07G26G08G19G28G11
 115786994.667 7  90223804.85545  22033541.508                    22033550.887
 116610259.154 7  90865327.85445  22190202.828                    22190211.074
 108543859.942 7  84579660.25346  20655209.836                    20655217.734
 119904040.220 7  93431848.52944  22816996.234                    22817005.355
 105462053.769 8  82178264.85946  20068758.922                    20068766.715
 129877322.272 6 101203128.24343  24714836.945                    24714845.309
 114649067.528 8  89336980.44245  21816984.594                    21816991.953
 113547570.703 7  88478678.09845  21607374.867                    21607382.727
 11  7 23 20 57 30.0000000  0  8G24G17G07G26G08G19G28G11
 115758008.342 7  90201218.15944  22028025.313                    22028034.723
 116536705.648 7  90808013.50545  22176206.055                    22176214.074
 108587203.587 8  84613434.49746  20663457.703                    20663465.246
 119878147.840 7  93411672.65444  22812068.195                    22812078.281
 105443154.809 8  82163538.39446  20065162.508                    20065169.930
 129983565.824 6 101285915.34743  24735055.234                    24735062.852
 114625004.339 7  89318229.92345  21812405.609                    21812412.945
 113568109.334 7  88494682.22145  21611283.711                    21611291.273
 11  7 23 20 58  0.0000000  0  8G24G17G07G26G08G19G28G11
 115729523.566 7  90179022.26445  22022604.820                    22022614.176
 116463483.384 7  90750957.26545  22162271.742                    22162280.730
 108631030.378 8  84647585.23646  20671798.031                    20671805.238
 119852864.310 7  93391971.20644  22807258.125                    22807267.070
 105424748.225 8  82149195.60346  20061659.953                    20061667.574
 130089825.021 6 101368714.67443  24755276.000                    24755282.879
 114600991.062 8  89299518.28745  21807836.055                    21807843.387
 113589229.474 7  88511139.45945  21615302.570                    21615310.090
 11  7 23 20 58 30.0000000  0  8G24G17G07G26G08G19G28G11
 115701542.142 7  90157218.59345  22017279.883                    22017289.477
 116390593.367 7  90694159.90145  22148401.547                    22148410.219
 108675340.071 8  84682112.25346  20680229.820                    20680237.051
 119828190.290 7  93372744.70144  22802562.742                    22802571.129
 105406835.991 8  82135238.01146  20058251.281                    20058258.871
 130196097.419 6 101451524.22443  24775498.086                    24775505.434
 114577027.296 8  89280845.24345  21803275.828                    21803282.781
 113610930.633 7  88528049.44545  21619432.203                    21619439.242
 11  7 23 20 59  0.0000000  0  8G24G17G07G26G08G19G28G11
 115674066.068 7  90135808.69945  22012051.391                    22012060.602
 116318036.657 7  90637622.27045  22134594.156                    22134602.992
 108720131.981 8  84717015.02546  20688753.344                    20688760.273
 119804126.068 7  93353993.36844  22797982.133                    22797992.656
 105389419.794 8  82121666.94846  20054936.750                    20054944.531
 130302381.201 6 101534342.73643  24795723.281                    24795731.277
 114553112.792 7  89262210.57645  21798725.180                    21798732.168
 113633212.336 7  88545411.81345  21623672.195                    21623679.449
 11  7 23 20 59 30.0000000  0  8G24G17G07G26G08G19G28G11
 115647097.409 7  90114794.20245  22006919.438                    22006928.973
 116245814.536 7  90581345.35645  22120851.094                    22120859.500
 108765406.546 8  84752293.88946  20697368.805                    20697376.371
 119780672.700 7  93335718.03344  22793520.031                    22793529.527
 105372501.790 8  82108484.07946  20051717.422                    20051725.871
 130408674.646 6 101617168.70943  24815950.547                    24815958.387
 114529247.850 8  89243614.54245  21794184.008                    21794191.348
 113656074.309 7  88563226.32945  21628022.609                    21628030.203
 11  7 23 21  0  0.0000000  0  7G24G17G07G26G08G28G11
 115620637.695 7  90094176.26945  22001884.523                    22001893.973
 116173927.658 7  90525329.68145  22107170.883                    22107179.688
 108811162.897 8  84787948.17746  20706076.023                    20706083.617
 119757830.367 7  93317918.80744  22789173.672                    22789182.344
 105356084.049 8  82095691.02946  20048593.594                    20048601.152
 114505432.113 8  89225056.83245  21789651.883                    21789658.879
 113679516.198 7  88581492.73845  21632483.727                    21632490.941
 11  7 23 21  0 30.0000000  0  7G24G17G07G26G08G28G11
 115594688.707 7  90073956.30945  21996946.461                    21996955.621
 116102377.040 7  90469576.01245  22093555.445                    22093564.164
 108857400.953 8  84823977.79746  20714874.836                    20714882.391
 119735598.975 7  93300595.63444  22784943.000                    22784952.164
 105340167.830 8  82083288.77646  20045564.477                    20045572.191
 114481664.959 8  89206536.97445  21785129.313                    21785135.969
 113703537.007 8  88600210.24345  21637054.977                    21637061.789
 11  7 23 21  1  0.0000000  0  7G24G17G07G26G08G28G11
 115569252.290 7  90054135.74645  21992106.156                    21992115.273
 116031163.837 7  90414085.26545  22080003.992                    22080012.746
 108904120.168 8  84860382.35946  20723765.297                    20723772.156
 119713979.285 7  93283749.15844  22780829.148                    22780838.016
 105324755.533 8  82071279.18546  20042631.758                    20042639.488
 114457946.626 8  89188055.18345  21780615.461                    21780623.168
 113728136.386 7  88619378.59245  21641735.484                    21641743.121
 11  7 23 21  1 30.0000000  0  7G24G17G07G26G08G28G11
 115544329.732 7  90034715.59845  21987363.391                    21987372.676
 115960288.082 7  90358857.47545  22066516.453                    22066525.297
 108951319.370 7  84897160.93046  20732746.695                    20732754.324
 119692971.090 7  93267379.14144  22776831.313                    22776840.320
 105309848.018 8  82059662.93546  20039794.617                    20039802.418
 114434276.344 8  89169610.82045  21776111.023                    21776118.379
 113753313.245 7  88638996.92345  21646526.586                    21646533.754
 11  7 23 21  2  0.0000000  0  7G24G17G07G26G08G28G11
 115519922.753 7  90015697.19545  21982719.055                    21982728.875
 115889751.155 7  90303893.69745  22053093.523                    22053102.422
 108998998.775 7  84934313.69246  20741819.695                    20741827.805
 119672574.765 7  93251485.91844  22772949.617                    22772959.277
 105295447.300 8  82048441.59346  20037054.680                    20037062.883
 114410654.192 7  89151203.95745  21771616.398                    21771623.012
 113779067.442 7  88659065.11845  21651427.625                    21651434.820
 11  7 23 21  2 30.0000000  0  7G24G17G07G26G08G28G11
 115496033.485 7  89997082.20445  21978172.938                    21978182.289
 115819554.434 7  90249195.01745  22039736.469                    22039744.563
 109047158.350 8  84971840.60646  20750984.609                    20750992.063
 119652791.208 7  93236070.18644  22769185.148                    22769194.563
 105281555.900 8  82037617.12546  20034411.273                    20034419.152
 114387080.235 8  89132834.65045  21767130.141                    21767137.160
 113805398.748 7  88679583.01245  21656438.023                    21656445.219
 11  7 23 21  3  0.0000000  0  7G24G17G07G26G08G28G11
 115472663.099 7  89978871.54745  21973725.242                    21973735.105
 115749698.272 7  90194761.68945  22026442.820                    22026450.980
 109095797.103 8  85009740.90446  20760240.039                    20760247.781
 119633619.867 7  93221131.49844  22765536.680                    22765546.184
 105268174.735 8  82027190.24546  20031864.773                    20031872.594
 114363553.711 8  89114502.30845  21762653.484                    21762660.805
 113832305.968 7  88700549.66645  21661558.508                    21661565.535
 11  7 23 21  3 30.0000000  0  7G24G17G07G26G08G28G11
 115449813.342 7  89961066.58144  21969377.688                    21969387.031
 115680183.784 7  90140594.61845  22013214.617                    22013223.266
 109144914.754 8  85048014.37546  20769586.922                    20769594.285
 119615061.117 7  93206670.13544  22762005.344                    22762014.570
 105255305.701 8  82017162.42746  20029416.063                    20029423.871
 114340075.111 8  89096207.30945  21758185.023                    21758192.234
 113859788.456 7  88721964.59345  21666788.070                    21666795.859
 11  7 23 21  4  0.0000000  0  7G24G17G07G26G08G28G11
 115427485.690 7  89943668.43145  21965128.227                    21965137.910
 115611011.638 7  90086694.30845  22000051.078                    22000060.137
 109194510.247 7  85086660.18646  20779024.750                    20779032.313
 119597115.051 7  93192686.21544  22758590.656                    22758599.387
 105242950.348 8  82007534.88146  20027064.586                    20027072.820
 114316643.733 8  89077949.08445  21753726.742                    21753733.551
 113887845.372 7  88743827.12745  21672127.219                    21672134.730
 11  7 23 21  4 30.0000000  0  7G24G17G07G26G08G28G11
 115405682.645 7  89926679.09045  21960979.430                    21960989.438
 115542183.277 7  90033061.87345  21986954.055                    21986962.441
 109244584.312 8  85125678.91046  20788553.414                    20788560.770
 119579782.683 7  93179180.46144  22755291.805                    22755301.172
 105231111.685 8  81998309.94646  20024811.766                    20024819.977
 114293260.107 8  89059728.09445  21749277.219                    21749284.148
 113916476.728 7  88766137.26645  21677575.984                    21677582.699
 11  7 23 21  5  0.0000000  0  7G24G17G07G26G08G28G11
 115384405.451 7  89910099.47845  21956930.398                    21956940.117
 115473699.459 7  89979697.91545  21973921.680                    21973930.371
 109295136.029 8  85165069.82646  20798172.797                    20798180.703
 119563063.727 7  93166152.69644  22752110.570                    22752119.398
 105219790.879 8  81989488.54146  20022657.969                    20022665.438
 114269924.234 8  89041544.31345  21744836.422                    21744842.832
 113945681.578 7  88788894.28345  21683133.352                    21683140.270
 11  7 23 21  5 30.0000000  0  7G24G17G07G26G08G28G11
 115363655.312 7  89893930.56145  21952981.914                    21952990.695
 115405560.541 7  89926602.71445  21960955.203                    21960963.801
 109346164.239 8  85204832.04246  20807883.344                    20807890.707
 119546957.759 7  93153602.59944  22749045.359                    22749054.480
 105208988.857 8  81981071.38646  20020602.055                    20020609.848
 114246635.233 8  89023397.04945  21740404.039                    21740411.125
 113975458.729 7  88812097.25345  21688799.719                    21688806.617
 11  7 23 21  6  0.0000000  0  7G24G17G07G26G08G28G11
 115343433.575 7  89878173.38645  21949133.641                    21949143.234
 115337767.331 7  89873776.89745  21948054.547                    21948063.070
 109397668.529 8  85244965.22846  20817684.344                    20817691.773
 119531465.211 7  93141530.48144  22746096.820                    22746106.645
 105198707.285 8  81973059.76246  20018645.750                    20018653.609
 114223393.216 7  89005286.40645  21735981.602                    21735988.688
 114005807.378 7  88835745.54245  21694574.641                    21694581.883
 11  7 23 21  6 30.0000000  0  7G24G17G07G26G08G28G11
 115323741.516 7  89862828.93045  21945386.820                    21945395.418
 115270320.602 7  89821221.06745  21935220.047                    21935228.363
 109449648.212 8  85285468.85946  20827575.695                    20827582.898
 119516585.555 7  93129935.95844  22743266.008                    22743275.102
 105188947.492 8  81965454.72846  20016788.383                    20016795.910
 114200197.898 8  88987212.14445  21731567.305                    21731574.352
 114036726.550 7  88859838.40845  21700458.484                    21700465.645
 11  7 23 21  7  0.0000000  0  7G24G17G07G26G08G28G11
 115304581.047 7  89847898.70645  21941740.906                    21941750.098
 115203221.291 7  89768935.95245  21922451.391                    21922460.090
 109502102.995 8  85326342.69046  20837557.984                    20837565.258
 119502319.400 7  93118819.48144  22740550.977                    22740560.395
 105179711.587 8  81958257.91546  20015030.539                    20015038.434
 114177049.532 8  88969174.46145  21727162.414                    21727170.051
 114068215.765 7  88884375.45545  21706450.742                    21706458.266
 11  7 23 21  7 30.0000000  0  7G24G17G07G26G08G28G11
 115285953.504 7  89833383.76445  21938195.641                    21938204.914
 115136470.299 7  89716922.26245  21909749.156                    21909757.734
 109555032.215 8  85367586.21746  20847629.750                    20847637.594
 119488666.653 7  93108181.00744  22737952.883                    22737962.352
 105171001.385 8  81951470.73946  20013373.352                    20013381.270
 114153948.008 8  88951173.29845  21722766.414                    21722773.641
 114100274.234 7  88909356.07745  21712551.117                    21712558.051
 11  7 23 21  8  0.0000000  0  7G24G17G07G26G08G28G11
 115267860.540 7  89819285.36445  21934752.820                    21934762.211
 115070068.448 7  89665180.63145  21897113.063                    21897121.289
 109608435.544 8  85409199.17346  20857792.430                    20857800.023
 119475627.206 7  93098020.41944  22735471.813                    22735480.992
 105162818.254 8  81945094.27346  20011816.273                    20011823.738
 114130893.451 7  88933208.71445  21718379.297                    21718386.188
 114132900.937 7  88934779.46645  21718759.609                    21718766.871
 11  7 23 21  8 30.0000000  0  7G24G17G07G26G08G28G11
 115250302.961 7  89805604.14045  21931411.781                    21931421.137
 115004015.912 7  89613711.19045  21884543.508                    21884551.891
 109662311.271 8  85451180.22446  20868044.430                    20868051.574
 119463200.470 7  93088337.26644  22733106.750                    22733115.723
 105155162.917 8  81939129.06846  20010359.406                    20010367.105
 114107885.125 8  88915280.17045  21714001.023                    21714008.375
 114166094.517 7  88960644.57645  21725075.906                    21725083.383
 11  7 23 21  9  0.0000000  0  7G24G17G07G26G08G28G11
 115233282.791 7  89792341.66345  21928172.680                    21928181.879
 114938313.916 7  89562514.88645  21872041.195                    21872049.027
 109716659.510 8  85493529.48046  20878386.633                    20878393.965
 119451386.992 7  93079131.96344  22730858.813                    22730868.648
 105148037.872 8  81933577.07846  20009003.695                    20009010.867
 114084923.416 8  88897387.96145  21709631.609                    21709638.324
 114199854.356 7  88986950.92045  21731500.977                    21731507.621
 11  7 23 21  9 30.0000000  0  7G24G17G07G26G08G28G11
 115216801.482 7  89779499.09345  21925036.906                    21925046.113
 114872963.512 7  89511592.56145  21859604.758                    21859613.418
 109771479.999 7  85536246.71046  20888818.648                    20888825.895
 119440186.702 7  93070404.47944  22728726.992                    22728736.605
 105141445.062 8  81928439.82546  20007748.656                    20007756.828
 114062008.740 7  88879532.37545  21705271.211                    21705277.809
 114234180.205 7  89013698.32945  21738032.727                    21738040.027
 11  7 23 21 10  0.0000000  0  7G24G17G07G26G08G28G11
 115200859.551 7  89767076.81645  21922003.375                    21922012.289
 114807964.632 7  89460944.14245  21847236.414                    21847244.582
 109826770.985 8  85579330.56946  20899340.250                    20899347.617
 119429598.480 7  93062153.93144  22726712.938                    22726721.641
 105135384.672 8  81923717.44146  20006595.898                    20006603.484
 114039139.906 7  88861712.53445  21700919.078                    21700926.387
 114269069.844 7  89040885.07045  21744672.492                    21744679.023
 11  7 23 21 10 30.0000000  0  7G24G17G07G26G08G28G11
 115185458.898 7  89755076.33745  21919072.141                    21919081.789
 114743318.633 7  89410570.70245  21834934.203                    21834942.637
 109882532.210 7  85622780.84446  20909951.273                    20909959.230
 119419622.914 7  93054380.75044  22724814.289                    22724823.090
 105129858.735 8  81919411.51246  20005544.188                    20005552.086
 114016317.802 8  88843929.09145  21696576.258                    21696582.746
 114304522.959 7  89068510.85245  21751417.914                    21751425.867
 11  7 23 21 11  0.0000000  0  7G24G17G07G26G08G28G11
 115170600.299 7  89743498.21645  21916244.766                    21916254.285
 114679025.503 8  89360472.21245  21822699.898                    21822707.645
 109938762.552 8  85666596.66446  20920651.305                    20920659.410
 119410259.560 7  93047084.64544  22723032.359                    22723041.949
 105124868.467 8  81915522.99146  20004594.719                    20004602.598
 113993541.697 7  88826181.48845  21692241.695                    21692249.145
 114340537.863 7  89096574.41645  21758272.016                    21758279.258
 11  7 23 21 11 30.0000000  0  7G24G17G07G26G08G28G11
 115156285.737 7  89732344.02745  21913520.563                    21913529.816
 114615086.567 7  89310649.72145  21810532.609                    21810540.809
 109995461.938 7  85710777.96546  20931440.914                    20931448.840
 119401508.345 7  93040265.52644  22721367.094                    22721376.105
 105120415.649 8  81912053.26246  20003747.094                    20003754.719
 113970812.315 8  88808470.29745  21687916.766                    21687923.801
 114377114.182 7  89125075.42845  21765231.977                    21765239.922
 11  7 23 21 12  0.0000000  0  7G24G17G07G26G08G28G11
 115142515.613 7  89721614.07745  21910900.242                    21910909.605
 114551501.945 7  89261103.31545  21798433.086                    21798440.801
 110052628.788 8  85755323.52446  20942319.547                    20942327.398
 119393368.374 7  93033922.69544  22719818.586                    22719827.215
 105116501.226 8  81909003.06546  20003002.203                    20003010.109
 113948128.908 8  88790794.92145  21683600.883                    21683607.656
 114414250.434 7  89154012.74545  21772298.469                    21772306.391
 11  7 23 21 12 30.0000000  0  7G24G17G07G26G08G28G11
 115129292.085 7  89711310.04845  21908383.828                    21908393.188
 114488273.162 7  89211834.19445  21786400.406                    21786408.438
 110110263.272 7  85800233.48146  20953287.039                    20953294.762
 119385840.448 7  93028056.79544  22718385.047                    22718395.047
 105113127.777 8  81906374.40546  20002360.242                    20002368.375
 113925492.591 8  88773156.23845  21679292.305                    21679299.813
 114451946.484 7  89183386.28245  21779472.344                    21779479.715
 11  7 23 21 13  0.0000000  0  7G24G17G07G26G08G28G11
 115116616.195 7  89701432.73745  21905971.734                    21905981.121
 114425400.705 7  89162842.72245  21774436.266                    21774444.262
 110168364.428 8  85845507.07546  20964343.289                    20964351.094
 119378923.661 7  93022667.08944  22717069.344                    22717079.074
 105110296.256 8  81904168.01846  20001821.695                    20001829.488
 113902903.032 7  88755553.99745  21674993.961                    21675001.379
 114490200.684 7  89213194.74645  21786751.875                    21786759.395
 11  7 23 21 13 30.0000000  0  7G24G17G07G26G08G28G11
 115104487.988 7  89691982.20845  21903663.742                    21903672.918
 114362883.831 7  89114128.33845  21762539.766                    21762548.336
 110226930.026 7  85891142.57846  20975487.711                    20975495.844
 119372616.874 7  93017752.71344  22715869.664                    22715878.641
 105108006.606 8  81902383.86846  20001385.875                    20001393.664
 113880359.117 7  88737987.33145  21670704.141                    21670710.844
 114529010.868 7  89243436.44345  21794136.633                    21794144.805
 11  7 23 21 14  0.0000000  0  7G24G17G07G26G08G28G11
 115092909.584 7  89682960.09645  21901460.914                    21901469.961
 114300724.523 7  89065692.55945  21750711.016                    21750719.262
 110285960.342 7  85937140.18146  20986721.195                    20986729.027
 119366920.726 7  93013314.18344  22714785.570                    22714794.703
 105106261.596 8  81901024.11046  20001053.727                    20001061.938
 113857861.709 8  88720456.89245  21666422.836                    21666429.961
 114568377.014 7  89274111.35545  21801627.938                    21801635.656
 11  7 23 21 14 30.0000000  0  7G24G17G07G26G08G28G11
 115081882.184 7  89674367.32645  21899362.164                    21899371.250
 114238923.056 7  89017535.61745  21738950.617                    21738959.125
 110345454.415 8  85983499.17946  20998042.461                    20998050.262
 119361834.384 7  93009350.80744  22713817.359                    22713826.563
 105105062.221 8  81900089.52746  20000825.523                    20000833.176
 113835410.789 8  88702962.68645  21662150.625                    21662157.410
 114608297.489 7  89305218.21445  21809224.555                    21809232.199
 11  7 23 21 15  0.0000000  0  7G24G17G07G26G08G28G11
 115071406.493 7  89666204.47245  21897368.977                    21897378.270
 114177479.541 7  88969657.58845  21727258.258                    21727266.754
 110405411.048 7  86030218.60546  21009451.945                    21009459.703
 119357357.268 7  93005862.14944  22712965.602                    22712974.934
 105104409.241 8  81899580.69546  20000701.492                    20000708.840
 113813006.495 8  88685504.81045  21657887.586                    21657894.207
 114648771.319 7  89336756.24845  21816926.633                    21816934.191
 11  7 23 21 15 30.0000000  0  7G24G17G07G26G08G28G11
 115061483.333 7  89658472.16645  21895480.203                    21895489.668
 114116394.728 7  88922059.08446  21715634.766                    21715642.641
 110465829.347 8  86077297.77946  21020949.156                    21020956.785
 119353488.654 7  93002847.64744  22712229.414                    22712238.188
 105104303.967 8  81899498.65746  20000681.273                    20000689.008
 113790648.755 8  88668083.19945  21653632.711                    21653639.504
 114689796.658 7  89368724.04544  21824733.656                    21824740.707
 11  7 23 21 16  0.0000000  0  7G24G17G07G26G08G28G11
 115052113.904 7  89651171.33445  21893697.625                    21893706.430
 114055669.187 7  88874740.53346  21704078.523                    21704086.691
 110526708.333 8  86124735.91446  21032533.766                    21032541.426
 119350228.159 7  93000306.99644  22711609.109                    22711618.117
 105104747.838 8  81899844.51346  20000765.930                    20000773.531
 113768337.377 8  88650697.71845  21649387.094                    21649394.242
 114731372.480 7  89401120.77345  21832645.039                    21832652.453
 11  7 23 21 16 30.0000000  0  7G24G17G07G26G08G28G11
 115043299.761 7  89644303.19045  21892020.367                    21892029.246
 113995304.118 7  88827702.87545  21692591.586                    21692600.223
 110588047.432 7  86172532.58546  21044206.750                    21044214.395
 119347575.924 7  92998240.29744  22711103.781                    22711113.418
 105105742.961 8  81900619.93146  20000954.844                    20000962.777
 113746073.089 8  88633348.93845  21645150.313                    21645156.723
 114773498.086 7  89433945.91245  21840661.383                    21840669.199
 11  7 23 21 17  0.0000000  0  7G24G17G07G26G08G28G11
 115035041.738 7  89637868.38845  21890448.938                    21890457.727
 113935299.745 7  88780946.26746  21681172.828                    21681181.230
 110649845.516 8  86220686.91146  21055966.305                    21055973.754
 119345531.019 6  92996646.85344  22710714.875                    22710724.254
 105107289.960 8  81901825.37346  20001249.500                    20001257.223
 113723855.736 8  88616036.72145  21640922.188                    21640929.344
 114816171.813 7  89467198.15145  21848781.797                    21848789.398
 11  7 23 21 17 30.0000000  0  7G24G17G07G26G08G28G11
 115027340.287 7  89631867.28645  21888982.688                    21888992.277
 113875656.128 7  88734470.77946  21669823.086                    21669831.570
 110712101.415 7  86269197.96646  21067813.242                    21067820.785
 119344092.412 7  92995525.86044  22710440.617                    22710450.672
 105109389.399 8  81903461.28846  20001649.016                    20001656.797
 113701684.696 8  88598760.59045  21636703.242                    21636710.484
 114859391.919 7  89500876.15345  21857005.953                    21857014.023
 11  7 23 21 18  0.0000000  0  7G24G17G07G26G08G28G11
 115020196.294 8  89626300.55245  21887623.656                    21887632.586
 113816373.756 7  88688276.78245  21658542.461                    21658550.215
 110774813.859 7  86318064.77446  21079746.891                    21079754.707
 119343259.559 7  92994876.85344  22710282.922                    22710292.484
 105112042.833 8  81905528.88646  20002153.773                    20002161.469
 113679560.554 8  88581521.01545  21632493.375                    21632500.426
 114903157.466 7  89534979.15945  21865334.430                    21865342.094
 11  7 23 21 18 30.0000000  0  7G24G17G07G26G08G28G11
 115013611.796 7  89621169.79245  21886370.766                    21886379.469
 113757454.282 7  88642365.55146  21647329.781                    21647337.930
 110837982.819 7  86367287.30446  21091767.734                    21091775.531
 119343032.889 6  92994700.22344  22710239.711                    22710249.078
 105115252.296 8  81908029.74946  20002764.906                    20002772.129
 113657484.596 8  88564318.98245  21628292.156                    21628299.141
 114947467.963 7  89569506.80544  21873766.453                    21873774.316
 11  7 23 21 19  0.0000000  0  7G24G17G07G26G08G28G11
 115007586.398 7  89616474.68345  21885224.102                    21885233.027
 113698896.646 7  88596736.28646  21636186.242                    21636195.004
 110901606.273 7  86416863.98246  21103874.531                    21103882.254
 119343410.238 7  92994994.26644  22710312.289                    22710320.977
 105119017.503 8  81910963.66246  20003481.109                    20003488.922
 113635455.322 8  88547153.30445  21624100.773                    21624107.336
 114992320.316 7  89604456.69145  21882301.758                    21882309.398
 11  7 23 21 19 30.0000000  0  7G24G17G07G26G08G28G11
 115002121.254 7  89612216.13445  21884183.977                    21884193.301
 113640701.690 7  88551389.61546  21625112.094                    21625120.797
 110965683.070 7  86466793.91346  21116068.250                    21116076.105
 119344391.245 7  92995758.68344  22710498.289                    22710507.250
 105123339.632 8  81914331.55246  20004303.359                    20004311.504
 113613473.037 7  88530024.27045  21619917.445                    21619924.641
 115037713.646 7  89639828.10245  21890939.016                    21890947.371
 11  7 23 21 20  0.0000000  0  7G24G17G07G26G08G28G11
 114997217.494 7  89608395.03445  21883250.773                    21883259.938
 113582870.007 7  88506326.02346  21614107.469                    21614115.758
 111030212.641 7  86517076.65946  21128347.727                    21128355.867
 119345975.524 7  92996993.20844  22710799.602                    22710808.703
 105128220.433 8  81918134.76346  20005232.688                    20005240.133
 113591538.459 7  88512932.38945  21615743.234                    21615749.891
 115083647.049 7  89675620.36245  21899680.586                    21899688.711
 11  7 23 21 20 30.0000000  0  7G24G17G07G26G08G28G11
 114992875.925 7  89605012.00745  21882424.734                    21882433.867
 113525402.323 7  88461546.05746  21603172.047                    21603180.172
 111095193.569 7  86567711.10446  21140713.313                    21140721.543
 119348162.226 7  92998697.11944  22711215.922                    22711225.086
 105133660.837 7  81922374.04046  20006267.727                    20006275.434
 113569651.488 7  88495877.61145  21611578.344                    21611585.430
 115130118.748 7  89711832.07744  21908524.242                    21908531.730
 11  7 23 21 21  0.0000000  0  7G24G17G07G26G08G28G11
 114989096.629 7  89602067.10645  21881705.828                    21881714.445
 113468298.754 7  88417049.81846  21592305.570                    21592313.629
 111160624.570 7  86618696.26546  21153164.570                    21153172.449
 119350950.025 7  93000869.42644  22711746.250                    22711755.648
 105139661.226 7  81927049.66246  20007409.250                    20007417.488
 113547811.667 8  88478859.58045  21607422.320                    21607429.344
 115177126.837 7  89748461.74844  21917469.602                    21917477.090
 11  7 23 21 21 30.0000000  0  7G24G17G07G26G08G28G11
 114985880.645 7  89599561.15045  21881094.117                    21881102.688
 113411559.107 7  88372837.14146  21581508.102                    21581516.293
 111226504.544 7  86670031.27446  21165701.273                    21165708.813
 119354338.073 7  93003509.47244  22712390.938                    22712400.480
 105146222.555 7  81932162.37046  20008658.086                    20008666.184
 113526019.506 7  88461878.68445  21603275.570                    21603282.270
 115224670.089 7  89785508.42245  21926516.633                    21926524.473
 11  7 23 21 22  0.0000000  0  7G24G17G07G26G08G28G11
 114983229.380 7  89597495.23445  21880588.602                    21880598.523
 113355185.031 8  88328909.32446  21570780.516                    21570788.711
 111292832.993 7  86721715.73946  21178323.070                    21178331.008
 119358326.577 6  93006617.38444  22713150.047                    22713159.102
 105153346.990 8  81937713.87346  20010013.695                    20010021.871
 113504276.026 7  88444935.71045  21599137.727                    21599144.410
 115272747.726 7  89822971.49345  21935665.563                    21935673.047
 11  7 23 21 22 30.0000000  0  7G24G17G07G26G08G28G11
 114981142.855 7  89595869.38345  21880192.008                    21880201.082
 113299176.053 7  88285266.00546  21560122.281                    21560130.551
 111359608.360 7  86773748.45046  21191030.484                    21191038.434
 119362913.915 7  93010191.93444  22714022.594                    22714032.449
 105161034.717 8  81943704.30146  20011476.898                    20011484.668
 113482580.705 7  88428030.27145  21595009.336                    21595016.637
 115321357.465 7  89860849.20945  21944915.656                    21944923.402
 11  7 23 21 23  0.0000000  0  7G24G17G07G26G08G28G11
 114979621.669 7  89594684.04445  21879902.594                    21879912.273
 113243532.344 7  88241907.30946  21549533.438                    21549541.645
 111426828.921 7  86826128.06246  21203821.586                    21203829.473
 119368098.742 6  93014232.04144  22715009.656                    22715019.090
 105169285.924 8  81950133.79846  20013046.711                    20013054.926
 113460933.393 7  88411162.24046  21590889.969                    21590897.348
 115370497.565 7  89899140.19045  21954266.406                    21954274.129
 11  7 23 21 23 30.0000000  0  7G24G17G07G26G08G28G11
 114978667.143 7  89593940.25945  21879720.719                    21879729.871
 113188255.155 7  88198834.20346  21539014.398                    21539022.652
 111494494.058 7  86878854.11246  21216698.219                    21216706.023
 119373881.030 6  93018737.70644  22716109.758                    22716118.910
 105178102.778 8  81957004.06246  20014724.508                    20014732.223
 113439335.007 7  88394332.34646  21586779.969                    21586787.270
 115420167.040 7  89937843.66545  21963718.594                    21963726.023
 11  7 23 21 24  0.0000000  0  7G24G17G07G26G08G28G11
 114978279.252 7  89593638.00245  21879647.063                    21879655.953
 113133343.911 7  88156046.25346  21528565.406                    21528573.488
 111562601.978 8  86931925.17546  21229659.047                    21229666.203
 119380258.839 7  93023707.41644  22717323.727                    22717332.426
 105187485.464 8  81964315.22546  20016510.109                    20016518.105
 113417784.988 7  88377540.13645  21582679.102                    21582686.203
 115470363.521 7  89976957.79845  21973270.672                    21973278.023
 11  7 23 21 24 30.0000000  0  7G24G17G07G26G08G28G11
 114978459.940 7  89593778.81045  21879681.203                    21879690.840
 113078800.423 7  88113544.86945  21518186.203                    21518194.141
 111631152.927 7  86985341.46246  21242703.578                    21242710.578
 119387232.886 6  93029141.74744  22718650.430                    22718659.996
 105197436.528 8  81972069.28946  20018404.055                    20018411.492
 113396285.238 7  88360787.09345  21578587.742                    21578594.684
 115521086.988 7  90016482.57445  21982922.836                    21982930.449
 11  7 23 21 25  0.0000000  0  7G24G17G07G26G08G28G11
 114979208.235 7  89594361.90345  21879823.703                    21879833.008
 113024623.184 7  88071328.86646  21507876.266                    21507884.254
 111700144.209 7  87039100.85746  21255831.977                    21255839.664
 119394800.533 6  93035038.58444  22720090.156                    22720100.309
 105207954.726 7  81980265.27846  20020405.313                    20020413.129
 113374834.010 7  88344071.85245  21574505.492                    21574512.359
 115572333.918 7  90056415.23744  21992675.422                    21992682.375
 11  7 23 21 25 30.0000000  0  7G24G17G07G26G08G28G11
 114980525.521 7  89595388.35645  21880074.789                    21880083.898
 112970813.712 7  88029399.44345  21497636.453                    21497645.289
 111769575.152 7  87093202.84545  21269044.148                    21269052.195
 119402961.449 7  93041397.70844  22721644.742                    22721653.629
 105219042.008 8  81988904.70046  20022515.266                    20022523.223
 113353432.773 7  88327395.58445  21570433.117                    21570440.148
 115624104.249 7  90096755.75145  22002526.563                    22002533.902
 11  7 23 21 26  0.0000000  0  7G24G17G07G26G08G28G11
 114982411.818 7  89596858.20945  21880433.164                    21880442.703
 112917371.747 7  87987756.38946  21487466.914                    21487475.207
 111839444.277 7  87147646.26745  21282339.945                    21282347.699
 119411714.229 7  93048218.05944  22723309.063                    22723318.328
 105230698.506 8  81997987.67846  20024733.570                    20024741.340
 113332080.947 8  88310757.79745  21566370.516                    21566376.945
 115676395.279 7  90137502.01345  22012477.398                    22012484.598
 11  7 23 21 26 30.0000000  0  7G24G17G07G26G08G28G11
 114984867.467 7  89598771.70545  21880900.813                    21880910.000
 112864297.234 7  87946399.67046  21477366.984                    21477375.430
 111909749.835 7  87202429.77246  21295718.813                    21295726.340
 119421057.492 7  93055498.51544  22725087.320                    22725096.008
 105242924.688 8  82007514.55646  20027060.102                    20027067.621
 113310778.877 7  88294158.80545  21562316.336                    21562323.629
 115729205.211 7  90178652.59144  22022526.367                    22022533.910
 11  7 23 21 27  0.0000000  0  7G24G17G07G26G08G28G11
 114987893.389 7  89601129.57645  21881476.383                    21881485.836
 112811590.846 7  87905329.79146  21467337.695                    21467345.938
 111980490.651 7  87257552.43745  21309180.281                    21309188.371
 119430990.501 7  93063238.50644  22726977.195                    22726986.270
 105255721.639 8  82017486.19946  20029495.539                    20029503.441
 113289527.222 7  88277599.08445  21558272.383                    21558279.570
 115782532.838 7  90220206.57744  22032674.656                    22032681.871
 11  7 23 21 27 30.0000000  0  7G24G17G07G26G08G28G11
 114991489.936 7  89603932.07845  21882161.219                    21882170.133
 112759253.155 7  87864547.22246  21457377.930                    21457386.020
 112051665.725 7  87313013.49045  21322724.016                    21322732.531
 119441512.190 7  93071437.21044  22728979.484                    22728988.988
 105269090.484 8  82027903.46846  20032039.445                    20032047.152
 113268326.281 7  88261078.88245  21554237.664                    21554244.340
 115836376.362 7  90262162.56544  22042920.461                    22042927.949
 11  7 23 21 28  0.0000000  0  7G24G17G07G26G08G28G11
 114995657.332 7  89607179.40345  21882953.766                    21882963.336
 112707283.701 8  87824051.58446  21447488.586                    21447496.891
 112123273.306 7  87368811.56345  21336350.828                    21336358.734
 119452620.928 7  93080093.35744  22731093.594                    22731102.465
 105283031.375 8  82038766.48346  20034692.219                    20034700.129
 113247175.780 7  88244597.98045  21550213.078                    21550219.934
 115890733.810 7  90304518.99744  22053264.414                    22053271.953
 11  7 23 21 28 30.0000000  0  7G24G17G07G26G08G28G11
 115000395.904 7  89610871.80445  21883855.938                    21883864.609
 112655682.768 8  87783843.09846  21437669.023                    21437676.973
 112195312.079 7  87424945.63546  21350059.297                    21350067.551
 119464315.650 7  93089206.13044  22733319.609                    22733328.910
 105297544.773 8  82050075.62246  20037454.086                    20037461.676
 113226076.082 7  88228156.66646  21546198.289                    21546204.492
 115945603.237 7  90347274.38544  22063705.938                    22063713.191
 11  7 23 21 29  0.0000000  0  7G24G17G07G26G08G28G11
 115005706.644 7  89615010.04945  21884866.023                    21884875.500
 112604451.269 8  87743922.48546  21427920.078                    21427928.340
 112267781.411 7  87481415.18745  21363850.156                    21363858.000
 119476595.782 6  93098775.06044  22735655.672                    22735665.250
 105312632.555 8  82061832.32446  20040324.977                    20040332.984
 113205028.476 8  88211755.93545  21542193.070                    21542199.008
 116000983.596 7  90390427.90244  22074244.016                    22074251.719
 11  7 23 21 29 30.0000000  0  7G24G17G07G26G08G28G11
 115011588.993 7  89619593.71045  21885985.688                    21885994.648
 112553588.519 8  87704289.20846  21418241.680                    21418249.348
 112340679.052 8  87538218.50946  21377722.031                    21377729.727
 119489458.839 7  93108798.20044  22738103.969                    22738112.852
 105328293.945 8  82074035.99946  20043305.414                    20043313.086
 113184032.015 8  88195395.07845  21538197.289                    21538204.023
 116056872.485 7  90433977.69244  22084879.617                    22084886.809
 11  7 23 21 30  0.0000000  0  7G24G17G07G26G08G28G11
 115018043.474 7  89624623.19045  21887213.953                    21887223.012
 112503094.812 7  87664943.49846  21408632.789                    21408640.504
 112414003.670 8  87595354.52346  21391675.109                    21391683.195
 119502904.006 7  93119274.94344  22740661.766                    22740671.609
 105344529.853 8  82086687.34946  20046395.188                    20046402.523
 113163087.223 8  88179074.47245  21534211.516                    21534218.531
 116113268.012 7  90477922.22944  22095611.539                    22095618.762
 11  7 23 21 30 30.0000000  0  7G24G17G07G26G08G28G11
 115025070.721 7  89630098.96845  21888551.164                    21888559.707
 112452970.890 7  87625885.94246  21399093.930                    21399102.199
 112487754.091 8  87652822.33646  21405709.648                    21405718.031
 119516930.275 7  93130204.50744  22743331.570                    22743340.602
 105361341.458 8  82099787.28846  20049593.781                    20049601.859
 113142194.983 8  88162794.80945  21530236.242                    21530243.051
 116170168.901 7  90522260.55544  22106438.859                    22106446.785
 11  7 23 21 31  0.0000000  0  7G24G17G07G26G08G28G11
 115032671.464 7  89636021.61645  21889997.039                    21890006.492
 112403216.863 8  87587116.59546  21389626.258                    21389634.617
 112561928.845 7  87710620.79846  21419824.461                    21419832.883
 119531536.590 7  93141586.02844  22746111.141                    22746120.371
 105378729.653 8  82113336.51646  20052902.875                    20052910.754
 113121355.857 8  88146556.54045  21526270.375                    21526276.863
 116227573.429 7  90566991.35344  22117363.672                    22117371.016
 11  7 23 21 31 30.0000000  0  7G24G17G07G26G08G28G11
 115040845.163 7  89642390.74245  21891553.180                    21891562.008
 112353832.518 8  87548635.32246  21380228.820                    21380237.344
 112636526.228 8  87768748.58646  21434020.063                    21434028.152
 119546721.047 7  93153418.06444  22749000.859                    22749010.102
 105396694.184 8  82127334.84746  20056321.844                    20056329.504
 113100569.415 8  88130359.31245  21522315.094                    21522321.988
 116285479.022 7  90612112.56444  22128381.922                    22128390.055
 11  7 23 21 32  0.0000000  0  7G24G17G07G26G08G28G11
 115049592.215 7  89649206.63645  21893217.820                    21893226.863
 112304817.907 7  87510442.15546  21370901.750                    21370909.691
 112711545.000 7  87827204.72545  21448295.305                    21448303.480
 119562482.274 7  93165699.52644  22751999.383                    22752008.801
 105415235.587 8  82141782.68046  20059850.008                    20059857.605
 113079836.337 8  88114203.68045  21518369.227                    21518376.113
 116343884.053 7  90657622.96744  22139496.078                    22139503.805
 11  7 23 21 32 30.0000000  0  7G24G17G07G26G08G28G11
 115058912.812 7  89656469.42945  21894991.469                    21895000.637
 112256173.019 7  87472537.07946  21361644.922                    21361653.254
 112786983.121 8  87885987.62645  21462651.375                    21462659.102
 119578818.708 7  93178429.20744  22755107.820                    22755118.246
 105434353.966 8  82156680.10746  20063487.602                    20063495.934
 113059156.669 8  88098089.64445  21514434.453                    21514441.184
 116402786.367 7  90703520.86044  22150704.914                    22150713.371
 11  7 23 21 33  0.0000000  0  7G24G17G07G26G08G28G11
 115068806.910 7  89664179.11045  21896873.742                    21896882.734
 112207898.274 8  87434920.41546  21352458.523                    21352466.461
 112862839.515 8  87945096.45945  21477086.016                    21477094.230
 119595729.093 7  93191606.11844  22758325.906                    22758335.844
 105454050.378 8  82172027.93946  20067236.047                    20067244.215
 113038530.893 8  88082017.61945  21510509.234                    21510516.258
 116462184.332 7  90749804.96244  22162008.031                    22162015.664
 11  7 23 21 33 30.0000000  0  7G24G17G07G26G08G28G11
 115079274.865 7  89672335.96745  21898866.063                    21898875.020
 112159993.582 8  87397592.11946  21343342.406                    21343350.664
 112939112.425 8  88004529.84746  21491600.383                    21491608.934
 119613211.957 7  93205229.11144  22761652.648                    22761662.770
 105474325.105 8  82187826.41546  20071094.109                    20071102.578
 113017959.628 7  88065988.05745  21506594.617                    21506601.914
 116522076.108 7  90796473.86344  22173404.758                    22173412.387
 11  7 23 21 34  0.0000000  0  7G24G17G07G26G08G28G11
 115090316.977 7  89680940.21545  21900967.344                    21900976.148
 112112459.401 7  87360552.53246  21334297.039                    21334305.020
 113015800.906 7  88064287.05145  21506193.344                    21506201.652
 119631266.092 7  93219297.25944  22765088.953                    22765097.875
 105495178.801 8  82204076.02446  20075062.063                    20075069.902
 112997443.765 7  88050001.66846  21502690.516                    21502697.117
 116582459.783 7  90843526.04745  22184896.219                    22184903.539
 11  7 23 21 34 30.0000000  0  7G24G17G07G26G08G28G11
 115101932.851 7  89689991.55645  21903177.406                    21903186.422
 112065295.318 8  87323801.32446  21325321.867                    21325329.691
 113092902.685 7  88124366.31045  21520865.820                    21520873.910
 119649889.405 7  93233808.92044  22768633.188                    22768641.820
 105516611.234 8  82220776.60946  20079140.750                    20079148.789
 112976982.795 8  88034058.05745  21498797.164                    21498803.668
 116643332.897 7  90890959.61245  22196479.398                    22196486.996
 11  7 23 21 35  0.0000000  0  7G24G17G07G26G08G28G11
 115114122.561 7  89699490.02445  21905497.141                    21905506.332
 112018501.482 8  87287338.62446  21316417.289                    21316424.965
 113170416.069 8  88184766.30445  21535615.922                    21535624.141
 119669080.433 6  93248762.92744  22772285.203                    22772294.133
 105538622.749 8  82237928.41546  20083329.633                    20083337.168
 112956577.136 8  88018157.54046  21494913.852                    21494920.703
 116704693.732 7  90938773.22344  22208156.008                    22208163.684
 11  7 23 21 35 30.0000000  0  7G24G17G07G26G08G28G11
 115126886.284 7  89709435.78845  21907926.070                    21907935.219
 111972077.599 8  87251164.20046  21307583.406                    21307590.875
 113248339.538 7  88245485.83845  21550444.469                    21550452.340
 119688837.702 6  93264158.19044  22776044.063                    22776053.508
 105561213.857 8  82255531.85346  20087628.539                    20087636.656
 112936227.491 8  88002300.68746  21491041.297                    21491048.805
 116766540.296 7  90986965.32444  22219925.078                    22219932.906
 11  7 23 21 36  0.0000000  0  7G24G17G07G26G08G28G11
 115140224.324 7  89719829.07245  21910464.758                    21910473.383
 111926024.326 8  87215278.55746  21298819.586                    21298827.320
 113326672.013 7  88306524.07945  21565350.914                    21565359.109
 119709159.910 6  93279993.63844  22779911.539                    22779920.727
 105584385.167 8  82273587.40946  20092037.711                    20092045.492
 112915934.441 8  87986487.93445  21487179.797                    21487186.559
 116828870.839 7  91035534.57044  22231786.898                    22231793.789
 11  7 23 21 36 30.0000000  0  7G24G17G07G26G08G28G11
 115154135.954 7  89730669.32345  21913111.297                    21913120.688
 111880341.017 8  87179681.20346  21290125.984                    21290133.949
 113405411.255 8  88367879.28345  21580334.172                    21580341.855
 119730044.551 7  93296267.36844  22783886.125                    22783894.930
 105608136.131 8  82292094.64046  20096557.422                    20096565.805
 112895697.777 8  87970719.10246  21483329.047                    21483335.941
 116891682.615 7  91084478.77444  22243738.891                    22243746.863
 11  7 23 21 37  0.0000000  0  7G24G17G07G26G08G28G11
 115168621.986 7  89741957.14045  21915867.750                    21915876.941
 111835028.475 8  87144372.75546  21281503.430                    21281511.320
 113484556.481 8  88429550.84645  21595395.438                    21595403.387
 119751491.044 7  93312978.90944  22787966.625                    22787976.414
 105632468.273 8  82311054.73446  20101187.719                    20101196.117
 112875519.058 8  87954995.44445  21479489.391                    21479496.098
 116954974.300 7  91133796.94444  22255783.164                    22255790.863
 11  7 23 21 37 30.0000000  0  7G24G17G07G26G08G28G11
 115183681.455 7  89753691.80745  21918733.688                    21918742.992
 111790085.492 8  87109352.28246  21272951.188                    21272959.129
 113564104.920 8  88491536.59545  21610533.102                    21610540.602
 119773497.029 6  93330126.41744  22792154.039                    22792164.000
 105657380.531 8  82330466.86546  20105928.563                    20105936.656
 112855397.743 8  87939316.50745  21475660.023                    21475666.984
 117018743.419 7  91183487.13844  22267918.250                    22267925.234
 11  7 23 21 38  0.0000000  0  7G24G17G07G26G08G28G11
 115199314.712 7  89765873.56545  21921708.570                    21921717.746
 111745512.821 8  87074620.35146  21264469.273                    21264477.332
 113644055.480 7  88553835.68845  21625746.648                    21625755.020
 119796061.096 6  93347708.77844  22796447.672                    22796457.621
 105682873.615 8  82350331.58946  20110779.672                    20110787.266
 112835334.474 8  87923682.80545  21471842.414                    21471849.402
 117082987.883 7  91233547.73844  22280143.070                    22280150.609
 11  7 23 21 38 30.0000000  0  7G24G17G07G26G08G28G11
 115215521.583 7  89778502.29645  21924792.773                    21924801.934
 111701310.425 8  87040176.96446  21256057.438                    21256065.727
 113724406.463 7  88616446.78446  21641037.070                    21641045.297
 119819181.340 6  93365724.55344  22800848.039                    22800857.371
 105708948.070 8  82370649.32446  20115741.820                    20115749.445
 112815329.928 8  87908094.85345  21468035.539                    21468042.480
 117147706.036 7  91283977.45744  22292458.445                    22292466.336
 11  7 23 21 39  0.0000000  0  7G24G17G07G26G08G28G11
 115232302.478 7  89791578.32345  21927986.047                    21927995.070
 111657478.706 8  87006022.41846  21247716.477                    21247724.578
 113805156.835 8  88679369.09045  21656403.344                    21656411.594
 119842856.816 7  93384172.95244  22805353.570                    22805362.922
 105735604.520 8  82391420.56846  20120814.266                    20120822.074
 112795385.256 8  87892553.56945  21464240.219                    21464247.547
 117212896.223 7  91334774.99444  22304863.617                    22304871.313
 11  7 23 21 39 30.0000000  0  7G24G17G07G26G08G28G11
 115249655.838 7  89805100.43445  21931288.117                    21931296.602
 111614016.364 8  86972155.68246  21239445.906                    21239453.949
 113886303.580 7  88742600.27545  21671845.039                    21671853.582
 119867084.286 6  93403051.48244  22809963.617                    22809973.359
 105762841.399 8  82412644.09746  20125997.070                    20126004.980
 112775499.504 8  87877058.18946  21460455.961                    21460462.801
 117278554.945 7  91385937.59344  22317358.680                    22317365.652
 11  7 23 21 40  0.0000000  0  7G24G17G07G26G08G28G11
 115267582.978 7  89819069.64245  21934699.813                    21934708.137
 111570924.643 8  86938577.75046  21231245.742                    21231253.699
 113967845.944 7  88806139.73045  21687362.617                    21687370.336
 119891863.273 7  93422359.77244  22814679.016                    22814688.898
 105790660.268 8  82434321.12646  20131291.148                    20131299.188
 112755674.625 8  87861610.24146  21456683.430                    21456690.359
 117344681.209 7  91437464.54544  22329941.680                    22329949.129
 11  7 23 21 40 30.0000000  0  7G24G17G07G26G08G28G11
 115286082.821 7  89833485.11445  21938220.094                    21938228.738
 111528202.359 8  86905287.70146  21223116.211                    21223124.012
 114049781.649 7  88869985.68845  21702954.117                    21702962.734
 119917191.417 7  93442095.97244  22819498.711                    22819508.203
 105819060.368 8  82456451.05046  20136695.578                    20136702.813
 112735910.158 8  87846209.38145  21452922.344                    21452928.844
 117411272.149 7  91489353.55944  22342613.625                    22342621.164
 11  7 23 21 41  0.0000000  0  7G24G17G07G26G08G28G11
 115305155.141 7  89848346.67945  21941849.094                    21941858.063
 111485849.721 8  86872285.67846  21215056.836                    21215064.750
 114132109.267 7  88934137.01445  21718620.492                    21718628.926
 119943066.802 6  93462258.60944  22824422.617                    22824432.477
 105848041.951 8  82479034.08546  20142210.594                    20142218.438
 112716207.312 8  87830856.51045  21449173.031                    21449179.980
 117478325.942 7  91541603.23744  22355373.797                    22355381.141
 11  7 23 21 41 30.0000000  0  7G24G17G07G26G08G28G11
 115324799.377 7  89863653.88445  21945587.023                    21945596.477
 111443866.455 8  86839571.48746  21207067.523                    21207075.652
 114214826.410 7  88998591.88045  21734361.305                    21734369.543
 119969487.318 7  93482846.00044  22829450.500                    22829460.227
 105877604.725 8  82502069.99146  20147836.242                    20147844.117
 112696565.339 8  87815551.08845  21445435.242                    21445441.789
 117545840.129 7  91594211.65544  22368221.664                    22368228.770
 11  7 23 21 42  0.0000000  0  7G24G17G07G26G08G28G11
 115345016.072 7  89879407.17145  21949434.844                    21949443.906
 111402253.014 8  86807145.45846  21199148.609                    21199156.621
 114297932.012 7  89063349.43545  21750175.742                    21750184.133
 119996451.624 7  93503857.15044  22834581.063                    22834591.637
 105907749.449 8  82525559.36946  20153572.438                    20153580.434
 112676985.936 8  87800294.41645  21441709.180                    21441716.492
 117613813.080 7  91647177.57644  22381156.703                    22381164.141
 11  7 23 21 42 30.0000000  0  7G24G17G07G26G08G28G11
 115365804.509 7  89895605.95745  21953390.109                    21953400.254
 111361009.135 8  86775007.40646  21191300.156                    21191308.070
 114381424.120 7  89128408.16245  21766063.969                    21766071.398
 120023957.713 7  93525290.41444  22839816.047                    22839824.762
 105938475.902 8  82549502.03746  20159419.344                    20159427.066
 112657469.697 8  87785086.97445  21437995.469                    21438002.508
 117682242.421 7  91700499.11644  22394177.758                    22394185.156
 11  7 23 21 43  0.0000000  0  7G24G17G07G26G08G28G11
 115387163.105 7  89912249.01545  21957455.133                    21957463.879
 111320133.130 8  86743156.00146  21183521.469                    21183529.594
 114465300.260 7  89193766.13345  21782025.094                    21782033.574
 120052002.592 7  93547143.54444  22845152.898                    22845162.105
 105969782.637 8  82573896.87246  20165376.852                    20165384.891
 112638015.694 8  87769927.99745  21434293.945                    21434300.387
 117751125.074 7  91754173.89944  22407285.570                    22407293.258
 11  7 23 21 43 30.0000000  0  7G24G17G07G26G08G28G11
 115409093.288 7  89929337.50045  21961628.531                    21961637.121
 111279626.715 8  86711592.60146  21175814.047                    21175821.863
 114549559.402 7  89259422.55045  21798058.945                    21798067.402
 120080585.830 7  93569416.15744  22850592.109                    22850601.477
 106001671.606 8  82598745.40246  20171445.383                    20171453.160
 112618626.321 8  87754819.39145  21430604.234                    21430610.852
 117820460.249 7  91808201.30844  22420479.820                    22420487.406
 11  7 23 21 44  0.0000000  0  7G24G17G07G26G08G28G11
 115431593.830 7  89946870.40345  21965909.711                    21965918.984
 111239488.839 8  86680316.36446  21168175.773                    21168183.738
 114634199.185 7  89325375.57045  21814165.828                    21814173.453
 120109704.743 7  93592106.19644  22856132.664                    22856142.824
 106034141.542 8  82624046.64446  20177623.961                    20177632.172
 112599300.964 8  87739760.67445  21426926.789                    21426933.664
 117890244.713 7  91862578.77844  22433759.586                    22433767.223
 11  7 23 21 44 30.0000000  0  7G24G17G07G26G08G28G11
 115454664.324 7  89964847.42145  21970299.813                    21970308.938
 111199719.491 8  86649327.30246  21160608.227                    21160615.402
 114719218.263 7  89391624.14545  21830344.305                    21830352.512
 120139357.318 7  93615212.03844  22861775.672                    22861785.148
 106067192.656 8  82649800.74646  20183913.500                    20183921.410
 112580040.747 8  87724752.71046  21423261.531                    21423268.145
 117960476.358 7  91917304.71644  22447124.211                    22447131.273
 11  7 23 21 45  0.0000000  0  7G24G17G07G26G08G28G11
 115478304.344 7  89983268.23445  21974797.992                    21974807.609
 111160318.412 8  86618625.19146  21153109.844                    21153117.598
 114804614.331 7  89458166.46645  21846594.680                    21846602.676
 120169541.581 7  93638732.20744  22867519.398                    22867529.316
 106100824.333 8  82676007.21846  20190313.297                    20190321.461
 112560846.179 8  87709795.90146  21419609.008                    21419615.699
 118031153.081 7  91972377.47144  22460573.414                    22460580.984
 11  7 23 21 45 30.0000000  0  7G24G17G07G26G08G28G11
 115502513.482 7  90002132.49645  21979404.922                    21979414.492
 111121285.563 8  86588210.00746  21145682.352                    21145690.191
 114890385.736 7  89525001.27445  21862916.367                    21862924.730
 120200255.614 7  93662665.16944  22873364.703                    22873374.063
 106135036.694 8  82702666.18646  20196823.672                    20196831.680
 112541718.061 8  87694890.87146  21415968.953                    21415975.945
 118102272.646 7  92027795.28644  22474106.672                    22474114.477
 11  7 23 21 46  0.0000000  0  7G24G17G07G26G08G28G11
 115527291.039 7  90021439.68545  21984120.500                    21984129.125
 111082620.360 8  86558081.29746  21138324.453                    21138332.633
 114976530.550 7  89592127.03645  21879309.547                    21879317.969
 120231497.279 6  93687009.28744  22879308.844                    22879318.867
 106169829.704 8  82729777.60346  20203444.820                    20203452.328
 112522656.771 8  87680037.91846  21412341.469                    21412348.238
 118173832.856 7  92083556.47144  22487724.438                    22487732.113
 11  7 23 21 46 30.0000000  0  7G24G17G07G26G08G28G11
 115552636.340 7  90041189.27945  21988943.297                    21988952.367
 111044322.210 8  86528238.60946  21131036.383                    21131044.238
 115063046.780 7  89659542.22345  21895772.719                    21895780.848
 120263264.181 7  93711762.68344  22885354.461                    22885364.098
 106205202.740 8  82757340.99446  20210175.984                    20210183.969
 112503662.646 8  87665237.30545  21408727.281                    21408734.219
 118245831.184 7  92139659.03944  22501425.656                    22501433.023
 11  7 23 21 47  0.0000000  0  8G24G17G07G26G08G04G28G11
 115578548.599 7  90061380.64545  21993873.695                    21993883.453
 111006391.032 8  86498681.86146  21123818.250                    21123826.180
 115149932.146 7  89727245.03745  21912306.781                    21912314.859
 120295554.168 7  93736923.68744  22891498.859                    22891508.395
 106241155.280 8  82785355.94146  20217017.688                    20217025.102
 129166218.11316 100649108.76952  24579525.867                    24579541.648
 112484736.152 8  87650489.39346  21405125.602                    21405132.445
 118318265.091 7  92196101.02844  22515208.906                    22515216.762
 11  7 23 21 47 30.0000000  0  8G24G17G07G26G08G04G28G11
 115605026.573 7  90082012.83345  21998913.117                    21998922.250
 110968825.649 8  86469410.14746  21116669.641                    21116678.043
 115237183.843 7  89795233.31245  21928910.352                    21928918.594
 120328364.212 7  93762489.94044  22897742.094                    22897752.652
 106277686.492 8  82813821.80946  20223969.063                    20223976.906
 129052794.280 6 100560727.07542  24557941.477                    24557958.094
 112465876.996 8  87635793.95146  21401536.734                    21401543.859
 118391131.436 7  92252879.95944  22529074.813                    22529082.461
 11  7 23 21 48  0.0000000  0  8G24G17G07G26G08G04G28G11
 115632070.595 7  90103086.08845  22004059.133                    22004068.410
 110931626.800 8  86440424.05346  21109591.438                    21109598.805
 115324801.224 7  89863506.52345  21945582.805                    21945591.594
 120361693.182 7  93788460.54044  22904084.664                    22904094.770
 106314796.658 8  82842738.80046  20231030.820                    20231039.113
 128939313.916 6 100472301.31043  24536346.906                    24536363.137
 112447087.036 8  87621152.41046  21397961.336                    21397967.992
 118464428.759 7  92309994.73044  22543023.813                    22543030.531
 11  7 23 21 48 30.0000000  0  8G24G17G07G26G08G04G28G11
 115659680.012 7  90124599.90545  22009313.227                    22009322.121
 110894794.352 8  86411723.46846  21102582.648                    21102590.270
 115412782.346 7  89932063.17445  21962325.758                    21962334.078
 120395539.118 6  93814833.98844  22910525.516                    22910535.105
 106352485.523 8  82872106.72446  20238203.008                    20238211.258
 128825780.405 6 100383834.09043  24514741.969                    24514757.676
 112428367.094 8  87606565.44546  21394399.109                    21394405.742
 118538154.783 7  92367443.56944  22557052.602                    22557060.473
 11  7 23 21 49  0.0000000  0  8G24G17G07G26G08G04G28G11
 115687854.315 7  90146553.90845  22014674.172                    22014683.684
 110858327.944 8  86383308.10746  21095643.133                    21095651.148
 115501125.535 7  90000901.96345  21979136.773                    21979145.289
 120429899.720 7  93841608.45344  22917064.008                    22917074.063
 106390753.219 8  82901925.68446  20245485.242                    20245493.113
 128712195.988 6 100295327.24643  24493126.633                    24493142.625
 112409717.639 8  87592033.40645  21390850.133                    21390856.992
 118612307.345 7  92425224.73544  22571163.398                    22571171.359
 11  7 23 21 49 30.0000000  0  8G24G17G07G26G08G04G28G11
 115716593.328 7  90168947.94145  22020143.109                    22020152.473
 110822227.899 8  86355178.22746  21088773.578                    21088781.176
 115589828.872 7  90070021.38245  21996016.508                    21996025.379
 120464773.557 7  93868782.87144  22923700.211                    22923710.008
 106429600.014 8  82932195.89846  20252877.305                    20252885.020
 128598563.894 6 100206783.23043  24471503.188                    24471519.004
 112391140.377 8  87577557.63846  21387314.625                    21387321.746
 118686884.966 7  92483337.12844  22585355.125                    22585362.789
 11  7 23 21 50  0.0000000  0  8G24G17G07G26G08G04G28G11
 115745895.669 7  90191780.92445  22025718.945                    22025728.266
 110786493.289 8  86327333.09946  21081972.820                    21081980.605
 115678890.036 7  90139419.63445  22012964.547                    22012972.766
 120500157.684 7  93896354.90444  22930434.305                    22930443.133
 106469024.330 8  82962916.11846  20260379.422                    20260387.457
 128484886.275 6 100118203.73543  24449870.117                    24449886.500
 112372635.195 8  87563138.02246  21383793.531                    21383800.230
 118761884.627 7  92541778.40744  22599626.852                    22599634.383
 11  7 23 21 50 30.0000000  0  8G24G17G07G26G08G04G28G11
 115775760.573 7  90215052.26745  22031402.102                    22031411.363
 110751123.427 8  86299772.19546  21075242.586                    21075250.527
 115768306.807 7  90209094.99445  22029979.742                    22029988.168
 120536049.656 7  93924322.66244  22937263.883                    22937273.781
 106509025.733 8  82994086.03246  20267991.508                    20267999.609
 128371165.477 6 100029590.56042  24428229.930                    24428245.477
 112354202.274 8  87548774.71646  21380285.797                    21380292.609
 118837303.462 7  92600546.31344  22613978.898                    22613986.324
 11  7 23 21 51  0.0000000  0  8G24G17G07G26G08G04G28G11
 115806187.684 7  90238761.68845  22037192.875                    22037201.273
 110716118.513 8  86272495.67046  21068581.711                    21068589.109
 115858077.661 7  90279046.24145  22047062.133                    22047070.715
 120572447.371 7  93952684.52244  22944190.109                    22944199.707
 106549604.443 8  83025705.77946  20275713.570                    20275721.430
 128257404.479 6  99940946.12442  24406581.461                    24406596.566
 112335842.893 8  87534468.71246  21376792.164                    21376798.742
 118913139.631 7  92659639.39144  22628409.992                    22628417.473
 11  7 23 21 51 30.0000000  0  8G24G17G07G26G08G04G28G11
 115837175.883 7  90262908.32045  22043089.523                    22043098.898
 110681477.665 8  86245502.81846  21061989.367                    21061997.078
 115948200.226 7  90349271.54745  22064212.531                    22064220.977
 120609348.628 7  93981438.72244  22951211.734                    22951222.242
 106590759.439 8  83057774.57546  20283544.898                    20283553.250
 128143605.542 6  99852272.05842  24384926.188                    24384941.434
 112317557.453 8  87520220.33346  21373312.242                    21373319.734
 118989390.477 7  92719055.60544  22642919.594                    22642928.266
 11  7 23 21 52  0.0000000  0  8G24G17G07G26G08G04G28G11
 115868724.558 7  90287491.70745  22049093.289                    22049102.039
 110647201.103 8  86218793.83746  21055466.680                    21055474.492
 116038672.749 7  90419769.55045  22081428.656                    22081437.230
 120646751.223 7  94010583.59444  22958329.641                    22958339.461
 106632490.722 8  83090292.44146  20291486.578                    20291494.508
 128029771.635 6  99763570.76142  24363264.055                    24363278.813
 112299347.087 8  87506030.44145  21369847.211                    21369853.891
 119066054.139 7  92778793.48944  22657509.211                    22657516.383
 11  7 23 21 52 30.0000000  0  8G24G17G07G26G08G04G28G11
 115900832.535 7  90312510.88345  22055202.891                    22055212.426
 110613287.391 8  86192367.60246  21049013.445                    21049021.137
 116129492.595 7  90490538.18145  22098711.055                    22098720.105
 120684652.432 7  94040116.95844  22965542.109                    22965552.051
 106674796.765 8  83123258.15746  20299537.391                    20299544.578
 127915904.840 6  99674843.79942  24341595.227                    24341610.727
 112281211.906 8  87491899.14246  21366396.266                    21366403.094
 119143127.141 7  92838850.33544  22672175.461                    22672183.430
 11  7 23 21 53  0.0000000  0  8G24G17G07G26G08G04G28G11
 115933499.442 7  90337965.60745  22061419.492                    22061428.199
 110579737.223 8  86166224.64546  21042628.938                    21042636.406
 116220658.487 7  90561576.44945  22116059.703                    22116068.227
 120723050.487 7  94070037.48144  22972848.844                    22972858.832
 106717677.826 8  83156671.94846  20307697.070                    20307705.203
 127802008.463 6  99586093.76843  24319921.828                    24319936.301
 112263153.331 8  87477827.53046  21362959.602                    21362966.547
 119220607.891 7  92899224.92944  22686919.117                    22686927.250
 11  7 23 21 53 30.0000000  0  8G24G17G07G26G08G04G28G11
 115966724.059 7  90363854.91645  22067741.586                    22067750.633
 110546549.571 8  86140364.17246  21036313.305                    21036320.918
 116312167.829 7  90632882.36445  22133473.047                    22133481.676
 120761942.329 7  94100342.78044  22980250.352                    22980259.441
 106761132.884 8  83190533.00446  20315966.008                    20315973.953
 127688084.703 6  99497322.39643  24298242.063                    24298257.180
 112245171.612 8  87463815.80546  21359537.813                    21359544.848
 119298493.713 7  92959915.13144  22701740.516                    22701748.273
 11  7 23 21 54  0.0000000  0  8G24G17G07G26G08G04G28G11
 116000505.611 7  90390178.17044  22074170.352                    22074179.055
 110513724.171 8  86114785.96646  21030066.617                    21030074.051
 116404018.691 7  90704454.38545  22150952.188                    22150960.527
 120801325.905 7  94131031.20544  22987745.047                    22987753.688
 106805161.322 8  83224840.86046  20324344.586                    20324352.457
 127574136.201 6  99408531.73543  24276558.086                    24276572.965
 112227267.586 7  87449864.61845  21356130.813                    21356137.902
 119376782.096 7  93020919.05644  22716638.547                    22716646.129
 11  7 23 21 54 30.0000000  0  8G24G17G07G26G08G04G28G11
 116034842.622 7  90416934.26145  22080704.414                    22080712.668
 110481260.750 8  86089489.82446  21023888.859                    21023896.695
 116496208.851 7  90776290.79145  22168495.359                    22168503.645
 120841198.566 7  94162100.77344  22995332.180                    22995341.320
 106849762.174 8  83259594.74246  20332831.664                    20332839.855
 127460165.484 6  99319723.75843  24254869.930                    24254885.000
 112209441.843 8  87435974.43446  21352738.641                    21352745.383
 119455470.340 7  93082234.52444  22731612.328                    22731619.906
 11  7 23 21 55  0.0000000  0  8G24G17G07G26G08G04G28G11
 116069734.336 7  90444122.60045  22087344.078                    22087352.676
 110449158.108 8  86064474.81946  21017780.148                    21017788.324
 116588736.067 7  90848389.82945  22186102.820                    22186111.410
 120881557.895 7  94193549.55544  23003012.719                    23003021.922
 106894934.978 8  83294794.30546  20341428.133                    20341436.066
 127346175.154 6  99230900.43443  24233177.680                    24233192.941
 112191695.054 8  87422145.77746  21349361.625                    21349368.441
 119534556.107 7  93143859.78044  22746661.961                    22746669.645
 11  7 23 21 55 30.0000000  0  8G24G17G07G26G08G04G28G11
 116105180.061 7  90471742.63744  22094088.836                    22094098.324
 110417416.263 8  86039740.94246  21011739.742                    21011747.863
 116681598.679 7  90920750.22745  22203773.766                    22203782.852
 120922401.638 7  94225375.79644  23010785.109                    23010794.691
 106940679.314 8  83330439.22346  20350132.953                    20350141.105
 127232168.032 6  99142064.07543  24211483.664                    24211498.051
 112174028.361 8  87408379.52045  21345999.852                    21346006.145
 119614037.058 7  93205792.94944  22761786.500                    22761794.434
 11  7 23 21 56  0.0000000  0  8G24G17G07G26G08G04G28G11
 116141178.822 7  90499793.60345  22100939.484                    22100948.668
 110386034.673 8  86015287.79646  21005768.516                    21005776.070
 116774794.291 7  90993370.09745  22221508.313                    22221517.262
 120963727.300 7  94257577.53944  23018648.406                    23018658.426
 106986994.375 8  83366528.85246  20358946.148                    20358954.125
 127118146.993 6  99053216.81043  24189785.375                    24189799.730
 112156442.360 8  87394676.15446  21342653.063                    21342659.934
 119693910.717 7  93268032.12744  22776986.375                    22776993.711
 11  7 23 21 56 30.0000000  0  8G24G17G07G26G08G04G28G11
 116177729.199 7  90528274.40545  22107894.891                    22107903.426
 110355012.699 8  85991114.85646  20999865.000                    20999872.754
 116868320.742 7  91066247.75945  22239306.453                    22239314.980
 121005532.104 7  94290152.69744  23026604.188                    23026613.355
 107033879.096 8  83403062.36546  20367868.430                    20367876.039
 127004114.210 6  98964360.42743  24168085.289                    24168100.086
 112138937.674 8  87381036.13545  21339321.852                    21339328.777
 119774174.600 7  93330575.38044  22792259.914                    22792267.340
 11  7 23 21 57  0.0000000  0  8G24G17G07G26G08G04G28G11
 116214830.295 7  90557184.33545  22114954.078                    22114963.707
 110324349.874 8  85967221.77846  20994030.156                    20994037.527
 116962175.816 7  91139381.50345  22257166.250                    22257174.941
 121047813.793 7  94323099.43344  23034650.180                    23034659.723
 107081332.658 8  83440039.14146  20376898.102                    20376906.145
 126890072.601 6  98875497.11843  24146383.883                    24146397.941
 112121515.109 8  87367460.10545  21336006.719                    21336013.523
 119854826.125 7  93393420.68144  22807606.773                    22807614.813
 11  7 23 21 57 30.0000000  0  8G24G17G07G26G08G04G28G11
 116252481.176 7  90586522.65944  22122119.844                    22122128.992
 110294045.850 8  85943608.29346  20988263.445                    20988270.617
 117056357.758 7  91212769.93245  22275088.766                    22275096.957
 121090569.796 7  94356415.77144  23042786.438                    23042795.602
 107129354.353 8  83477458.61246  20386036.750                    20386044.328
 126776025.210 6  98786629.34543  24124680.688                    24124696.047
 112104175.656 8  87353948.83645  21332706.867                    21332713.949
 119935862.909 7  93456566.18544  22823027.789                    22823036.059
 11  7 23 21 58  0.0000000  0  8G24G17G07G26G08G04G28G11
 116290680.225 7  90616288.13144  22129388.531                    22129397.453
 110264099.513 8  85920273.50846  20982564.609                    20982572.203
 117150863.345 7  91286410.58545  22293072.227                    22293080.840
 121133797.521 7  94390099.68444  23051011.844                    23051022.160
 107177942.965 8  83515319.83446  20395282.625                    20395290.258
 126661973.922 6  98697758.51143  24102977.508                    24102991.898
 112086919.658 8  87340502.60245  21329423.523                    21329430.230
 120017281.968 6  93520009.56244  22838522.289                    22838529.598
 11  7 23 21 58 30.0000000  0  8G24G17G07G26G08G04G28G11
 116329427.189 7  90646480.57044  22136761.734                    22136771.184
 110234511.153 8  85897217.67246  20976934.102                    20976941.840
 117245691.433 7  91360302.53145  22311117.602                    22311126.082
 121177494.815 7  94424149.51644  23059327.734                    23059337.086
 107227098.532 8  83553622.83646  20404636.641                    20404644.617
 126547922.159 6  98608887.27943  24081274.023                    24081288.301
 112069748.638 8  87327122.57746  21326155.961                    21326162.848
 120099081.454 6  93583749.38644  22854087.008                    22854095.621
 11  7 23 21 59  0.0000000  0  8G24G17G07G26G08G04G28G11
 116368720.640 7  90677098.82944  22144239.703                    22144248.574
 110205279.719 8  85874439.95646  20971371.406                    20971379.215
 117340839.391 7  91434443.71345  22329223.422                    22329232.098
 121221658.553 7  94458562.81144  23067731.148                    23067741.273
 107276819.415 8  83592366.34746  20414098.516                    20414106.367
 126433872.363 6  98520017.59742  24059570.063                    24059584.672
 112052663.126 8  87313809.18846  21322904.273                    21322911.355
 120181258.242 7  93647783.18944  22869725.695                    22869733.137
 11  7 23 21 59 30.0000000  0  8G24G17G07G26G08G04G28G11
 116408559.073 7  90708141.77044  22151820.172                    22151829.266
 110176404.930 8  85851940.15146  20965877.094                    20965884.516
 117436305.296 7  91508832.65444  22347390.102                    22347398.910
 121266286.207 7  94493337.59244  23076223.680                    23076233.262
 107327104.911 8  83631549.81746  20423667.469                    20423675.617
 126319827.203 6  98431151.53442  24037868.766                    24037882.102
 112035663.841 8  87300562.98546  21319669.813                    21319676.934
 120263810.306 7  93712109.43044  22885435.133                    22885442.422
 11  7 23 22  0  0.0000000  0  8G24G17G07G26G08G04G28G11
 116448941.778 7  90739608.80144  22159504.844                    22159513.965
 110147886.342 8  85829717.90146  20960449.922                    20960457.316
 117532087.212 7  91583467.81945  22365616.641                    22365625.883
 121311375.759 7  94528472.29144  23084804.805                    23084813.891
 107377954.644 8  83671172.95446  20433343.633                    20433351.539
 126205789.862 6  98342291.63543  24016167.547                    24016181.758
 112018752.169 8  87287385.04846  21316451.641                    21316458.547
 120346735.275 7  93776726.25944  22901214.727                    22901222.500
 11  7 23 22  0 30.0000000  0  8G24G17G07G26G08G04G28G11
 116489866.690 7  90771498.33444  22167292.656                    22167301.660
 110119722.399 8  85807771.98646  20955090.578                    20955097.891
 117628182.062 7  91658346.83345  22383903.313                    22383912.188
 121356923.567 7  94563964.07744  23093471.367                    23093481.531
 107429366.480 8  83711234.08746  20443127.234                    20443135.289
 126091761.959 6  98253439.07843  23994468.094                    23994482.602
 112001927.554 8  87274274.95046  21313250.055                    21313257.121
 120430029.618 7  93841630.91344  22917065.055                    22917072.926
 11  7 23 22  1  0.0000000  0  8G24G17G07G26G08G04G28G11
 116531332.940 7  90803809.69644  22175183.320                    22175192.750
 110091912.816 8  85786102.20746  20949798.188                    20949805.973
 117724587.794 7  91733468.09845  22402248.680                    22402257.453
 121402927.335 7  94599811.13744  23102225.805                    23102235.883
 107481339.876 8  83751732.80846  20453017.430                    20453025.391
 125977746.838 6  98164596.42143  23972772.055                    23972785.766
 111985191.635 8  87261233.97546  21310065.422                    21310072.410
 120513691.556 7  93906821.98344  22932985.391                    22932993.039
 11  7 23 22  1 30.0000000  0  8G24G17G07G26G08G04G28G11
 116573340.163 7  90836542.58745  22183177.352                    22183186.797
 110064457.953 8  85764708.83546  20944574.023                    20944581.859
 117821303.071 7  91808830.57145  22420653.336                    22420661.871
 121449385.226 7  94636012.04244  23111066.492                    23111076.246
 107533874.538 8  83792668.87946  20463014.313                    20463022.430
 125863747.650 6  98075766.22743  23951078.320                    23951092.094
 111968546.114 8  87248263.44646  21306897.813                    21306904.824
 120597718.770 7  93972297.70743  22948975.445                    22948982.945
 11  7 23 22  2  0.0000000  0  8G24G17G07G26G08G04G28G11
 116615885.909 7  90869695.12244  22191273.141                    22191282.207
 110037356.221 8  85743590.62446  20939416.453                    20939424.484
 117918325.044 7  91884432.01345  22439116.047                    22439125.191
 121496293.580 7  94672563.96744  23119992.281                    23120002.473
 107586968.658 8  83834040.89246  20473117.734                    20473126.098
 125749766.561 6  97986950.09243  23929388.055                    23929401.930
 111951991.183 8  87235363.50146  21303747.516                    21303754.191
 120682108.143 7  94038055.62343  22965034.016                    22965042.191
 11  7 23 22  2 30.0000000  0  8G24G17G07G26G08G04G28G11
 116658969.222 7  90903266.53944  22199471.523                    22199480.805
 110010607.305 8  85722747.33946  20934326.805                    20934334.098
 118015651.153 7  91960270.44445  22457636.594                    22457645.977
 121543650.040 7  94709465.06844  23129004.242                    23129013.910
 107640621.470 8  83875848.24946  20483327.555                    20483335.863
 125635806.523 6  97898150.41243  23907702.164                    23907715.887
 111935527.559 8  87222534.70946  21300614.297                    21300621.113
 120766857.337 7  94104093.90544  22981161.766                    22981169.148
 11  7 23 22  3  0.0000000  0  8G24G17G07G26G08G04G28G11
 116702589.131 7  90937256.06444  22207772.250                    22207781.633
 109984210.713 8  85702178.58446  20929303.430                    20929310.930
 118113279.505 7  92036344.38945  22476214.648                    22476223.898
 121591452.195 7  94746713.42944  23138101.445                    23138110.992
 107694831.911 8  83918090.12246  20493643.516                    20493651.609
 125521870.274 6  97809369.21743  23886020.719                    23886034.406
 111919156.311 8  87209777.89446  21297499.398                    21297506.340
 120851963.623 7  94170410.45843  22997356.625                    22997364.113
 11  7 23 22  3 30.0000000  0  8G24G17G07G26G08G04G28G11
 116746744.088 7  90971662.52845  22216175.094                    22216183.910
 109958166.150 8  85681884.14546  20924347.102                    20924354.758
 118211208.102 7  92112652.30045  22494849.797                    22494858.910
 121639697.306 7  94784306.97744  23147281.602                    23147291.730
 107749599.281 8  83960765.96346  20504065.398                    20504073.793
 125407960.744 6  97720608.85143  23864344.805                    23864357.250
 111902878.630 8  87197093.98446  21294401.648                    21294408.695
 120937424.904 7  94237003.64343  23013619.422                    23013626.430
 11  7 23 22  4  0.0000000  0  8G24G17G07G26G08G04G28G11
 116791432.326 7  91006484.51545  22224678.383                    22224687.500
 109932471.719 8  85661862.52946  20919457.586                    20919465.430
 118309434.173 7  92189191.98745  22513541.563                    22513550.770
 121688382.081 7  94822243.09544  23156546.469                    23156555.809
 107804921.261 8  84003873.96946  20514593.477                    20514600.766
 125294080.125 6  97631871.04443  23842673.578                    23842686.512
 111886694.661 8  87184483.10846  21291321.969                    21291328.461
 121023237.798 7  94303870.80243  23029949.391                    23029957.020
 11  7 23 22  4 30.0000000  0  8G24G17G07G26G08G04G28G11
 116836652.952 7  91041721.36644  22233283.625                    22233292.633
 109907127.473 8  85642113.78746  20914634.742                    20914642.453
 118407955.623 7  92265961.84745  22532289.422                    22532298.848
 121737504.212 7  94860520.05544  23165893.805                    23165903.313
 107860797.335 8  84047413.73446  20525225.664                    20525233.953
 125180231.500 6  97543158.13943  23821008.242                    23821021.855
 111870605.825 8  87171946.36246  21288260.336                    21288267.180
 121109400.306 7  94371010.39344  23046344.766                    23046353.316
 11  7 23 22  5  0.0000000  0  8G24G17G07G26G08G04G28G11
 116882404.415 7  91077371.85344  22241989.992                    22241999.328
 109882133.019 8  85622637.60846  20909878.266                    20909886.395
 118506770.224 7  92342960.14745  22551093.313                    22551102.625
 121787060.933 7  94899135.63544  23175324.266                    23175333.949
 107917226.454 8  84091384.44846  20535963.914                    20535972.191
 125066417.736 6  97454472.34843  23799350.359                    23799363.488
 111854613.094 8  87159484.49846  21285216.906                    21285223.957
 121195909.813 7  94438420.34343  23062807.305                    23062814.859
 11  7 23 22  5 30.0000000  0  8G24G17G07G26G08G04G28G11
 116928685.282 7  91113434.85445  22250796.977                    22250806.418
 109857487.324 8  85603433.19846  20905188.711                    20905196.523
 118605875.596 7  92420185.03344  22569952.453                    22569962.258
 121837049.462 7  94938087.68444  23184836.852                    23184846.676
 107974207.440 8  84135785.17946  20546807.086                    20546815.238
 124952641.519 6  97365815.83943  23777698.969                    23777712.359
 111838717.294 8  87147098.16446  21282191.977                    21282198.820
 121282763.499 7  94506098.49243  23079334.969                    23079343.160
 11  7 23 22  6  0.0000000  0  8G24G17G07G26G08G04G28G11
 116975493.870 7  91149909.08045  22259704.289                    22259713.629
 109833189.702 8  85584499.99646  20900564.734                    20900572.227
 118705269.021 7  92497634.36145  22588867.266                    22588876.336
 121887466.791 7  94977373.88844  23194431.094                    23194440.953
 108031738.757 8  84180614.74046  20557754.750                    20557762.629
 124838905.355 6  97277190.53143  23756055.117                    23756068.395
 111822919.251 8  87134788.00445  21279185.711                    21279192.641
 121369958.804 7  94574042.80243  23095928.422                    23095936.242
 11  7 23 22  6 30.0000000  0  8G24G17G07G26G08G04G28G11
 117022829.371 7  91186793.86745  22268712.117                    22268721.461
 109809239.873 8  85565837.81046  20896007.117                    20896015.145
 118804949.425 7  92575307.30445  22607835.523                    22607844.887
 121938310.654 7  95016992.44744  23204106.594                    23204115.281
 108089819.922 8  84225872.75846  20568807.367                    20568815.387
 124725212.785 7  97188599.20743  23734420.453                    23734432.766
 111807220.395 8  87122555.12846  21276198.391                    21276205.371
 121457493.676 6  94642251.75744  23112585.258                    23112593.473
 11  7 23 22  7  0.0000000  0  9G24G17G07G26G08G04G15G28G11
 117070689.513 7  91224087.49645  22277819.664                    22277828.746
 109785636.301 8  85547445.43146  20891515.875                    20891523.324
 118904913.250 7  92653201.09945  22626857.984                    22626867.527
 121989577.450 7  95056940.57844  23213862.625                    23213871.855
 108148448.604 8  84271557.41546  20579964.531                    20579972.367
 124611565.859 7  97100043.40143  23712793.375                    23712806.125
 130381064.02716 101595846.37452  24810733.344                    24810743.559
 111791621.047 8  87110399.79746  21273229.727                    21273236.605
 121545364.693 6  94710722.63843  23129306.914                    23129314.969
 11  7 23 22  7 30.0000000  0  9G24G17G07G26G08G04G15G28G11
 117119072.804 7  91261788.73645  22287026.586                    22287035.891
 109762378.279 8  85529322.31146  20887089.945                    20887097.551
 119005158.384 7  92731314.10645  22645934.375                    22645943.082
 122041264.502 7  95097216.17544  23223697.594                    23223707.125
 108207623.815 8  84317667.94346  20591225.008                    20591233.387
 124497967.148 7  97011525.16443  23691176.727                    23691188.824
 130374341.194 6 101590607.77343  24809453.484                    24809464.332
 111776121.983 8  87098322.59745  21270280.633                    21270287.637
 121633569.187 7  94779453.37443  23146091.555                    23146099.406
 11  7 23 22  8  0.0000000  0  9G24G17G07G26G08G04G15G28G11
 117167978.394 7  91299896.96745  22296333.047                    22296342.063
 109739465.900 8  85511468.53246  20882729.945                    20882737.176
 119105683.049 7  92809644.92844  22665063.414                    22665072.547
 122093369.506 7  95137817.45244  23233612.711                    23233622.477
 108267344.867 8  84364203.79646  20602589.750                    20602597.977
 124384420.289 7  96923047.36343  23669569.297                    23669581.340
 130368081.522 6 101585730.09443  24808263.469                    24808273.660
 111760724.922 8  87086324.89346  21267350.453                    21267357.434
 121722105.390 6  94848442.59443  23162939.703                    23162947.766
 11  7 23 22  8 30.0000000  0  9G24G17G07G26G08G04G15G28G11
 117217404.338 7  91338410.68244  22305739.023                    22305747.465
 109716897.795 8  85493883.00946  20878435.477                    20878442.656
 119206484.324 7  92888191.28145  22684245.352                    22684254.453
 122145889.212 7  95178741.85344  23243607.758                    23243616.504
 108327609.612 8  84411163.30246  20614057.438                    20614065.457
 124270927.507 6  96834611.67043  23647971.773                    23647984.414
 130362284.293 6 101581212.80343  24807159.258                    24807170.578
 111745430.411 8  87074407.09545  21264440.320                    21264446.801
 121810969.972 7  94917687.67244  23179849.813                    23179858.238
 11  7 23 22  9  0.0000000  0  9G24G17G07G26G08G04G15G28G11
 117267349.065 7  91377328.64044  22315242.820                    22315251.594
 109694673.618 8  85476565.48646  20874206.102                    20874213.578
 119307560.264 7  92966951.65144  22703479.383                    22703489.059
 122198820.938 7  95219987.32644  23253679.398                    23253689.461
 108388417.202 8  84458545.80246  20625628.656                    20625637.020
 124157491.924 6  96746220.57443  23626384.898                    23626398.715
 130356949.227 6 101577055.53143  24806144.539                    24806154.969
 111730239.626 8  87062570.10946  21261549.633                    21261556.059
 121900160.769 6  94987186.94343  23196822.227                    23196829.965
 11  7 23 22  9 30.0000000  0  9G24G17G07G26G08G04G15G28G11
 117317810.956 7  91416649.59244  22324845.461                    22324854.523
 109672792.338 8  85459515.14946  20870042.555                    20870049.734
 119408908.179 7  93045923.95545  22722765.828                    22722774.711
 122252161.802 6  95261551.57744  23263830.641                    23263840.234
 108449766.126 8  84506350.12446  20637303.273                    20637311.484
 124044116.118 6  96657876.05343  23604809.781                    23604823.035
 130352075.115 6 101573257.49043  24805217.977                    24805227.605
 111715153.330 8  87050814.55846  21258679.102                    21258685.586
 121989674.894 6  95056938.14843  23213856.094                    23213863.996
 11  7 23 22 10  0.0000000  0  9G24G17G07G26G08G04G15G28G11
 117368788.985 7  91456372.71144  22334546.211                    22334555.258
 109651253.542 8  85442731.69346  20865943.367                    20865951.043
 119510526.095 7  93125106.64044  22742102.516                    22742112.422
 122305909.063 7  95303432.51044  23274058.148                    23274068.133
 108511655.132 8  84554575.28546  20649080.117                    20649088.551
 123930803.352 6  96569580.62443  23583246.758                    23583260.414
 130347661.845 5 101569818.59842  24804376.992                    24804387.641
 111700173.021 8  87039141.58246  21255828.039                    21255835.379
 122079510.137 7  95126939.60543  23230951.555                    23230959.809
 11  7 23 22 10 30.0000000  0  9G24G17G07G26G08G04G15G28G11
 117420281.362 7  91496496.63944  22344344.391                    22344354.184
 109630056.260 8  85426214.34746  20861909.484                    20861917.254
 119612411.488 7  93204497.72444  22761490.875                    22761500.938
 122360059.587 7  95345627.67044  23284362.977                    23284372.355
 108574082.784 8  84603220.17446  20660959.766                    20660967.805
 123817556.208 6  96481336.28243  23561697.773                    23561710.117
 130343708.153 5 101566737.83442  24803624.133                    24803634.262
 111685299.542 8  87027551.86446  21252997.641                    21253004.387
 122169663.534 7  95197188.94244  23248107.641                    23248115.547
 11  7 23 22 11  0.0000000  0  9G24G17G07G26G08G04G15G28G11
 117472286.070 7  91537019.76045  22354240.953                    22354250.125
 109609199.189 8  85409962.09146  20857940.359                    20857948.371
 119714562.039 7  93284095.41745  22780929.875                    22780939.613
 122414610.437 6  95388134.79644  23294743.328                    23294753.012
 108637047.232 8  84652283.35646  20672941.227                    20672949.852
 123704377.318 6  96393145.14344  23540160.055                    23540172.570
 130340213.353 5 101564014.63342  24802958.906                    24802969.941
 111670533.610 8  87016045.93946  21250188.133                    21250194.684
 122260132.432 6  95267684.15543  23265322.836                    23265330.867
 11  7 23 22 11 30.0000000  0  9G24G17G07G26G08G04G15G28G11
 117524801.407 7  91577940.80444  22364234.133                    22364243.531
 109588681.889 8  85393974.59546  20854036.742                    20854044.016
 119816975.212 7  93363897.75645  22800418.461                    22800428.340
 122469558.707 7  95430951.53844  23305199.523                    23305209.867
 108700546.953 8  84701763.61146  20685025.164                    20685034.090
 123591269.422 7  96305009.33343  23518635.742                    23518648.445
 130337177.067 6 101561648.63242  24802383.086                    24802392.109
 111655876.097 8  87004624.48746  21247398.695                    21247405.512
 122350914.127 6  95338423.09143  23282598.117                    23282605.516
 11  7 23 22 12  0.0000000  0  9G24G17G07G26G08G04G15G28G11
 117577825.476 7  91619258.23645  22374324.438                    22374333.344
 109568503.306 8  85378251.03846  20850196.430                    20850204.008
 119919648.542 6  93443902.82644  22819956.359                    22819966.355
 122524901.283 6  95474075.55444  23315730.266                    23315741.348
 108764580.743 8  84751660.03546  20697210.281                    20697218.887
 123478235.537 7  96216931.18343  23497126.359                    23497138.469
 130334598.017 6 101559638.92042  24801891.469                    24801901.941
 111641328.305 8  86993288.54546  21244630.273                    21244636.863
 122442005.941 6  95409403.71743  23299932.055                    23299939.453
 11  7 23 22 12 30.0000000  0  9G24G17G07G26G08G04G15G28G11
 117631357.098 7  91660971.17244  22384511.500                    22384519.973
 109548663.109 8  85362791.15946  20846420.758                    20846428.586
 120022580.001 7  93524109.01145  22839543.773                    22839553.891
 122580635.513 6  95517504.77743  23326337.328                    23326346.535
 108829146.986 8  84801971.35246  20709496.938                    20709505.273
 123365278.610 6  96128913.01243  23475631.117                    23475643.418
 130332475.814 6 101557985.27042  24801487.828                    24801497.949
 111626891.410 8  86982039.00946  21241883.289                    21241889.688
 122533405.731 6  95480624.24243  23317324.789                    23317332.695
 11  7 23 22 13  0.0000000  0  9G24G17G07G26G08G04G15G28G11
 117685394.048 7  91703077.86644  22394794.109                    22394803.273
 109529160.029 8  85347593.96346  20842709.719                    20842717.570
 120125766.486 7  93604513.91744  22859179.805                    22859189.359
 122636758.133 7  95561236.62544  23337016.570                    23337026.445
 108894243.813 8  84852696.10846  20721884.727                    20721892.746
 123252401.008 6  96040956.64343  23454151.070                    23454162.797
 130330809.148 6 101556686.53043  24801170.461                    24801180.824
 111612565.785 8  86970876.18446  21239157.008                    21239163.703
 122625110.459 6  95552082.45043  23334775.602                    23334783.785
 11  7 23 22 13 30.0000000  0  9G24G17G07G26G08G04G15G28G11
 117739935.261 7  91745577.50544  22405172.891                    22405182.492
 109509993.791 8  85332659.24346  20839062.664                    20839070.371
 120229206.443 7  93685116.36044  22878863.703                    22878873.047
 122693266.941 6  95605269.37944  23347770.258                    23347780.008
 108959870.350 8  84903833.63946  20734372.859                    20734380.883
 123139606.446 6  95953064.92843  23432687.297                    23432698.957
 130329598.210 6 101555742.88343  24800940.352                    24800950.910
 111598353.622 8  86959801.77646  21236452.438                    21236459.043
 122717117.523 6  95623776.21643  23352283.875                    23352291.848
 11  7 23 22 14  0.0000000  0  9G24G17G07G26G08G04G15G28G11
 117794977.988 7  91788467.92444  22415647.563                    22415656.496
 109491162.331 8  85317985.39046  20835478.750                    20835486.020
 120332896.339 7  93765913.54344  22898595.727                    22898604.883
 122750157.802 7  95649599.83844  23358596.805                    23358606.215
 109026023.849 8  84955381.77246  20746961.711                    20746969.789
 123026896.659 6  95865239.33543  23411238.922                    23411250.844
 130328841.224 6 101555153.00443  24800796.273                    24800806.145
 111584254.621 8  86948815.53446  21233769.680                    21233776.770
 122809423.836 6  95695703.13943  23369849.563                    23369857.688
 11  7 23 22 14 30.0000000  0  9G24G17G07G26G08G04G15G28G11
 117850521.173 7  91831748.30944  22426216.492                    22426225.707
 109472665.964 8  85303572.63646  20831959.563                    20831966.926
 120436834.789 7  93846904.43844  22918374.406                    22918383.078
 122807428.678 7  95694226.45644  23369494.672                    23369504.602
 109092703.586 8  85007339.97046  20759650.539                    20759658.555
 122914275.124 6  95777482.55843  23389806.773                    23389819.445
 130328537.390 6 101554916.20843  24800738.914                    24800748.168
 111570270.948 8  86937919.16846  21231108.711                    21231115.566
 122902027.443 6  95767861.74643  23387471.734                    23387479.680
 11  7 23 22 15  0.0000000  0  9G24G17G07G26G08G04G15G28G11
 117906562.728 7  91875417.02944  22436881.367                    22436890.195
 109454503.286 8  85289419.90646  20828503.102                    20828510.605
 120541018.977 7  93928086.80644  22938200.148                    22938209.074
 122865075.863 7  95739146.27844  23380464.359                    23380474.234
 109159907.679 8  85059706.75646  20772439.031                    20772447.168
 122801744.428 6  95689796.49743  23368392.828                    23368405.500
 130328685.681 6 101555031.78542  24800766.508                    24800776.211
 111556402.883 8  86927112.87946  21228469.508                    21228476.367
 122994925.315 6  95840249.66743  23405150.008                    23405157.395
 11  7 23 22 15 30.0000000  0  9G24G17G07G26G08G04G15G28G11
 117963101.702 7  91919473.35444  22447640.180                    22447649.191
 109436674.178 8  85275527.10846  20825110.445                    20825117.617
 120645447.184 7  94009459.31144  22958072.273                    22958080.746
 122923097.340 7  95784357.77044  23391505.563                    23391515.969
 109227635.615 8  85112481.73245  20785326.969                    20785335.750
 122689308.357 6  95602184.23944  23346997.203                    23347009.656
 130329286.024 6 101555499.61343  24800881.359                    24800890.867
 111542652.648 8  86916398.40946  21225852.984                    21225859.996
 123088115.666 6  95912865.50043  23422883.078                    23422891.008
 11  7 23 22 16  0.0000000  0  9G24G17G07G26G08G04G15G28G11
 118020135.608 7  91963915.32044  22458493.313                    22458502.387
 109419177.147 8  85261893.07546  20821780.859                    20821788.344
 120750116.221 7  94091019.47444  22977990.063                    22977999.699
 122981489.178 7  95829857.83744  23402616.969                    23402627.563
 109295884.626 8  85165662.73446  20798314.609                    20798323.047
 122576968.894 6  95514647.21044  23325619.516                    23325631.777
 130330337.008 6 101556318.56843  24801080.633                    24801091.012
 111529020.371 8  86905775.85346  21223258.914                    21223265.664
 123181594.889 6  95985706.38543  23440671.570                    23440679.586
 11  7 23 22 16 30.0000000  0  9G24G17G07G26G08G04G15G28G11
 118077662.208 7  92008741.21944  22469440.211                    22469449.445
 109402010.957 7  85248516.82146  20818514.469                    20818521.520
 120855023.383 6  94172765.18544  22997953.695                    22997962.551
 123040248.180 7  95875644.00144  23413798.477                    23413809.441
 109364652.746 8  85219248.24045  20811401.000                    20811408.914
 122464728.577 7  95427187.42844  23304260.133                    23304272.738
 130331837.277 7 101557487.56343  24801366.914                    24801376.480
 111515507.034 7  86895245.98446  21220687.344                    21220694.324
 123275360.086 6  96058770.12443  23458514.445                    23458523.016
 11  7 23 22 17  0.0000000  0 10G24G17G07G26G08G04G15G27G28G11
 118135680.396 7  92053950.18844  22480481.141                    22480490.164
 109385175.402 8  85235398.22246  20815310.242                    20815317.672
 120960166.687 7  94254694.89044  23017961.258                    23017971.699
 123099371.950 7  95921714.39744  23425049.891                    23425060.410
 109433938.837 8  85273237.34846  20824585.688                    20824593.785
 122352591.073 7  95339807.75344  23282921.773                    23282934.004
 130333786.447 6 101559006.37843  24801737.422                    24801747.594
 132099175.36516 102934468.43352  25137637.773                    25137649.004
 111502114.425 8  86884810.18746  21218138.742                    21218145.625
 123369409.305 7  96132055.16643  23476411.977                    23476419.730
 11  7 23 22 17 30.0000000  0 11G24G17G07G26G08G04G15G27G01G28G11
 118194186.694 7  92099539.49144  22491614.711                    22491623.648
 109368668.179 8  85222535.45746  20812168.977                    20812176.742
 121065542.683 7  94336805.88744  23038014.867                    23038023.766
 123158856.160 7  95968065.63844  23436369.695                    23436379.262
 109503739.876 8  85327627.73446  20837868.117                    20837876.117
 122240557.683 7  95252509.21244  23261602.250                    23261614.082
 130336182.402 6 101560873.29343  24802193.648                    24802203.145
 132007088.187 6 102862712.25542  25120115.648                    25120125.480
 131135241.12316                  24954171.484
 111488841.756 8  86874467.84246  21215612.930                    21215619.992
 123463738.515 6  96205558.41543  23494361.945                    23494370.563
 11  7 23 22 18  0.0000000  0 11G24G17G07G26G08G04G15G27G01G28G11
 118253182.200 7  92145510.00544  22502841.047                    22502850.180
 109352491.152 8  85209929.99446  20809091.023                    20809098.281
 121171151.330 7  94419098.18845  23058110.625                    23058120.742
 123218700.574 7  96014697.58544  23447757.688                    23447767.578
 109574056.636 8  85382419.96045  20851248.984                    20851257.879
 122128634.381 7  95165296.43544  23240304.375                    23240315.957
 130339026.718 6 101563089.63343  24802733.781                    24802744.719
 131915106.055 5 102791037.89742  25102611.203                    25102622.176
 131025753.148 6                  24933336.359
 111475693.552 8  86864222.48246  21213110.688                    21213117.938
 123558348.233 6  96279280.23144  23512365.625                    23512374.371
 11  7 23 22 18 30.0000000  0 11G24G17G07G26G08G04G15G27G01G28G11
 118312663.048 7  92191858.70944  22514159.500                    22514168.707
 109336641.400 8  85197579.54346  20806074.953                    20806082.039
 121276988.470 7  94501568.52144  23078251.180                    23078260.969
 123278900.001 7  96061606.14144  23459212.211                    23459223.012
 109644885.384 8  85437611.15345  20864727.297                    20864735.746
 122016821.762 6  95078169.93843  23219026.102                    23219038.469
 130342316.390 6 101565652.98343  24803360.508                    24803370.438
 131823229.107 6 102719445.53343  25085128.234                    25085138.621
 130916258.609 6                  24912500.367
 111462668.836 7  86854073.35846  21210632.547                    21210639.289
 123653233.446 6  96353216.69743  23530421.539                    23530430.813
 11  7 23 22 19  0.0000000  0 11G24G17G07G26G08G04G15G27G01G28G11
 118372627.213 7  92238584.00344  22525570.570                    22525579.930
 109321118.246 8  85185483.59246  20803120.938                    20803127.875
 121383051.408 7  94584214.81844  23098434.078                    23098444.281
 123339451.536 7  96108789.08344  23470736.023                    23470746.012
 109716224.470 8  85493199.98545  20878302.531                    20878311.238
 121905122.888 6  94991132.02743  23197770.648                    23197781.641
 130346050.396 6 101568562.59243  24804070.891                    24804081.191
 131731459.600 6 102647936.85243  25067664.523                    25067675.090
 130806759.998 6                  24891663.203
 111449768.167 8  86844020.89246  21208177.500                    21208184.250
 123748391.537 6  96427365.82643  23548529.430                    23548538.430
 11  7 23 22 19 30.0000000  0 11G24G17G07G26G08G04G15G27G01G28G11
 118433072.949 7  92285684.53744  22537072.906                    22537082.094
 109305920.577 8  85173641.26046  20800228.617                    20800236.051
 121489337.893 7  94667035.30644  23118659.766                    23118669.793
 123400352.074 7  96156243.96444  23482324.742                    23482334.988
 109788071.922 7  85549184.95946  20891974.898                    20891983.645
 121793540.784 7  94904185.11143  23176537.141                    23176548.855
 130350227.696 6 101571817.59143  24804866.414                    24804876.082
 131639799.828 6 102576513.75543  25050222.695                    25050232.480
 130697259.886 6                  24870825.375
 111436993.701 7  86834066.75346  21205746.516                    21205753.586
 123843820.183 6  96501725.69943  23566689.250                    23566697.609
 11  7 23 22 20  0.0000000  0 11G24G17G07G26G08G04G15G27G01G28G11
 118493998.245 7  92333158.78644  22548666.359                    22548675.535
 109291047.611 7  85162051.94646  20797398.742                    20797405.980
 121595845.871 7  94750028.37944  23138928.453                    23138937.906
 123461598.609 7  96203968.47044  23493979.273                    23493989.652
 109860426.570 7  85605565.15845  20905743.836                    20905752.754
 121682078.331 6  94817331.41943  23155326.961                    23155337.227
 130354847.438 6 101575417.40443  24805744.438                    24805755.113
 131548251.968 6 102505177.89243  25032801.094                    25032811.414
 130587760.654 6                  24849988.250
 111424346.395 7  86824211.70346  21203339.750                    21203347.215
 123939516.676 6  96576294.33943  23584899.695                    23584907.031
 11  7 23 22 20 30.0000000  0 11G24G17G07G26G08G04G15G27G01G28G11
 118555401.412 7  92381005.37544  22560350.852                    22560360.566
 109276498.728 8  85150715.16846  20794629.828                    20794637.492
 121702572.796 7  94833192.04344  23159238.125                    23159247.434
 123523188.211 7  96251960.28144  23505699.727                    23505710.344
 109933286.358 7  85662338.96345  20919608.250                    20919617.133
 121570738.636 7  94730573.40844  23134139.008                    23134150.148
 130359908.459 6 101579361.02243  24806707.859                    24806718.188
 131456818.427 6 102433931.01343  25015402.313                    25015411.672
 130478264.775 6                  24829151.000
 111411827.556 8  86814456.76646  21200957.789                    21200964.820
 124035478.488 6  96651069.75443  23603160.352                    23603168.770
 11  7 23 22 21  0.0000000  0 11G24G17G07G26G08G04G15G27G01G28G11
 118617280.311 7  92429222.68844  22572126.211                    22572135.641
 109262272.540 8  85139629.85246  20791922.930                    20791930.598
 121809515.882 7  94916524.15844  23179588.164                    23179597.742
 123585117.661 7  96300216.92744  23517485.078                    23517495.520
 110006649.518 7  85719505.01545  20933568.672                    20933577.102
 121459524.307 7  94643913.08343  23112975.266                    23112986.277
 130365409.831 6 101583647.74943  24807755.125                    24807765.434
 131365501.404 6 102362774.96643  24998025.180                    24998035.152
 130368774.555 6                  24808315.484
 111399437.845 8  86804802.44346  21198599.766                    21198607.121
 124131702.817 6  96726049.71843  23621471.266                    23621479.605
 11  7 23 22 21 30.0000000  0 11G24G17G07G26G08G04G15G27G01G28G11
 118679632.679 7  92477808.90744  22583991.617                    22584001.469
 109248367.942 7  85128795.11246  20789276.773                    20789284.258
 121916672.655 6  95000022.76744  23199979.680                    23199989.703
 123647383.624 6  96348735.76543  23529333.250                    23529343.715
 110080513.834 7  85777061.57945  20947625.297                    20947633.855
 121348438.004 7  94557352.51544  23091836.742                    23091847.855
 130371349.910 6 101588276.32043  24808884.664                    24808895.582
 131274302.503 6 102291710.96043  24980670.547                    24980680.152
 130259292.267 6                  24787482.109
 111387178.096 7  86795249.38046  21196267.078                    21196273.742
 124228186.846 6  96801232.03643  23639830.977                    23639840.160
 11  7 23 22 22  0.0000000  0 11G24G17G07G26G08G04G15G27G01G28G11
 118742456.793 7  92526762.76044  22595946.594                    22595955.918
 109234784.042 7  85118210.26846  20786691.633                    20786699.160
 122024040.558 6  95083685.92144  23220410.875                    23220420.535
 123709983.240 6  96397514.61943  23541245.844                    23541256.332
 110154877.249 7  85835007.05246  20961776.117                    20961784.531
 121237482.937 7  94470894.23843  23070722.336                    23070733.559
 130377727.882 6 101593246.11943  24810099.211                    24810109.727
 131183224.331 6 102220741.02143  24963338.688                    24963349.086
 130149820.431 6                  24766648.391
 111375050.008 7  86785798.91546  21193959.438                    21193965.766
 124324928.155 6  96876614.80043  23658241.523                    23658249.492
 11  7 23 22 22 30.0000000  0 11G24G17G07G26G08G04G15G27G01G28G11
 118805750.705 7  92576082.63144  22607991.406                    22608000.676
 109221520.158 7  85107874.79546  20784167.820                    20784175.066
 122131617.407 6  95167511.88243  23240882.719                    23240892.258
 123772913.460 6  96446551.08543  23553220.180                    23553231.781
 110229738.400 7  85893340.36446  20976021.195                    20976029.918
 121126662.161 7  94384540.57244  23049633.344                    23049644.617
 130384542.729 6 101598556.36343  24811396.195                    24811406.266
 131092269.174 6 102149866.96243  24946030.234                    24946040.488
 130040361.594 6                  24745819.914
 111363055.091 7  86776452.22246  21191676.867                    21191683.422
 124421924.039 6  96952195.99543  23676699.109                    23676707.137
 11  7 23 22 23  0.0000000  0 11G24G17G07G26G08G04G15G27G01G28G11
 118869512.000 7  92625766.76244  22620124.641                    22620133.855
 109208575.213 8  85097787.83546  20781704.430                    20781711.766
 122239400.353 7  95251498.43244  23261392.438                    23261403.090
 123836170.980 7  96495842.58343  23565258.234                    23565269.141
 110305094.829 7  85952059.60945  20990361.766                    20990370.137
 121015978.256 7  94298293.58944  23028570.945                    23028581.914
 130391792.955 6 101604205.85243  24812776.063                    24812786.113
 131001439.214 6 102079090.43143  24928746.453                    24928756.301
 129930918.118 6                  24724994.016
 111351193.934 7  86767209.74846  21189419.516                    21189426.371
 124519171.951 6  97027973.54543  23695204.047                    23695212.496
 11  7 23 22 23 30.0000000  0 11G24G17G07G26G08G04G15G27G01G28G11
 118933738.630 7  92675813.46244  22632346.047                    22632355.828
 109195948.135 8  85087948.56346  20779301.648                    20779308.902
 122347386.981 7  95335643.68444  23281942.344                    23281952.754
 123899752.498 7  96545386.51343  23577357.867                    23577368.457
 110380944.423 7  86011163.14745  21004795.352                    21004803.570
 120905434.190 7  94212155.55844  23007535.188                    23007546.383
 130399477.200 6 101610193.57443  24814237.836                    24814247.965
 130910736.517 6 102008413.05343  24911485.922                    24911495.852
 129821492.162 6                  24704169.828
 111339467.682 8  86758072.40146  21187187.836                    21187194.816
 124616668.964 6  97103945.23543  23713757.258                    23713766.223
 11  7 23 22 24  0.0000000  0 11G24G17G07G26G08G04G15G27G01G28G11
 118998428.966 7  92726221.51544  22644656.320                    22644665.859
 109183638.361 8  85078356.54446  20776958.969                    20776966.398
 122455575.238 7  95419946.03344  23302530.453                    23302540.855
 123963655.146 6  96595180.71943  23589517.953                    23589528.141
 110457285.804 7  86070649.88845  21019322.242                    21019331.133
 120795033.126 7  94126128.93144  22986525.805                    22986537.879
 130407594.689 6 101616518.85543  24815782.508                    24815792.539
 130820163.416 6 101937836.73943  24894249.711                    24894260.418
 129712086.670 6                  24683351.063
 111327877.995 8  86749041.47546  21184982.570                    21184989.652
 124714412.835 6  97180109.23843  23732357.641                    23732366.750
 11  7 23 22 24 30.0000000  0 11G24G17G07G26G08G04G15G27G01G28G11
 119063580.520 7  92776988.92744  22657054.391                    22657063.574
 109171644.130 8  85069010.39946  20774676.594                    20774684.297
 122563961.808 7  95504402.93344  23323155.789                    23323165.891
 124027875.410 6  96645222.38743  23601738.727                    23601749.172
 110534116.329 7  86130517.78345  21033942.727                    21033951.242
 120684777.472 7  94040215.62644  22965544.844                    22965555.574
 130416143.712 6 101623180.40043  24817410.016                    24817420.203
 130729721.744 6 101867362.79343  24877039.633                    24877049.020
 129602703.246 6                  24662534.930
 111316425.599 8  86740117.53046  21182803.133                    21182809.914
 124812400.485 6  97256463.20443  23751004.266                    23751013.309
 11  7 23 22 25  0.0000000  0 11G24G17G07G26G08G04G15G27G01G28G11
 119129191.412 7  92828114.29044  22669539.492                    22669549.441
 109159965.062 8  85059909.84546  20772454.055                    20772461.551
 122672544.764 7  95589012.83944  23343818.672                    23343828.910
 124092410.643 7  96695509.51143  23614020.047                    23614029.695
 110611434.375 8  86190765.55745  21048655.891                    21048664.449
 120574670.498 7  93954418.14644  22944591.984                    22944603.172
 130425123.454 6 101630177.56243  24819119.203                    24819128.754
 130639414.273 6 101796993.37543  24859854.781                    24859864.070
 129493345.153 6                  24641724.828
 111305112.044 8  86731301.77146  21180650.438                    21180657.473
 124910629.620 6  97333005.32043  23769697.227                    23769705.023
 11  7 23 22 25 30.0000000  0 11G24G17G07G26G08G04G15G27G01G28G11
 119195259.730 7  92879596.06144  22682112.539                    22682122.008
 109148599.886 8  85051053.88146  20770291.539                    20770298.555
 122781321.596 7  95673773.84244  23364518.352                    23364528.586
 124157257.579 6  96746039.51443  23626359.422                    23626369.930
 110689237.633 7  86251391.41445  21063461.180                    21063469.699
 120464715.150 7  93868738.82144  22923667.898                    22923679.641
 130434532.386 6 101637509.16843  24820908.523                    24820919.258
 130549242.977 6 101726730.08243  24842695.633                    24842705.348
 129384014.766 7                  24620919.813
 111293938.494 8  86722595.10646  21178524.359                    21178530.793
 125009097.667 6  97409733.62843  23788433.664                    23788443.023
 11  7 23 22 26  0.0000000  0 10G24G17G07G26G08G04G27G01G28G11
 119261783.327 7  92931432.60944  22694771.008                    22694780.539
 109137548.122 8  85042442.12946  20768188.320                    20768195.840
 122890290.134 7  95758684.20644  23385253.984                    23385264.906
 124222412.987 7  96796809.88143  23638758.008                    23638768.637
 110767524.619 8  86312394.20645  21078358.938                    21078367.246
 120354914.633 7  93783180.14344  22902773.742                    22902784.996
 130459210.308 6 101656574.87143  24825562.352                    24825572.051
 129274714.624 7                  24600121.023
 111282906.573 8  86713998.80846  21176425.281                    21176432.016
 125107802.225 6  97486646.18543  23807217.367                    23807225.293
 11  7 23 22 26 30.0000000  0 10G24G17G07G26G08G04G27G01G28G11
 119328759.494 7  92983621.81444  22707516.359                    22707526.086
 109126807.794 8  85034073.04446  20766144.906                    20766152.180
 122999447.041 7  95843741.35844  23406026.039                    23406036.965
 124287873.305 6  96847817.85543  23651214.875                    23651224.762
 110846292.560 8  86373771.75745  21093347.922                    21093356.191
 120245271.144 7  93697743.82844  22881909.586                    22881920.496
 130369318.052 6 101586529.00242  24808457.273                    24808466.832
 129165446.801 7                  24579327.852
 111272016.399 8  86705512.96346  21174352.609                    21174359.250
 125206739.959 6  97563740.45643  23826044.203                    23826052.895
 11  7 23 22 27  0.0000000  0 10G24G17G07G26G08G04G27G01G28G11
 119396186.299 7  93036162.15944  22720347.070                    22720357.176
 109116378.264 8  85025946.15946  20764159.602                    20764167.578
 123108790.087 7  95928943.56144  23426833.664                    23426844.508
 124353635.823 7  96899061.28043  23663729.063                    23663739.676
 110925539.686 8  86435522.70445  21108428.227                    21108436.371
 120135787.964 7  93612432.43144  22861074.758                    22861085.848
 130279568.685 6 101516594.46843  24791378.156                    24791388.148
 129056213.909 6                  24558541.305
 111261269.968 8  86697139.11646  21172307.727                    21172314.414
 125305908.578 6  97641014.66243  23844915.328                    23844923.969
 11  7 23 22 27 30.0000000  0 10G24G17G07G26G08G04G27G01G28G11
 119464061.420 7  93089051.83844  22733263.703                    22733273.367
 109106258.412 8  85018060.56746  20762234.047                    20762241.078
 123218316.595 7  96014288.72044  23447675.609                    23447686.414
 124419696.977 7  96950537.41143  23676300.789                    23676310.461
 111005263.609 8  86497645.18045  21123599.656                    21123608.074
 120026467.731 7  93527247.97744  22840272.023                    22840283.004
 130189964.146 6 101446772.89042  24774326.305                    24774336.820
 128947018.167 6                  24537761.602
 111250668.035 8  86688877.86946  21170290.063                    21170297.313
 125405305.072 6  97718466.40643  23863830.375                    23863839.090
 11  7 23 22 28  0.0000000  0 10G24G17G07G26G08G04G27G01G28G11
 119532382.679 7  93142289.17644  22746264.375                    22746274.031
 109096447.208 8  85010415.48646  20760366.906                    20760374.621
 123328024.146 7  96099774.90444  23468552.367                    23468563.316
 124486053.618 7  97002243.79743  23688927.227                    23688937.445
 111085462.305 8  86560137.59945  21138860.680                    21138869.566
 119917313.481 7  93442192.88744  22819500.617                    22819511.254
 130100506.960 6 101377066.03442  24757303.156                    24757313.348
 128837862.185 6                  24516989.320
 111240212.239 8  86680730.49546  21168300.883                    21168307.824
 125504927.028 6  97796093.85943  23882788.039                    23882796.414
 11  7 23 22 28 30.0000000  0 10G24G17G07G26G08G04G27G01G28G11
 119601148.277 7  93195872.72344  22759349.969                    22759359.246
 109086943.686 8  85003010.15246  20758558.695                    20758565.766
 123437910.391 7  96185400.34943  23489463.805                    23489473.895
 124552702.733 7  97054178.12143  23701610.750                    23701621.289
 111166133.799 7  86622998.44945  21154212.313                    21154220.637
 119808328.336 7  93357269.51644  22798761.750                    22798772.109
 130011199.374 6 101307475.78143  24740308.594                    24740318.809
 128728748.659 6                  24496225.266
 111229903.914 8  86672698.04046  21166339.188                    21166345.871
 125604772.271 6  97873895.30043  23901787.570                    23901796.410
 11  7 23 22 29  0.0000000  0 10G24G17G07G26G08G04G27G01G28G11
 119670355.390 7  93249800.32144  22772519.906                    22772529.480
 109077746.323 7  84995843.38246  20756808.430                    20756815.996
 123547972.195 7  96271162.61244  23510407.688                    23510417.809
 124619640.504 7  97106337.33443  23714348.406                    23714358.555
 111247275.031 7  86686225.30745  21169653.133                    21169662.063
 119699514.709 7  93272479.83544  22778055.102                    22778064.996
 129922043.068 6 101238003.35743  24723343.063                    24723352.770
 128619679.401 6                  24475470.195
 111219743.332 7  86664780.70046  21164405.195                    21164412.305
 125704837.265 6  97951867.95043  23920830.391                    23920838.656
 11  7 23 22 29 30.0000000  0 10G24G17G07G26G08G04G27G01G28G11
 119740002.620 7  93304070.85544  22785773.344                    22785782.934
 109068854.755 7  84988914.88246  20755116.203                    20755123.828
 123658207.625 6  96357060.17744  23531384.695                    23531396.070
 124686864.524 7  97158719.61943  23727140.789                    23727150.938
 111328884.846 8  86749817.31745  21185182.727                    21185191.707
 119590876.017 7  93187826.43144  22757381.508                    22757392.168
 129833040.796 6 101168651.00143  24706406.695                    24706416.539
 128510657.244 6                  24454723.688
 111209732.717 7  86656980.21746  21162500.289                    21162507.363
 125805120.151 6  98030010.44143  23939913.125                    23939921.320
